[[{"header":{"parameterUnit":"m.s-1","parameterCategory":1,"la1":30.6,"la2":28.766,"lo1":-90.7593,"lo2":-88.6598,"dy":0.0162,"dx":0.0183,"nx":116,"ny":114,"refTime":"2023-03-26T12:00:00:Z","depth":0,"parameterNumber":2,"parameterNumberName":"U-component_of_WINDS"},"data":[0.0,0.0,0.0,0.0,0.0,0.0,0.0,0.0,0.0,0.0,0.0,0.0,0.0,0.0,0.0,0.0,0.0,0.0,0.0,0.0,0.0,0.0,0.0,0.0,0.0,0.0,0.0,0.0,0.0,0.0,0.0,0.0,0.0,0.0,0.0,0.0,0.0,0.0,0.0,0.0,0.0,0.0,0.0,0.0,0.0,0.0,0.0,0.0,0.0,0.0,0.0,0.0,0.0,0.0,0.0,0.0,0.0,0.0,0.0,0.0,0.0,0.0,0.0,0.0,0.0,0.0,0.0,0.0,0.0,0.0,0.0,0.0,0.0,0.0,0.0,0.0,0.0,0.0,0.0,0.0,0.0,0.0,0.0,0.0,0.0,0.0,0.0,0.0,0.0,0.0,0.0,0.0,0.0,0.0,0.0,0.0,0.0,0.0,0.0,0.0,0.0,0.0,0.0,0.0,0.0,0.0,0.0,0.0,0.0,0.0,0.0,0.0,0.0,0.0,0.0,0.0,0.0,0.0,0.0,0.0,0.0,0.0,0.0,0.0,0.0,0.0,0.0,0.0,0.0,0.0,0.0,0.0,0.0,0.0,0.0,0.0,0.0,0.0,0.0,0.0,0.0,0.0,0.0,0.0,0.0,0.0,0.0,0.0,0.0,0.0,0.0,0.0,0.0,0.0,0.0,0.0,0.0,0.0,0.0,0.0,0.0,0.0,0.0,0.0,0.0,0.0,0.0,0.0,0.0,0.0,0.0,0.0,0.0,0.0,0.0,0.0,0.0,0.0,0.0,0.0,0.0,0.0,0.0,0.0,0.0,0.0,0.0,0.0,0.0,0.0,0.0,0.0,0.0,0.0,0.0,0.0,0.0,0.0,0.0,0.0,0.0,0.0,0.0,0.0,0.0,0.0,0.0,0.0,0.0,0.0,0.0,0.0,0.0,0.0,0.0,0.0,0.0,0.0,0.0,0.0,0.0,0.0,0.0,0.0,0.0,0.0,0.0,0.0,0.0,0.0,0.0,0.0,0.0,0.0,0.0,0.0,0.0,0.0,0.0,0.0,0.0,0.0,0.0,0.0,0.0,0.0,0.0,0.0,0.0,0.0,0.0,0.0,0.0,0.0,0.0,0.0,0.0,0.0,0.0,0.0,0.0,0.0,0.0,0.0,0.0,0.0,0.0,0.0,0.0,0.0,0.0,0.0,0.0,0.0,0.0,0.0,0.0,0.0,0.0,0.0,0.0,0.0,0.0,0.0,0.0,0.0,0.0,0.0,0.0,0.0,0.0,0.0,0.0,0.0,0.0,0.0,0.0,0.0,0.0,0.0,0.0,0.0,0.0,0.0,0.0,0.0,0.0,0.0,0.0,0.0,0.0,0.0,0.0,0.0,0.0,0.0,0.0,0.0,0.0,0.0,0.0,0.0,0.0,0.0,0.0,0.0,0.0,0.0,0.0,0.0,0.0,0.0,0.0,0.0,0.0,0.0,0.0,0.0,0.0,0.0,0.0,0.0,0.0,0.0,0.0,0.0,0.0,0.0,0.0,0.0,0.0,0.0,0.0,0.0,0.0,0.0,0.0,0.0,0.0,0.0,0.0,0.0,0.0,0.0,0.0,0.0,0.0,0.0,0.0,0.0,0.0,0.0,0.0,0.0,0.0,0.0,0.0,0.0,0.0,0.0,0.0,0.0,0.0,0.0,0.0,0.0,0.0,0.0,0.0,0.0,0.0,0.0,0.0,0.0,0.0,0.0,0.0,0.0,0.0,0.0,0.0,0.0,0.0,0.0,0.0,0.0,0.0,0.0,0.0,0.0,0.0,0.0,0.0,0.0,0.0,0.0,0.0,0.0,0.0,0.0,0.0,0.0,0.0,0.0,0.0,0.0,0.0,0.0,0.0,0.0,0.0,0.0,0.0,0.0,0.0,0.0,0.0,0.0,0.0,0.0,0.0,0.0,0.0,0.0,0.0,0.0,0.0,0.0,0.0,0.0,0.0,0.0,0.0,0.0,0.0,0.0,0.0,0.0,0.0,0.0,0.0,0.0,0.0,0.0,0.0,0.0,0.0,0.0,0.0,0.0,0.0,0.0,0.0,0.0,0.0,0.0,0.0,0.0,0.0,0.0,0.0,0.0,0.0,0.0,0.0,0.0,0.0,0.0,0.0,0.0,0.0,0.0,0.0,0.0,0.0,0.0,0.0,0.0,0.0,0.0,0.0,0.0,0.0,0.0,0.0,0.0,0.0,0.0,0.0,0.0,0.0,0.0,0.0,0.0,0.0,0.0,0.0,0.0,0.0,0.0,0.0,0.0,0.0,0.0,0.0,0.0,0.0,0.0,0.0,0.0,0.0,0.0,0.0,0.0,0.0,0.0,0.0,0.0,0.0,0.0,0.0,0.0,0.0,0.0,0.0,0.0,0.0,0.0,0.0,0.0,0.0,0.0,0.0,0.0,0.0,0.0,0.0,0.0,0.0,0.0,0.0,0.0,0.0,0.0,0.0,0.0,0.0,0.0,0.0,0.0,0.0,0.0,0.0,0.0,0.0,0.0,0.0,0.0,0.0,0.0,0.0,0.0,0.0,0.0,0.0,0.0,0.0,0.0,0.0,0.0,0.0,0.0,0.0,0.0,0.0,0.0,0.0,0.0,0.0,0.0,0.0,0.0,0.0,0.0,0.0,0.0,0.0,0.0,0.0,0.0,0.0,0.0,0.0,0.0,0.0,0.0,0.0,0.0,0.0,0.0,0.0,0.0,0.0,0.0,0.0,0.0,0.0,0.0,0.0,0.0,0.0,0.0,0.0,0.0,0.0,0.0,0.0,0.0,0.0,0.0,0.0,0.0,0.0,0.0,0.0,0.0,0.0,0.0,0.0,0.0,0.0,0.0,0.0,0.0,0.0,0.0,0.0,0.0,0.0,0.0,0.0,0.0,0.0,0.0,0.0,0.0,0.0,0.0,0.0,0.0,0.0,0.0,0.0,0.0,0.0,0.0,0.0,0.0,0.0,0.0,0.0,0.0,0.0,0.0,0.0,0.0,0.0,0.0,0.0,0.0,0.0,0.0,0.0,0.0,0.0,0.0,0.0,0.0,0.0,0.0,0.0,0.0,0.0,0.0,0.0,0.0,0.0,0.0,0.0,0.0,0.0,0.0,0.0,0.0,0.0,0.0,0.0,0.0,0.0,0.0,0.0,0.0,0.0,0.0,0.0,0.0,0.0,0.0,0.0,0.0,0.0,0.0,0.0,0.0,0.0,0.0,0.0,0.0,0.0,0.0,0.0,0.0,0.0,0.0,0.0,0.0,0.0,0.0,0.0,0.0,0.0,0.0,0.0,0.0,0.0,0.0,0.0,0.0,0.0,0.0,0.0,0.0,0.0,0.0,0.0,0.0,0.0,0.0,0.0,0.0,0.0,0.0,0.0,0.0,0.0,0.0,0.0,0.0,0.0,0.0,0.0,0.0,0.0,0.0,0.0,0.0,0.0,0.0,0.0,0.0,0.0,0.0,0.0,0.0,0.0,0.0,0.0,0.0,0.0,0.0,0.0,0.0,0.0,0.0,0.0,0.0,0.0,0.0,0.0,0.0,0.0,0.0,0.0,0.0,0.0,0.0,0.0,0.0,0.0,0.0,0.0,0.0,0.0,0.0,0.0,0.0,0.0,0.0,0.0,0.0,0.0,0.0,0.0,0.0,0.0,0.0,0.0,0.0,0.0,0.0,0.0,0.0,0.0,0.0,0.0,0.0,0.0,0.0,0.0,0.0,0.0,0.0,0.0,0.0,0.0,0.0,0.0,0.0,0.0,0.0,0.0,0.0,0.0,0.0,0.0,0.0,0.0,0.0,0.0,0.0,0.0,0.0,0.0,0.0,0.0,0.0,0.0,0.0,0.0,0.0,0.0,0.0,0.0,0.0,0.0,0.0,0.0,0.0,0.0,0.0,0.0,0.0,0.0,0.0,0.0,0.0,0.0,0.0,0.0,0.0,0.0,0.0,0.0,0.0,0.0,0.0,0.0,0.0,0.0,0.0,0.0,0.0,0.0,0.0,0.0,0.0,0.0,0.0,0.0,0.0,0.0,0.0,0.0,0.0,0.0,0.0,0.0,0.0,0.0,0.0,0.0,0.0,0.0,0.0,0.0,0.0,0.0,0.0,0.0,0.0,0.0,0.0,0.0,0.0,0.0,0.0,0.0,0.0,0.0,0.0,0.0,0.0,0.0,0.0,0.0,0.0,0.0,0.0,0.0,0.0,0.0,0.0,0.0,0.0,0.0,0.0,0.0,0.0,0.0,0.0,0.0,0.0,0.0,0.0,0.0,0.0,0.0,0.0,0.0,0.0,0.0,0.0,0.0,0.0,0.0,0.0,0.0,0.0,0.0,0.0,0.0,0.0,0.0,0.0,0.0,0.0,0.0,0.0,0.0,0.0,0.0,0.0,0.0,0.0,0.0,0.0,0.0,0.0,0.0,0.0,0.0,0.0,0.0,0.0,0.0,0.0,0.0,0.0,0.0,0.0,0.0,0.0,0.0,0.0,0.0,0.0,0.0,0.0,0.0,0.0,0.0,0.0,0.0,0.0,0.0,0.0,0.0,0.0,0.0,0.0,0.0,0.0,0.0,0.0,0.0,0.0,0.0,0.0,0.0,0.0,0.0,0.0,0.0,0.0,0.0,0.0,0.0,0.0,0.0,0.0,0.0,0.0,0.0,0.0,0.0,0.0,0.0,0.0,0.0,0.0,0.0,0.0,0.0,0.0,0.0,0.0,0.0,0.0,0.0,0.0,0.0,0.0,0.0,0.0,0.0,0.0,0.0,0.0,0.0,0.0,0.0,0.0,0.0,0.0,0.0,0.0,0.0,0.0,0.0,0.0,0.0,0.0,0.0,0.0,0.0,0.0,0.0,0.0,0.0,0.0,0.0,0.0,0.0,0.0,0.0,0.0,0.0,0.0,0.0,0.0,0.0,0.0,0.0,0.0,0.0,0.0,0.0,0.0,0.0,0.0,0.0,0.0,0.0,0.0,0.0,0.0,0.0,0.0,0.0,0.0,0.0,0.0,0.0,0.0,0.0,0.0,0.0,0.0,0.0,0.0,0.0,0.0,0.0,0.0,0.0,0.0,0.0,0.0,0.0,0.0,0.0,0.0,0.0,0.0,0.0,0.0,0.0,0.0,0.0,0.0,0.0,0.0,0.0,0.0,0.0,0.0,0.0,0.0,0.0,0.0,0.0,0.0,0.0,0.0,0.0,0.0,0.0,0.0,0.0,0.0,0.0,0.0,0.0,0.0,0.0,0.0,0.0,0.0,0.0,0.0,0.0,0.0,0.0,0.0,0.0,0.0,0.0,0.0,0.0,0.0,0.0,0.0,0.0,0.0,0.0,0.0,0.0,0.0,0.0,0.0,0.0,0.0,0.0,0.0,0.0,0.0,0.0,0.0,0.0,0.0,0.0,0.0,0.0,0.0,0.0,0.0,0.0,0.0,0.0,0.0,0.0,0.0,0.0,0.0,0.0,0.0,0.0,0.0,0.0,0.0,0.0,0.0,0.0,0.0,0.0,0.0,0.0,0.0,0.0,0.0,0.0,0.0,0.0,0.0,0.0,0.0,0.0,0.0,0.0,0.0,0.0,0.0,0.0,0.0,0.0,0.0,0.0,0.0,0.0,0.0,0.0,0.0,0.0,0.0,0.0,0.0,0.0,0.0,0.0,0.0,0.0,0.0,0.0,0.0,0.0,0.0,0.0,0.0,0.0,0.0,0.0,0.0,0.0,0.0,0.0,0.0,0.0,0.0,0.0,0.0,0.0,0.0,0.0,0.0,0.0,0.0,0.0,0.0,0.0,0.0,0.0,0.0,0.0,0.0,0.0,0.0,0.0,0.0,0.0,0.0,0.0,0.0,0.0,0.0,0.0,0.0,0.0,0.0,0.0,0.0,0.0,0.0,0.0,0.0,0.0,0.0,0.0,0.0,0.0,0.0,0.0,0.0,0.0,0.0,0.0,0.0,0.0,0.0,0.0,0.0,0.0,0.0,0.0,0.0,0.0,0.0,0.0,0.0,0.0,0.0,0.0,0.0,0.0,0.0,0.0,0.0,0.0,0.0,0.0,0.0,5.4002,0.0,0.0,0.0,0.0,0.0,0.0,0.0,0.0,0.0,0.0,0.0,0.0,0.0,0.0,0.0,0.0,0.0,0.0,0.0,0.0,0.0,0.0,0.0,0.0,0.0,0.0,0.0,0.0,0.0,0.0,0.0,0.0,0.0,0.0,0.0,0.0,0.0,0.0,0.0,0.0,0.0,0.0,0.0,0.0,0.0,0.0,0.0,0.0,0.0,0.0,0.0,0.0,0.0,0.0,0.0,0.0,0.0,0.0,0.0,0.0,0.0,0.0,0.0,0.0,0.0,0.0,0.0,0.0,0.0,0.0,0.0,0.0,0.0,0.0,0.0,0.0,0.0,0.0,0.0,0.0,0.0,0.0,0.0,0.0,0.0,0.0,0.0,0.0,0.0,0.0,0.0,0.0,0.0,0.0,0.0,0.0,0.0,0.0,0.0,0.0,0.0,0.0,0.0,0.0,0.0,0.0,0.0,0.0,0.0,0.0,0.0,0.0,0.0,0.0,0.0,0.0,5.5213,0.0,0.0,0.0,0.0,0.0,0.0,0.0,0.0,0.0,0.0,0.0,0.0,0.0,0.0,0.0,0.0,0.0,0.0,0.0,0.0,0.0,0.0,0.0,0.0,0.0,0.0,0.0,0.0,0.0,0.0,0.0,0.0,0.0,0.0,0.0,0.0,0.0,0.0,0.0,0.0,0.0,0.0,0.0,0.0,0.0,0.0,0.0,0.0,0.0,0.0,0.0,0.0,0.0,0.0,0.0,0.0,0.0,0.0,0.0,0.0,0.0,0.0,0.0,0.0,0.0,0.0,0.0,0.0,0.0,0.0,0.0,0.0,0.0,0.0,0.0,0.0,0.0,0.0,0.0,0.0,0.0,0.0,0.0,0.0,0.0,0.0,0.0,0.0,0.0,0.0,0.0,0.0,0.0,0.0,0.0,0.0,0.0,0.0,0.0,0.0,0.0,0.0,0.0,0.0,0.0,0.0,0.0,0.0,0.0,6.1033,6.2663,6.3012,6.3226,6.3193,6.0216,5.8108,5.6758,0.0,0.0,0.0,0.0,0.0,0.0,0.0,0.0,0.0,0.0,0.0,0.0,0.0,0.0,0.0,0.0,0.0,0.0,0.0,0.0,0.0,0.0,0.0,0.0,0.0,0.0,0.0,0.0,0.0,0.0,0.0,0.0,0.0,0.0,0.0,0.0,0.0,0.0,0.0,4.9717,5.1379,5.248,5.2887,4.789,0.0,0.0,0.0,0.0,0.0,0.0,0.0,0.0,0.0,0.0,0.0,0.0,0.0,0.0,0.0,0.0,0.0,0.0,0.0,0.0,0.0,0.0,0.0,0.0,0.0,0.0,0.0,0.0,0.0,0.0,0.0,0.0,0.0,0.0,0.0,0.0,0.0,0.0,0.0,0.0,0.0,0.0,0.0,4.9409,5.0765,0.0,0.0,0.0,0.0,0.0,0.0,0.0,0.0,0.0,0.0,0.0,0.0,0.0,0.0,6.0385,6.1685,6.2273,6.2184,6.396,6.4422,6.3759,6.5459,6.6576,6.7184,6.7387,0.0,5.9475,5.829,0.0,0.0,0.0,0.0,0.0,0.0,0.0,0.0,0.0,0.0,0.0,0.0,0.0,0.0,0.0,0.0,0.0,0.0,0.0,0.0,0.0,0.0,0.0,0.0,0.0,0.0,0.0,0.0,0.0,0.0,0.0,0.0,0.0,0.0,0.0,0.0,4.9972,5.1648,5.3054,5.3892,5.4461,5.464,5.2102,5.0469,4.9569,4.8675,0.0,0.0,0.0,0.0,0.0,0.0,0.0,0.0,0.0,0.0,0.0,0.0,0.0,0.0,0.0,0.0,0.0,0.0,0.0,0.0,0.0,0.0,0.0,0.0,0.0,0.0,0.0,0.0,0.0,0.0,0.0,0.0,0.0,0.0,0.0,0.0,0.0,0.0,0.0,5.0773,5.1715,5.0712,5.2489,5.3295,0.0,0.0,0.0,0.0,0.0,0.0,0.0,0.0,0.0,5.9213,5.9574,6.1108,6.3979,6.3947,6.5239,6.7739,6.7918,6.8592,6.9722,7.0575,7.1153,7.1416,7.1375,6.9145,6.5406,6.2756,6.0084,5.755,0.0,0.0,0.0,0.0,0.0,5.6928,0.0,0.0,0.0,0.0,0.0,0.0,0.0,0.0,0.0,0.0,0.0,0.0,0.0,0.0,0.0,4.4566,0.0,0.0,0.0,0.0,0.0,0.0,0.0,0.0,0.0,0.0,0.0,5.0727,5.2701,5.4551,5.6196,5.6555,5.6974,5.7423,5.6915,5.5119,5.2396,5.1026,4.9321,0.0,0.0,0.0,0.0,0.0,0.0,0.0,0.0,0.0,0.0,0.0,0.0,0.0,0.0,0.0,0.0,0.0,0.0,0.0,0.0,0.0,0.0,0.0,0.0,0.0,0.0,0.0,0.0,0.0,0.0,0.0,0.0,0.0,0.0,0.0,0.0,0.0,0.0,5.2236,5.3375,5.1203,5.4142,5.5262,0.0,0.0,0.0,0.0,0.0,0.0,5.6636,5.8611,6.0673,6.2786,6.318,6.4826,6.7862,6.7374,6.8858,7.2385,7.1969,7.276,7.4598,7.5097,7.5237,7.5011,7.4462,7.3139,7.0985,6.6626,6.2891,5.971,5.8074,5.7086,5.6719,5.7826,5.8594,5.9248,0.0,0.0,0.0,0.0,0.0,0.0,0.0,0.0,0.0,0.0,0.0,0.0,0.0,0.0,4.6659,4.7959,4.8199,4.8528,0.0,0.0,0.0,0.0,0.0,0.0,0.0,0.0,0.0,5.2097,5.5931,5.8175,5.8949,6.0206,6.1792,6.3468,6.1642,5.9009,5.5743,5.2516,5.1056,5.069,0.0,0.0,0.0,0.0,0.0,0.0,0.0,0.0,0.0,0.0,0.0,0.0,0.0,0.0,0.0,0.0,0.0,0.0,0.0,0.0,0.0,0.0,0.0,0.0,0.0,0.0,0.0,0.0,0.0,0.0,0.0,0.0,0.0,0.0,0.0,0.0,0.0,0.0,0.0,5.3297,5.4319,0.0,0.0,0.0,0.0,5.4964,5.7453,5.9534,6.0835,6.2216,6.4296,6.7213,6.8563,7.0346,7.2628,7.4075,7.4637,7.4486,7.6259,7.6589,7.5719,7.7537,7.7996,7.7324,7.7292,7.6451,7.4642,6.8212,6.4246,6.2026,5.9893,5.9065,5.9032,5.9119,5.9183,5.9348,0.0,0.0,0.0,0.0,0.0,0.0,0.0,0.0,0.0,0.0,0.0,0.0,0.0,4.7497,4.971,5.1917,5.2486,5.2276,5.1253,0.0,0.0,0.0,0.0,0.0,0.0,0.0,5.3623,5.7274,5.9129,6.1016,6.29,6.3379,6.3977,6.4605,6.3917,6.251,6.0383,5.6192,5.3174,5.0966,4.8655,4.7113,0.0,0.0,0.0,0.0,0.0,0.0,0.0,0.0,0.0,0.0,0.0,0.0,0.0,0.0,0.0,0.0,0.0,0.0,0.0,0.0,0.0,0.0,0.0,0.0,0.0,0.0,0.0,0.0,0.0,0.0,0.0,0.0,0.0,0.0,0.0,0.0,0.0,5.6449,5.9538,0.0,0.0,5.8556,5.8885,5.8885,6.1518,6.3628,6.4813,6.6721,6.8792,7.0995,7.1558,7.3218,7.613,7.5479,7.5864,7.7365,7.6805,7.6557,7.6582,7.7245,7.7434,7.7152,7.6713,7.6024,7.4897,7.1677,6.8568,6.5714,6.3966,6.2696,6.2011,6.296,6.3361,6.3679,0.0,0.0,0.0,0.0,0.0,0.0,0.0,0.0,0.0,0.0,0.0,4.4457,4.7309,5.0391,5.3,5.5029,5.5388,5.467,5.2665,0.0,0.0,0.0,4.7938,0.0,0.0,5.3503,5.6585,6.0745,6.2091,6.3887,6.6011,6.5802,6.5922,6.631,6.5622,6.4994,6.4185,6.0204,5.6436,5.2965,5.0331,4.9104,4.8533,0.0,0.0,0.0,0.0,0.0,0.0,0.0,0.0,0.0,0.0,0.0,0.0,0.0,0.0,0.0,0.0,0.0,0.0,0.0,0.0,0.0,0.0,0.0,0.0,0.0,0.0,0.0,0.0,0.0,0.0,0.0,0.0,0.0,0.0,0.0,6.0124,5.9794,6.3638,6.5199,6.2396,6.2644,6.2981,6.2981,6.5594,6.7716,6.8888,7.0805,7.2543,7.3969,7.4461,7.5646,7.759,7.6544,7.6884,7.8592,7.7286,7.689,7.7321,7.7321,7.7198,7.6952,7.6554,7.5969,7.5261,7.4368,7.2382,6.9708,6.7752,6.6295,6.5344,6.6093,6.6399,6.667,0.0,0.0,0.0,0.0,0.0,0.0,0.0,0.0,0.0,0.0,4.3299,4.6112,4.8207,5.3109,5.6551,5.7214,5.6641,5.5384,5.3408,5.0175,0.0,0.0,0.0,0.0,5.2396,5.6855,6.0176,6.2241,6.4814,6.6729,6.8017,6.7358,6.7747,6.8914,6.6969,6.643,6.6849,6.4335,6.0982,5.7034,5.3,5.2097,5.269,0.0,0.0,0.0,0.0,0.0,0.0,0.0,0.0,0.0,0.0,0.0,0.0,0.0,0.0,0.0,0.0,0.0,0.0,0.0,0.0,0.0,0.0,0.0,0.0,0.0,0.0,0.0,0.0,0.0,0.0,0.0,0.0,0.0,5.5225,5.9173,6.2392,6.3364,6.621,6.7139,6.4581,6.6096,6.7168,6.7168,6.9628,7.1721,7.3137,7.443,7.5446,7.6092,7.7352,7.7721,7.7044,7.769,7.8029,7.8029,7.8029,7.8029,7.8029,7.7998,7.7629,7.7014,7.6983,7.6614,7.6031,7.6031,7.5261,7.3783,7.1075,6.9597,6.892,6.8274,6.8027,6.7983,0.0,0.0,0.0,0.0,0.0,0.0,0.0,0.0,0.0,0.0,4.3988,4.7519,5.1432,5.5269,5.862,6.1222,5.865,5.6231,5.473,0.0,0.0,0.0,0.0,0.0,5.7094,5.9398,6.2241,6.5652,6.688,6.7898,6.8704,6.8525,6.8645,6.8974,6.8435,6.8016,6.7688,6.697,6.5443,6.3079,5.7663,5.4281,5.2217,0.0,0.0,0.0,0.0,0.0,0.0,0.0,0.0,0.0,0.0,0.0,0.0,0.0,0.0,0.0,0.0,0.0,0.0,0.0,0.0,0.0,0.0,0.0,0.0,0.0,0.0,0.0,0.0,0.0,0.0,0.0,0.0,5.9401,5.9996,6.323,6.6539,6.9246,7.1624,7.2768,7.2056,7.2892,7.3506,7.3506,7.5075,7.6461,7.7354,7.7754,7.8062,7.8247,7.8616,7.8709,7.8524,7.8709,7.8801,7.8801,7.8801,7.8801,7.8801,7.8244,7.7906,7.769,7.7198,7.689,7.6739,7.6739,7.6246,7.5292,7.3537,7.2183,7.1136,7.0921,7.0717,7.0349,0.0,0.0,0.0,0.0,0.0,0.0,0.0,0.0,0.0,0.0,4.5394,4.9381,5.3204,5.7304,6.0446,6.2121,5.9099,5.6201,5.4072,0.0,0.0,0.0,0.0,5.5931,6.0266,6.275,6.5503,6.8615,6.9335,6.9961,7.0649,7.0649,7.0649,7.062,7.035,6.9991,6.9634,6.9335,6.8465,6.6939,6.3169,5.9697,5.6466,5.3743,5.2606,5.2247,5.105,5.0949,5.1157,4.9483,0.0,0.0,0.0,0.0,0.0,0.0,0.0,0.0,0.0,0.0,0.0,0.0,0.0,0.0,0.0,0.0,0.0,0.0,0.0,0.0,0.0,0.0,0.0,0.0,6.0886,6.4189,6.6693,6.8438,7.0521,7.3322,7.5476,7.6708,7.6708,7.7077,7.7293,7.7293,7.8031,7.8647,7.9078,7.9109,7.9109,7.9109,7.9386,7.9386,7.9109,7.9386,7.9663,7.9909,7.9663,7.9663,7.9909,7.9201,7.8706,0.0,7.7721,7.7413,7.7383,7.7106,7.6767,0.0,0.0,0.0,0.0,0.0,7.1899,7.1124,0.0,0.0,0.0,0.0,0.0,0.0,0.0,0.0,0.0,0.0,0.0,5.1056,5.3593,5.853,6.1463,6.1044,5.8411,5.5508,0.0,0.0,4.9972,5.1265,5.6555,6.0475,6.272,6.6431,6.9215,7.1009,7.1667,7.2325,7.2924,7.2924,7.2924,7.286,7.2265,7.1996,7.1966,7.1368,7.047,6.9393,6.8736,6.6341,6.2748,5.8467,5.7423,5.7965,5.6077,5.458,5.3278,5.2369,0.0,0.0,0.0,0.0,0.0,0.0,0.0,0.0,0.0,0.0,0.0,0.0,0.0,0.0,0.0,0.0,0.0,0.0,0.0,0.0,0.0,0.0,0.0,0.0,6.538,6.9289,7.3814,7.4122,7.4553,7.6369,7.8216,7.9417,7.9632,7.9601,7.957,7.9663,7.9663,7.9632,7.957,0.0,0.0,0.0,0.0,8.0124,7.9447,8.0094,8.0709,8.1206,8.0679,8.0709,8.1206,8.0525,7.9847,7.917,7.8429,7.8121,7.806,7.7383,7.7044,7.6921,7.6277,7.5661,7.4953,7.3691,7.2368,0.0,0.0,0.0,0.0,0.0,0.0,0.0,0.0,0.0,0.0,4.2141,4.6522,5.0062,5.1594,5.6021,5.9279,6.0206,5.6915,5.4251,0.0,5.1139,5.2462,5.7962,6.0326,6.3199,6.679,6.9123,7.0799,7.1697,7.2385,7.2774,7.2924,7.2924,7.2924,7.2894,7.2774,7.2714,7.2714,7.2595,7.2385,7.2086,7.1398,6.8196,6.3617,6.1672,6.0086,5.871,5.7244,5.7539,5.8248,5.5636,5.5978,5.6954,5.405,0.0,0.0,0.0,0.0,0.0,0.0,0.0,0.0,0.0,0.0,0.0,0.0,0.0,0.0,0.0,0.0,0.0,0.0,0.0,0.0,6.5291,6.969,7.3691,7.6767,7.8555,7.9697,8.0066,8.0467,8.136,8.2987,8.2618,8.2556,8.308,8.3141,8.2895,8.2341,8.2833,0.0,8.2341,8.2433,8.2187,8.1544,8.2187,8.231,8.1914,0.0,0.0,8.1883,8.1206,8.0525,7.9878,7.9201,7.8893,7.8832,7.809,7.7475,7.6921,7.6277,7.5938,7.5723,7.4922,7.4091,7.3291,0.0,0.0,0.0,0.0,0.0,0.0,0.0,0.0,0.0,0.0,4.5564,4.8416,5.0062,5.3473,5.5658,5.5658,5.3264,0.0,5.1708,5.2911,5.5897,6.0864,6.3947,6.6939,6.9903,7.1547,7.2714,7.3406,7.3732,7.3881,7.3881,7.3881,7.3881,7.3881,7.3881,7.3881,7.3881,7.3881,7.3702,7.3373,7.3043,7.1098,6.8256,6.6281,6.4725,6.3408,6.2421,6.1852,6.1311,5.9444,5.8781,5.841,5.6113,5.4552,5.3289,0.0,0.0,0.0,0.0,0.0,0.0,0.0,0.0,0.0,0.0,0.0,0.0,0.0,0.0,5.6176,0.0,0.0,6.6581,7.0336,7.4368,7.7877,8.0217,8.2033,8.2587,8.1267,8.2006,8.2987,8.4003,8.4095,8.4249,8.4588,8.428,8.4095,8.4095,8.3788,8.3757,8.4095,8.3449,8.3264,8.3603,8.3264,8.3264,8.3603,8.3264,8.308,8.308,8.2402,8.1725,8.1048,8.0371,7.9909,7.954,7.8429,7.7598,7.6952,7.6646,7.6308,7.5969,7.563,7.5076,7.4399,0.0,0.0,0.0,0.0,0.0,0.0,0.0,0.0,0.0,0.0,4.4466,4.6681,4.8169,5.0684,5.1708,0.0,0.0,5.0289,5.1451,5.5388,5.9458,6.3438,6.7298,7.029,7.2268,7.3462,7.436,7.4903,7.4903,7.4903,7.4903,7.4903,7.4903,7.4903,7.4903,7.4903,7.4903,7.4903,7.4604,7.4091,7.4091,7.3762,7.3043,7.0799,6.9453,6.8616,6.7568,6.5533,6.3168,6.251,6.0685,5.8557,5.7892,5.6944,5.565,5.3427,5.2757,0.0,0.0,0.0,0.0,0.0,0.0,0.0,0.0,0.0,5.3768,5.5014,5.8116,6.1225,6.3383,6.7293,7.1353,7.4983,7.8395,8.119,8.3049,8.4465,8.4495,8.2345,8.348,8.4588,8.4865,8.5265,8.5573,8.5696,8.5203,8.508,8.548,8.4588,8.4526,8.548,8.4465,8.4342,8.5296,8.4342,8.4372,8.5296,8.4188,8.388,8.428,8.3603,8.2833,8.2068,8.139,8.0709,8.0001,7.877,7.7813,7.7167,7.7044,7.6644,7.6183,7.6183,7.5784,7.5107,0.0,0.0,0.0,0.0,0.0,0.0,0.0,0.0,0.0,0.0,0.0,0.0,0.0,0.0,0.0,0.0,4.9699,5.2893,5.6115,5.8471,6.254,6.8733,7.0111,7.1637,7.3612,7.4424,7.4843,7.4903,7.4903,7.4903,7.4903,7.4903,7.4903,7.4903,7.4903,7.4903,7.4903,7.4903,7.4873,7.4813,7.4813,7.4753,7.4604,7.3672,7.2565,7.1128,6.8766,6.6191,6.3797,6.3197,6.2002,6.0892,6.1591,6.1083,5.9534,5.5981,0.0,5.2091,4.9353,4.8706,4.8943,4.9435,5.0748,5.2451,0.0,0.0,5.969,6.0685,6.4118,6.6952,6.726,7.1353,7.5301,7.735,8.0246,8.2622,8.3844,8.5142,8.5881,8.5604,8.5758,8.6373,8.7604,8.7266,8.7204,8.782,8.7789,8.7512,8.6989,8.7389,8.742,8.6958,8.6804,8.6496,8.6004,8.6496,8.6496,8.6004,8.585,8.5511,8.4957,8.428,8.3295,8.2068,8.139,8.0709,8.0032,7.9293,7.8555,7.7813,7.7229,7.6921,7.686,7.686,7.6461,7.5877,0.0,0.0,0.0,0.0,0.0,0.0,0.0,0.0,0.0,0.0,0.0,0.0,0.0,0.0,0.0,4.4098,4.8231,5.194,5.4498,5.9007,6.3905,6.8998,7.0523,7.2285,7.442,7.4783,7.4903,7.4903,7.4903,7.4903,7.4903,7.4903,7.4903,7.4903,7.4903,7.4903,7.4903,7.4903,7.4903,7.4903,7.4903,7.4903,7.4783,7.3732,7.2265,7.0472,6.7777,6.5383,0.0,0.0,6.1224,6.1224,6.2023,6.1014,5.9029,5.6708,5.4253,0.0,4.9939,5.0254,0.0,0.0,5.4392,5.7086,5.8861,6.1183,6.3406,6.4978,6.8238,7.1166,7.2356,7.5716,7.8998,0.0,8.2918,8.4687,8.5973,8.6617,8.6678,8.5851,8.598,8.665,8.8066,8.8282,8.8391,8.844,8.8292,8.8176,8.8041,8.7769,8.7851,8.8343,8.7604,8.742,8.7912,8.742,8.705,8.6743,8.6312,8.5542,8.4526,8.4218,8.3357,8.2099,8.1822,8.0832,7.9509,7.9167,7.8398,7.7383,7.7106,7.6983,7.6983,7.6983,7.6798,7.6554,0.0,0.0,0.0,0.0,0.0,0.0,0.0,0.0,0.0,0.0,0.0,0.0,0.0,0.0,0.0,4.1763,4.5881,4.9931,5.3312,5.8929,6.4062,6.8509,7.0711,7.2639,7.4189,7.4663,7.4697,7.4253,7.4697,7.4663,7.4253,7.4697,7.4903,7.4903,7.4903,7.4903,7.4903,7.4903,7.4903,7.4903,7.4903,7.4693,7.418,7.2684,7.053,6.8016,6.5742,6.3318,0.0,0.0,5.856,5.886,6.0086,5.9318,5.7635,5.5922,5.3276,5.0832,5.0597,0.0,0.0,5.5177,5.8438,6.1803,6.3611,6.5671,6.782,7.0091,7.27,7.5037,7.6705,7.932,0.0,8.3124,8.4801,8.6205,8.6998,8.7005,8.6364,8.4954,8.476,8.5188,8.6385,8.78,8.8653,8.8609,8.8516,8.8568,8.8755,8.8131,8.8189,8.9174,8.8251,8.822,8.9205,8.822,8.7666,8.7451,8.6743,8.5788,8.4649,8.4065,8.3172,8.2099,8.1914,8.0986,7.9601,7.9201,7.846,7.7539,7.7137,7.6983,7.6983,7.6983,7.6983,7.6921,0.0,0.0,0.0,0.0,0.0,0.0,0.0,0.0,0.0,0.0,0.0,0.0,0.0,0.0,3.9815,4.0138,4.2626,4.7292,5.4653,5.858,6.3037,6.835,7.1343,7.2747,7.2592,7.4085,7.4149,7.2586,7.4149,7.4085,7.2621,7.4184,7.4903,7.4903,7.4903,7.4903,7.4903,7.4903,7.4903,7.4903,7.4903,7.4121,7.2774,7.0799,6.7627,6.4006,6.269,0.0,0.0,0.0,5.3533,5.2935,5.5564,5.6492,0.0,5.3477,5.0547,0.0,0.0,0.0,5.5601,5.8823,6.2445,6.598,6.8879,7.1416,7.3976,7.6971,7.8196,7.8959,7.9652,8.1509,8.2905,8.2936,8.5182,8.6738,8.6032,8.5432,8.4589,8.3252,8.1951,8.1435,0.0,8.5262,8.7639,8.8548,8.8946,8.9174,8.9167,8.9174,8.9174,8.9205,8.9174,8.9174,8.9205,8.9174,8.8805,8.8159,8.7481,8.6773,8.5973,8.4003,8.2741,8.2068,8.1421,8.1113,8.0959,7.9632,7.9078,7.8893,7.7506,7.6983,7.6983,7.6983,7.6983,7.6983,0.0,0.0,0.0,0.0,0.0,0.0,0.0,0.0,0.0,0.0,0.0,0.0,0.0,0.0,0.0,0.0,4.2376,4.518,4.8443,5.3554,5.8233,6.2175,6.6237,6.883,6.9764,7.1058,7.1452,7.0907,7.255,7.304,7.255,7.4149,7.4903,7.4903,7.4903,7.4903,7.4903,7.4903,7.5172,7.5407,7.3612,7.2894,7.2412,6.8286,6.4216,6.0296,0.0,0.0,0.0,0.0,0.0,0.0,5.3503,0.0,0.0,4.9847,0.0,0.0,0.0,0.0,6.1114,6.442,6.7813,7.0991,7.331,7.4808,7.6094,7.752,7.6658,7.5906,7.7049,7.7649,7.8735,8.0906,8.3143,8.4986,8.6036,8.5613,8.4042,8.0997,8.0855,0.0,0.0,0.0,0.0,8.6343,8.7226,8.8126,8.9011,8.9274,8.9643,9.0103,8.9283,8.8969,8.939,8.8969,8.8355,8.7512,8.5911,8.5019,8.4742,8.3603,8.271,8.2099,8.1883,8.1267,8.0402,7.994,7.9232,7.8306,7.7844,7.7383,7.6983,7.6983,7.6983,7.6983,0.0,0.0,0.0,0.0,0.0,0.0,0.0,0.0,0.0,0.0,0.0,0.0,0.0,0.0,0.0,0.0,0.0,0.0,4.5189,4.9173,5.2988,5.6454,6.0254,6.2683,6.3542,6.4646,6.5231,6.5279,6.7763,6.9132,6.9447,7.1454,7.2875,7.3821,7.3287,7.3623,7.448,7.4035,7.3672,7.3223,7.0769,6.9183,6.7867,6.3528,5.9697,0.0,0.0,0.0,0.0,0.0,0.0,0.0,0.0,0.0,0.0,0.0,0.0,0.0,0.0,6.1194,6.6071,6.9604,7.2565,7.5108,7.6904,7.7233,7.7293,7.7711,7.5527,7.3821,7.4689,7.4429,7.4996,7.7655,7.9899,8.2015,8.4056,8.3356,8.1853,7.9809,7.9338,0.0,0.0,0.0,0.0,8.4796,8.6266,8.7589,8.8895,8.9395,8.9848,9.0344,8.9277,8.8881,8.9269,8.8637,8.7814,8.6733,8.528,8.4218,8.3511,8.3224,8.2587,8.176,8.176,8.1233,8.0402,7.994,7.9232,7.8337,7.7813,7.7383,7.6983,7.6983,7.6983,7.6983,0.0,0.0,0.0,0.0,0.0,0.0,0.0,0.0,0.0,0.0,0.0,0.0,0.0,0.0,0.0,0.0,0.0,0.0,4.4753,4.5555,4.753,5.1263,5.378,5.4991,5.4698,5.5723,5.6312,5.6454,6.0463,6.2829,6.3625,6.6215,6.8851,7.1305,6.996,7.08,7.3163,7.1876,7.029,6.8465,6.643,6.3378,5.9785,5.706,0.0,0.0,0.0,0.0,0.0,0.0,0.0,0.0,0.0,0.0,0.0,0.0,0.0,5.5987,6.188,6.634,7.029,7.4151,7.6514,7.819,7.9477,7.8699,7.7682,7.7592,7.4899,7.2535,0.0,0.0,7.1883,7.3529,7.5992,7.8503,8.0808,7.9477,7.8699,0.0,0.0,0.0,0.0,0.0,0.0,8.4027,0.0,8.7451,8.8847,8.9535,8.993,8.996,8.9271,8.8877,8.8907,8.8149,8.7156,8.585,8.5588,8.446,8.2596,8.2964,8.2437,8.1206,8.1144,8.1113,8.099,7.9694,7.9139,7.8955,7.76,7.7014,7.6983,7.6983,7.6983,7.6983,0.0,0.0,0.0,0.0,0.0,0.0,0.0,0.0,0.0,0.0,0.0,0.0,0.0,0.0,0.0,0.0,0.0,0.0,3.9058,4.1273,4.3355,4.5181,4.9129,5.1453,5.1856,5.3166,5.4005,5.4229,5.7413,5.8973,5.8989,6.1582,6.3207,6.3828,6.3475,6.3713,6.4366,6.4006,6.3857,6.3647,0.0,5.9817,5.8949,0.0,0.0,0.0,0.0,0.0,0.0,0.0,0.0,0.0,0.0,0.0,5.294,0.0,0.0,6.248,6.6969,7.1098,7.4869,7.7831,7.8549,7.8639,7.8968,7.7682,7.5976,7.448,7.0739,6.7328,0.0,0.0,0.0,7.1939,7.7069,0.0,8.4782,8.4743,0.0,0.0,0.0,8.0494,7.9141,7.9956,0.0,0.0,8.4556,8.5929,8.9047,8.9862,9.0426,9.0909,8.9319,8.8685,8.9198,8.7365,8.6032,8.5213,8.4924,8.4497,8.3947,8.3363,8.2895,8.2525,8.1544,8.1113,8.1052,8.0186,7.954,7.9016,7.809,7.7444,7.6983,7.6983,7.6983,7.6983,0.0,0.0,0.0,0.0,0.0,0.0,0.0,0.0,0.0,0.0,0.0,0.0,0.0,0.0,0.0,0.0,0.0,0.0,0.0,3.9259,4.0346,4.1089,4.4143,4.5715,4.5507,4.684,4.7947,4.8736,5.1586,5.3572,5.4741,5.636,5.7786,5.8922,5.8265,5.8821,6.0176,5.9608,0.0,0.0,0.0,0.0,0.0,0.0,0.0,0.0,0.0,0.0,0.0,0.0,0.0,5.1774,5.3324,5.5179,5.7423,6.0655,0.0,6.7897,7.1843,7.5647,7.8968,8.1033,8.0584,7.9447,7.8549,7.6395,7.3612,7.0139,6.646,0.0,0.0,0.0,0.0,0.0,0.0,0.0,8.4423,8.4992,8.4872,0.0,8.4004,0.0,8.208,8.2619,8.3756,0.0,8.5252,8.6319,8.9328,9.0109,9.0609,9.0969,8.9358,8.8367,8.8156,8.6889,8.58,8.4864,8.485,8.4407,8.3495,8.286,8.2429,8.2092,0.0,8.0444,8.0107,7.943,7.8757,7.8084,7.7411,7.689,7.6554,7.6554,7.6554,7.6521,0.0,0.0,0.0,0.0,0.0,0.0,0.0,0.0,0.0,0.0,0.0,0.0,0.0,0.0,0.0,0.0,0.0,0.0,0.0,0.0,3.8654,3.884,3.9986,4.0101,3.9104,4.0195,4.1418,4.274,0.0,4.7905,5.0486,5.1052,5.2616,5.4825,0.0,0.0,0.0,0.0,0.0,0.0,0.0,0.0,0.0,0.0,0.0,0.0,0.0,0.0,0.0,0.0,5.3887,5.4606,5.7304,5.9578,6.2061,6.6011,6.9333,7.2565,7.6544,7.9836,8.2439,8.3538,8.232,8.0195,7.7921,7.4689,7.0649,6.5413,0.0,5.9877,5.7935,5.9491,6.251,6.6819,0.0,7.7238,8.2806,8.3525,8.4363,8.6818,8.6,8.5252,8.5252,8.5252,8.5761,8.7028,8.7107,8.7856,8.9632,9.0279,9.0507,9.0328,8.9292,8.8005,8.6569,8.6578,8.5881,8.4594,8.507,8.4298,8.2437,8.2231,8.1746,8.0988,0.0,0.0,7.9055,7.8322,7.7714,7.7202,7.65,7.6197,7.6105,7.6105,7.6014,7.5923,0.0,0.0,0.0,0.0,0.0,0.0,0.0,0.0,0.0,0.0,4.0187,3.9469,0.0,0.0,0.0,0.0,0.0,0.0,0.0,0.0,0.0,3.9519,4.0208,4.074,4.1002,0.0,0.0,0.0,0.0,0.0,4.5183,4.6639,4.7546,0.0,0.0,0.0,0.0,0.0,0.0,0.0,0.0,0.0,0.0,0.0,0.0,0.0,0.0,0.0,0.0,0.0,5.7513,5.9458,6.263,6.5413,6.8226,7.2176,7.451,7.6664,8.0681,8.2948,8.4265,8.4474,8.2649,7.9836,7.6215,7.1577,0.0,0.0,0.0,5.6585,5.5149,5.8264,6.3109,6.9243,0.0,0.0,0.0,0.0,8.7407,0.0,0.0,0.0,0.0,0.0,0.0,0.0,0.0,0.0,8.9692,9.0279,9.0088,8.9052,8.8813,8.7766,8.5881,8.5851,8.5192,8.3867,8.4829,8.4577,8.3228,8.3449,8.2869,8.1685,0.0,0.0,7.9688,7.902,7.8655,7.8504,7.7832,7.7225,7.6743,7.6743,7.6409,7.5923,0.0,0.0,0.0,0.0,0.0,0.0,0.0,4.0157,4.0397,4.1733,4.1373,4.0904,4.0771,4.0467,4.047,0.0,0.0,0.0,0.0,0.0,0.0,0.0,0.0,0.0,0.0,0.0,0.0,0.0,0.0,0.0,0.0,0.0,0.0,0.0,0.0,0.0,0.0,0.0,0.0,0.0,0.0,0.0,0.0,0.0,0.0,0.0,0.0,0.0,0.0,0.0,5.8018,6.2391,6.6729,7.0171,7.3163,7.6066,7.8579,8.0936,8.3576,8.6,8.7337,8.5641,8.2739,7.8819,7.3103,0.0,0.0,0.0,0.0,5.3803,5.2821,5.6679,0.0,0.0,0.0,0.0,0.0,0.0,0.0,0.0,0.0,0.0,0.0,0.0,0.0,0.0,0.0,0.0,9.016,9.0417,8.9999,8.8723,8.8693,8.7885,8.621,8.621,8.5731,8.4743,8.4937,8.4474,8.3551,8.3048,8.2249,8.1285,8.0622,0.0,7.8754,7.8453,7.8122,7.779,7.7424,7.7123,7.6856,7.6856,7.6646,7.634,0.0,0.0,0.0,0.0,0.0,0.0,0.0,4.0954,4.1194,4.283,4.29,4.275,4.2601,4.2002,4.1782,0.0,0.0,0.0,0.0,0.0,0.0,0.0,0.0,0.0,0.0,0.0,0.0,0.0,0.0,0.0,0.0,0.0,0.0,0.0,0.0,0.0,0.0,0.0,0.0,0.0,0.0,0.0,0.0,0.0,0.0,0.0,0.0,0.0,0.0,0.0,5.721,6.2509,6.7627,7.2295,7.6215,7.7711,8.0823,8.4017,8.5521,8.8125,8.9681,8.6479,8.2619,7.7711,7.044,6.4485,0.0,0.0,5.2336,5.1708,5.1445,0.0,5.9249,0.0,6.67,0.0,0.0,0.0,0.0,0.0,0.0,0.0,0.0,0.0,0.0,0.0,0.0,0.0,9.0597,9.0477,8.989,8.8723,8.8544,8.7885,8.6728,8.6728,8.6329,8.5671,8.5162,8.4504,8.3658,8.2529,8.1572,8.0764,8.0105,0.0,0.0,7.8011,7.7711,7.7227,7.7227,7.7137,7.6988,7.6988,7.6898,7.6779,0.0,0.0,0.0,0.0,0.0,0.0,0.0,4.1343,4.2211,4.4726,4.4496,4.3878,4.328,4.269,4.2081,0.0,0.0,0.0,0.0,0.0,0.0,0.0,0.0,0.0,0.0,0.0,0.0,0.0,0.0,0.0,0.0,0.0,0.0,0.0,0.0,0.0,0.0,0.0,0.0,0.0,0.0,0.0,0.0,0.0,0.0,0.0,0.0,0.0,0.0,0.0,0.0,5.7659,6.2359,6.9363,7.5946,7.6125,0.0,0.0,8.606,8.8165,8.9153,8.6359,8.226,7.6993,6.9754,0.0,0.0,5.3144,5.1265,5.0757,5.1887,0.0,0.0,0.0,0.0,6.9782,0.0,0.0,0.0,0.0,0.0,0.0,0.0,0.0,0.0,0.0,0.0,0.0,0.0,9.007,8.9452,8.8693,8.8095,8.7437,8.6728,8.6728,8.6329,8.5701,8.5641,8.4953,8.3688,8.3008,8.2028,8.0764,0.0,0.0,0.0,7.8699,7.8669,7.8609,7.8609,7.825,7.7711,7.7711,7.7317,7.6779,0.0,0.0,0.0,0.0,0.0,0.0,4.1194,4.1403,4.2211,4.4407,4.4825,4.4646,4.3967,4.3688,4.294,4.1523,0.0,0.0,0.0,0.0,0.0,0.0,0.0,0.0,0.0,0.0,0.0,0.0,0.0,0.0,0.0,0.0,0.0,0.0,0.0,0.0,0.0,0.0,0.0,0.0,0.0,0.0,0.0,0.0,0.0,0.0,0.0,0.0,0.0,0.0,0.0,0.0,5.5149,6.0984,0.0,0.0,7.7526,8.217,8.5701,8.8993,9.0399,8.615,8.1631,7.6096,6.8046,0.0,5.5927,5.2336,5.0847,5.0488,5.1415,5.2695,5.494,5.9039,6.0236,0.0,7.1368,0.0,0.0,0.0,0.0,0.0,0.0,0.0,0.0,0.0,0.0,0.0,0.0,9.0399,8.995,8.9333,8.9063,8.8364,8.7317,8.7287,8.6748,8.5701,8.5282,8.4624,8.3658,8.2649,8.1661,8.0764,0.0,0.0,0.0,7.8789,7.8789,7.8789,7.8789,7.8639,7.84,7.84,7.822,7.8011,0.0,0.0,0.0,0.0,0.0,3.984,4.1194,4.1403,4.2032,4.3758,4.4436,4.4526,4.4057,4.3688,4.303,4.2043,4.2211,0.0,0.0,0.0,0.0,0.0,0.0,0.0,0.0,0.0,0.0,0.0,0.0,0.0,0.0,0.0,0.0,0.0,0.0,0.0,0.0,0.0,0.0,0.0,0.0,0.0,0.0,0.0,0.0,0.0,0.0,0.0,0.0,0.0,0.0,0.0,0.0,0.0,0.0,0.0,7.424,7.9866,8.4085,8.8274,9.0369,8.5851,8.0943,7.5108,0.0,0.0,5.5264,5.1894,5.0667,5.0398,5.1086,5.2127,5.3648,5.5833,5.706,5.9937,6.637,6.8585,0.0,0.0,0.0,0.0,0.0,0.0,0.0,0.0,0.0,0.0,0.0,9.0597,9.0249,8.9452,8.9213,8.8544,8.7407,8.7407,8.6838,8.5671,8.5043,8.4346,8.3658,8.238,8.1422,8.0764,0.0,0.0,0.0,7.8789,7.8789,7.8789,7.8789,7.8789,7.8789,7.8789,7.8789,7.8789,0.0,0.0,0.0,0.0,0.0,0.0,4.1194,4.1403,4.1863,4.314,4.3339,4.3339,4.329,4.2192,4.1923,4.317,4.275,0.0,0.0,0.0,0.0,0.0,0.0,0.0,0.0,0.0,0.0,4.63,4.63,0.0,0.0,0.0,0.0,0.0,0.0,0.0,0.0,0.0,0.0,0.0,0.0,0.0,0.0,0.0,0.0,0.0,0.0,0.0,0.0,0.0,0.0,0.0,0.0,0.0,0.0,0.0,6.9662,7.7556,8.0913,8.5192,8.8095,8.5402,8.0285,7.4001,0.0,0.0,5.5264,5.1894,5.0667,5.0398,5.1086,5.1768,5.3084,5.5773,5.7812,6.1164,6.7149,6.9662,0.0,0.0,0.0,0.0,0.0,0.0,0.0,0.0,0.0,0.0,0.0,9.0597,8.9999,8.8723,8.8065,8.7377,8.6728,8.6728,8.6359,8.5671,8.5043,8.4346,8.3658,8.238,8.1422,0.0,0.0,0.0,0.0,7.8789,7.8789,7.8789,7.8789,7.8789,7.8789,7.8789,7.8789,7.8789,0.0,0.0,0.0,0.0,0.0,0.0,0.0,4.0427,4.1025,4.1893,4.2402,4.2851,4.326,4.2162,4.1893,4.319,4.2312,0.0,0.0,0.0,0.0,0.0,0.0,0.0,0.0,0.0,4.5852,4.5633,4.651,4.71,0.0,0.0,0.0,0.0,0.0,0.0,0.0,0.0,0.0,0.0,0.0,0.0,0.0,0.0,0.0,0.0,0.0,0.0,0.0,0.0,0.0,0.0,0.0,0.0,0.0,5.4311,0.0,0.0,7.2684,7.6754,7.9208,7.6066,7.2864,6.8975,6.2989,0.0,5.5264,5.1894,5.1026,5.0936,5.1146,5.1355,5.2695,5.6226,5.7723,5.9727,0.0,0.0,0.0,0.0,0.0,0.0,0.0,0.0,0.0,0.0,0.0,0.0,0.0,8.998,8.9771,8.9423,8.9183,8.8514,8.7377,8.6928,8.612,8.5013,8.4316,8.3696,8.3038,8.217,0.0,0.0,0.0,0.0,0.0,7.8789,7.8789,7.8789,7.8789,7.8789,7.8789,7.8789,7.8789,7.8789,0.0,0.0,0.0,0.0,0.0,0.0,0.0,3.975,4.0187,4.0576,4.1014,4.1594,4.2491,4.1414,4.1265,4.2821,4.1983,0.0,0.0,0.0,0.0,0.0,0.0,0.0,0.0,4.5403,4.6211,4.6052,4.713,4.7668,4.7668,4.7668,4.7549,0.0,0.0,0.0,0.0,0.0,0.0,0.0,0.0,0.0,4.7309,0.0,0.0,0.0,0.0,0.0,0.0,0.0,0.0,0.0,0.0,0.0,0.0,0.0,0.0,0.0,0.0,7.1368,7.3881,7.1787,6.9034,0.0,0.0,0.0,5.464,5.1798,5.1206,5.1206,5.1206,5.1415,5.2546,5.5508,0.0,0.0,0.0,0.0,0.0,0.0,0.0,0.0,0.0,0.0,0.0,0.0,0.0,0.0,0.0,0.0,8.9482,8.8933,8.8933,8.8394,8.7317,8.6659,8.5761,8.4714,8.4017,8.3397,8.2776,8.2387,0.0,0.0,0.0,0.0,0.0,7.8878,7.8789,7.8789,7.8789,7.8789,7.8789,7.8789,7.8789,7.8789,0.0,0.0,0.0,0.0,0.0,0.0,0.0,3.9391,3.9391,3.9391,3.9391,3.987,4.1134,4.0157,4.0187,4.2081,0.0,0.0,0.0,0.0,0.0,0.0,0.0,0.0,0.0,4.5583,4.657,4.716,4.7878,4.8229,4.8229,4.8229,4.7908,4.7309,4.7309,0.0,0.0,0.0,0.0,0.0,0.0,0.0,0.0,0.0,0.0,0.0,0.0,0.0,0.0,0.0,0.0,0.0,0.0,0.0,0.0,0.0,0.0,0.0,0.0,0.0,0.0,0.0,0.0,0.0,0.0,0.0,0.0,5.1594,5.1206,5.1236,5.1325,5.1768,5.2636,0.0,0.0,0.0,0.0,0.0,0.0,0.0,0.0,0.0,0.0,0.0,0.0,0.0,0.0,0.0,0.0,0.0,8.8993,8.7676,8.7646,8.7317,8.6668,8.594,8.5282,8.4624,8.3927,8.3337,8.2806,8.2806,0.0,0.0,0.0,0.0,0.0,7.9058,7.8789,7.8789,7.8789,7.8789,7.8789,7.8789,7.8759,7.8729,0.0,0.0,0.0,0.0,0.0,0.0,0.0,0.0,0.0,0.0,3.9391,3.9511,3.984,3.9601,3.978,0.0,0.0,0.0,0.0,0.0,0.0,0.0,0.0,0.0,0.0,4.5343,4.6121,4.5753,4.695,4.7549,4.7549,4.7549,4.7459,4.7309,4.7309,4.7309,0.0,0.0,0.0,0.0,0.0,0.0,0.0,0.0,0.0,0.0,4.7309,4.7309,0.0,0.0,0.0,0.0,0.0,0.0,0.0,0.0,4.965,5.1355,5.4581,0.0,0.0,0.0,5.7932,5.7034,0.0,0.0,0.0,0.0,0.0,5.1505,5.2546,5.2037,5.2701,0.0,0.0,0.0,0.0,0.0,0.0,0.0,0.0,0.0,0.0,0.0,0.0,0.0,0.0,0.0,0.0,0.0,8.8304,8.6958,8.6968,8.6599,8.594,8.5282,8.4624,8.3927,8.3307,8.2956,8.2806,8.2806,0.0,0.0,0.0,0.0,7.9028,7.8849,7.8789,7.8789,7.8789,7.8789,7.8789,7.8789,7.846,7.81,0.0,0.0,0.0,0.0,0.0,0.0,0.0,0.0,0.0,0.0,0.0,3.9391,3.9391,3.9391,0.0,0.0,0.0,0.0,0.0,0.0,0.0,0.0,0.0,4.3668,4.329,4.4954,4.5813,4.5753,4.71,4.7758,4.7758,4.7758,4.7608,4.7309,4.7309,4.7309,0.0,0.0,0.0,0.0,0.0,0.0,0.0,0.0,0.0,0.0,4.7309,4.7309,0.0,4.7997,4.8626,4.9164,0.0,0.0,0.0,0.0,4.9464,5.0002,5.0996,5.3473,5.5653,5.5209,5.491,5.4551,5.3803,0.0,0.0,0.0,0.0,5.1528,5.2546,0.0,0.0,0.0,0.0,0.0,0.0,0.0,0.0,0.0,0.0,0.0,0.0,0.0,0.0,0.0,0.0,0.0,0.0,0.0,8.8065,8.6758,8.6728,8.6399,8.5701,8.5043,8.4235,8.3277,8.2986,8.2627,8.2357,8.2357,0.0,0.0,0.0,0.0,7.9238,7.8908,7.8789,7.8789,7.8789,7.8789,7.8759,7.846,7.831,7.828,0.0,0.0,0.0,0.0,0.0,0.0,0.0,0.0,0.0,0.0,0.0,0.0,0.0,0.0,0.0,0.0,0.0,0.0,0.0,0.0,0.0,0.0,0.0,4.3349,4.3439,4.4676,4.5633,4.63,4.7758,4.8468,4.8468,4.8468,4.8027,4.7309,4.7309,4.7309,0.0,0.0,0.0,0.0,0.0,0.0,0.0,0.0,0.0,0.0,0.0,0.0,0.0,4.8618,4.9404,5.0009,5.0578,0.0,0.0,0.0,0.0,0.0,5.0278,5.2791,5.5239,5.5414,5.464,5.3892,5.3773,0.0,0.0,0.0,0.0,0.0,0.0,0.0,0.0,0.0,0.0,0.0,0.0,0.0,0.0,0.0,0.0,0.0,0.0,0.0,0.0,0.0,0.0,0.0,0.0,0.0,0.0,8.6868,8.6629,8.621,8.5551,8.4983,8.3995,8.2657,8.2657,8.2297,8.1631,8.1631,0.0,0.0,0.0,0.0,7.9627,7.9028,7.8789,7.8789,7.8669,7.8639,7.8579,7.8011,7.81,7.84,0.0,0.0,0.0,0.0,0.0,0.0,0.0,0.0,0.0,0.0,0.0,0.0,0.0,0.0,0.0,0.0,0.0,0.0,0.0,0.0,0.0,4.329,4.329,4.3579,4.4117,4.4915,4.5633,4.63,4.8229,4.9157,4.9157,4.9157,4.8498,4.7309,4.7309,4.7309,4.7309,0.0,0.0,0.0,0.0,0.0,0.0,0.0,0.0,0.0,0.0,0.0,0.0,4.7549,4.8057,4.8596,4.8716,0.0,0.0,0.0,0.0,0.0,5.1409,5.3503,5.467,5.2516,5.2247,5.2366,5.1774,0.0,0.0,0.0,0.0,0.0,0.0,0.0,0.0,0.0,0.0,0.0,0.0,0.0,0.0,0.0,0.0,0.0,0.0,0.0,0.0,0.0,0.0,0.0,0.0,0.0,0.0,8.7556,8.6449,8.5521,8.4863,8.4773,8.3786,8.1968,8.1968,8.1572,8.0943,8.0943,8.0644,0.0,0.0,7.9477,7.8938,7.8819,7.8789,7.8729,7.819,7.7951,7.7951,7.7861,7.7532,7.7078,0.0,0.0,0.0,0.0,0.0,0.0,0.0,0.0,0.0,0.0,0.0,0.0,0.0,0.0,0.0,0.0,0.0,0.0,0.0,0.0,0.0,4.3818,4.3848,4.3997,4.4296,4.5663,4.6711,4.7369,4.9344,5.0331,5.0301,4.9606,4.8768,4.7818,4.7459,4.7309,4.7309,4.7309,0.0,0.0,0.0,0.0,0.0,0.0,0.0,0.0,0.0,0.0,0.0,0.0,4.8588,4.8887,4.9224,0.0,0.0,0.0,0.0,0.0,5.0667,5.2043,5.2935,5.2396,5.3324,5.4007,5.2606,0.0,0.0,0.0,0.0,0.0,0.0,0.0,0.0,0.0,0.0,0.0,0.0,0.0,0.0,0.0,0.0,0.0,0.0,0.0,0.0,0.0,0.0,0.0,0.0,0.0,0.0,0.0,8.621,8.5372,8.4714,8.4025,8.2858,8.1242,8.1242,8.0913,8.0285,8.0285,8.0105,7.9806,0.0,7.9088,7.8759,7.84,7.825,7.819,7.7532,7.7257,7.7257,7.7257,7.6838,7.63,0.0,0.0,0.0,0.0,0.0,0.0,0.0,0.0,0.0,0.0,0.0,0.0,0.0,0.0,0.0,0.0,0.0,0.0,0.0,0.0,4.3549,4.4027,4.4377,4.4676,4.5005,4.6681,4.7997,4.8985,5.096,5.1744,5.1409,5.0092,4.9007,4.8027,4.7519,4.7309,4.7309,4.7309,4.7309,0.0,0.0,0.0,0.0,0.0,0.0,0.0,0.0,0.0,0.0,0.0,0.0,0.0,0.0,0.0,0.0,4.98,4.9314,4.8858,5.0278,5.1146,5.1917,5.2959,0.0,5.5174,5.4875,0.0,0.0,0.0,0.0,0.0,0.0,0.0,0.0,0.0,0.0,0.0,0.0,0.0,0.0,0.0,0.0,0.0,0.0,0.0,0.0,0.0,0.0,0.0,0.0,0.0,0.0,0.0,8.5881,8.5162,8.4465,8.3038,8.1848,8.0794,8.0644,8.0225,7.9567,7.9567,7.9567,7.9537,7.9028,7.8699,7.8519,7.8011,7.7711,7.7502,7.6838,7.6569,7.6569,7.6569,7.6305,7.5916,0.0,0.0,0.0,0.0,0.0,0.0,0.0,0.0,0.0,0.0,0.0,0.0,0.0,0.0,0.0,0.0,0.0,0.0,0.0,0.0,4.3319,4.3349,4.4556,4.5813,4.707,4.7848,4.9134,5.0996,5.3,5.3354,5.2097,5.0757,4.9142,4.7369,4.7339,4.7309,4.7309,4.7309,4.7309,4.7309,0.0,0.0,0.0,0.0,0.0,0.0,0.0,0.0,0.0,0.0,0.0,0.0,0.0,0.0,4.8498,4.9157,4.9307,4.9636,5.1528,5.2546,5.3079,5.3169,5.2845,0.0,5.8527,0.0,0.0,0.0,0.0,0.0,0.0,0.0,0.0,0.0,0.0,0.0,0.0,0.0,0.0,0.0,0.0,0.0,0.0,0.0,0.0,0.0,0.0,0.0,0.0,0.0,0.0,0.0,0.0,8.4474,8.3777,8.1901,8.0883,8.0794,8.0195,7.9537,7.8849,7.8849,7.8849,7.8849,7.8819,7.846,7.7861,7.7831,7.7407,7.6808,7.6215,7.5976,7.5976,7.5976,7.5946,7.5916,0.0,0.0,0.0,0.0,0.0,0.0,0.0,0.0,0.0,0.0,0.0,0.0,0.0,0.0,0.0,0.0,0.0,0.0,0.0,4.297,4.3489,4.3908,4.4825,4.5933,4.7279,4.8723,5.0428,5.2426,5.3623,5.3743,5.2779,5.0631,4.9015,4.7908,4.7489,4.7309,4.7309,4.7309,4.7309,4.7309,4.7309,0.0,0.0,0.0,0.0,0.0,0.0,0.0,0.0,0.0,4.7788,4.7938,4.8027,4.8468,4.8977,4.9239,4.9007,4.8917,5.0085,5.1462,5.2785,5.3593,0.0,0.0,0.0,0.0,0.0,0.0,0.0,0.0,0.0,0.0,0.0,0.0,0.0,0.0,0.0,0.0,0.0,0.0,0.0,0.0,0.0,0.0,0.0,0.0,0.0,0.0,0.0,0.0,0.0,0.0,0.0,8.3786,8.3128,8.1572,8.0584,8.0195,7.9507,7.9058,7.8789,7.8789,7.8579,7.819,7.819,7.7801,7.7137,7.6784,7.6485,7.6185,7.5527,7.5258,7.5258,7.5258,7.5258,7.5258,0.0,0.0,0.0,0.0,0.0,0.0,0.0,0.0,0.0,0.0,0.0,0.0,0.0,0.0,0.0,0.0,0.0,0.0,4.2051,4.2851,4.3519,4.3967,4.4646,4.5603,4.698,4.8903,5.099,5.3198,5.3862,5.3653,5.2516,5.0324,4.8947,4.8289,4.7818,4.7608,4.7608,4.7608,4.7489,4.7309,4.7309,4.7309,0.0,0.0,0.0,0.0,0.0,0.0,0.0,0.0,4.7788,4.7967,4.7938,4.8558,4.9277,4.9277,4.8977,4.8708,4.9157,5.0265,5.1648,0.0,0.0,0.0,0.0,0.0,0.0,0.0,0.0,0.0,0.0,0.0,0.0,0.0,0.0,0.0,0.0,0.0,0.0,0.0,0.0,0.0,0.0,0.0,0.0,0.0,0.0,0.0,0.0,0.0,0.0,0.0,0.0,8.3128,8.2507,8.1153,8.0255,7.977,7.9118,7.8789,7.8789,7.8579,7.822,7.7801,7.7592,7.7143,7.6479,7.6066,7.5766,7.5527,7.5083,7.4903,7.4903,7.4903,7.4903,7.4903,0.0,0.0,0.0,0.0,0.0,0.0,0.0,0.0,0.0,0.0,0.0,0.0,0.0,0.0,0.0,0.0,0.0,0.0,4.1403,4.2592,4.329,4.329,4.3938,4.4925,4.6271,4.8289,5.0564,5.3198,5.3862,5.315,5.1146,4.9875,4.8947,4.8319,4.8319,4.8319,4.8319,4.8319,4.7908,4.7309,4.7309,4.7309,0.0,0.0,0.0,0.0,0.0,0.0,0.0,0.0,4.7848,4.7549,4.8858,4.9277,4.9329,4.9277,4.9277,4.9307,4.9277,4.9307,4.9786,0.0,0.0,0.0,0.0,0.0,0.0,0.0,0.0,0.0,0.0,0.0,0.0,0.0,0.0,0.0,0.0,0.0,0.0,0.0,0.0,0.0,0.0,0.0,0.0,0.0,0.0,0.0,0.0,0.0,0.0,0.0,0.0,0.0,8.1751,8.0428,7.9733,7.9733,7.9082,7.8789,7.8759,7.81,7.7801,7.7771,7.7078,7.645,7.5886,7.5886,7.5497,7.4903,7.4903,7.4903,7.4903,7.4903,7.4903,7.4903,0.0,0.0,0.0,0.0,0.0,0.0,0.0,0.0,0.0,0.0,0.0,0.0,0.0,0.0,0.0,0.0,0.0,0.0,4.1403,4.2592,4.329,4.329,4.3938,4.4706,4.5574,4.8019,5.0354,5.2486,5.2695,5.1798,4.9845,4.9007,4.8498,4.8319,4.8798,4.8738,4.8319,4.8319,4.7908,4.7339,4.7818,4.7728,4.7369,0.0,0.0,0.0,0.0,0.0,0.0,0.0,0.0,0.0,4.8468,4.9523,5.0451,4.9546,4.9583,4.9853,4.9426,5.0295,0.0,0.0,0.0,0.0,0.0,0.0,0.0,0.0,0.0,0.0,0.0,0.0,0.0,0.0,0.0,0.0,0.0,0.0,0.0,0.0,0.0,0.0,0.0,0.0,0.0,0.0,0.0,0.0,0.0,0.0,0.0,0.0,0.0,0.0,7.8616,7.7068,7.6061,7.5564,7.6089,7.7202,7.8759,7.81,7.7562,7.7048,7.6455,7.5796,7.5198,7.5198,7.5083,7.4903,7.4903,7.4903,7.4903,7.4903,7.4903,7.4903,0.0,0.0,0.0,0.0,0.0,0.0,0.0,0.0,0.0,0.0,0.0,0.0,0.0,0.0,0.0,0.0,0.0,0.0,0.0,4.2592,4.329,4.329,4.3938,4.4855,4.6052,4.8199,4.9726,5.0631,5.1169,5.0541,4.8887,4.9015,4.9075,4.9105,5.0324,5.0205,4.9075,4.9344,4.8775,4.7758,4.8438,4.8468,4.8139,0.0,0.0,0.0,0.0,0.0,0.0,0.0,0.0,0.0,4.8229,4.9105,4.9942,4.9456,4.9576,4.9883,5.0002,5.1312,0.0,0.0,0.0,0.0,0.0,0.0,0.0,0.0,0.0,0.0,0.0,0.0,0.0,0.0,0.0,0.0,0.0,0.0,0.0,0.0,0.0,0.0,0.0,0.0,0.0,0.0,0.0,0.0,0.0,0.0,0.0,0.0,0.0,0.0,7.5995,7.4709,7.3894,7.349,7.3861,7.4893,7.6504,7.6878,7.6844,7.6425,7.5766,7.5258,7.4903,7.4903,7.4903,7.4903,7.4903,7.4903,7.4903,7.4903,7.4903,7.4903,0.0,0.0,0.0,0.0,0.0,0.0,0.0,0.0,0.0,0.0,0.0,0.0,0.0,0.0,0.0,0.0,0.0,0.0,0.0,0.0,4.326,4.322,4.3908,4.5194,4.7189,4.8468,4.8828,4.8229,4.9471,4.9471,4.8259,4.965,5.0285,5.0398,5.2336,5.2127,5.0338,5.0877,5.0032,4.8379,4.9097,4.9307,4.9239,4.9299,0.0,0.0,0.0,0.0,0.0,0.0,0.0,0.0,4.8087,4.8349,4.8498,4.9037,4.9209,4.95,5.0766,0.0,0.0,5.6908,0.0,0.0,0.0,0.0,0.0,0.0,0.0,0.0,0.0,0.0,0.0,0.0,0.0,0.0,0.0,0.0,0.0,0.0,0.0,0.0,0.0,0.0,0.0,0.0,0.0,0.0,0.0,0.0,0.0,0.0,7.4726,7.4137,7.3588,7.2844,7.2459,0.0,7.1996,7.2073,7.2654,7.4596,7.5508,7.5558,7.5104,7.4903,7.4903,7.4903,7.4903,7.4903,7.4903,7.4903,7.4903,7.4903,7.4903,7.4903,0.0,0.0,0.0,0.0,0.0,0.0,0.0,0.0,0.0,0.0,0.0,0.0,0.0,0.0,0.0,0.0,0.0,0.0,0.0,0.0,4.31,4.2601,4.3688,4.4984,4.648,4.7309,4.7668,4.7519,4.8835,4.8805,4.7578,4.989,5.0996,5.1056,5.2546,5.2366,5.0966,5.0578,4.9591,4.8386,4.9553,4.9404,4.8588,4.9097,4.8558,0.0,0.0,0.0,0.0,0.0,0.0,0.0,4.8259,4.8648,4.9007,4.8618,4.862,4.8973,5.0115,5.1055,0.0,0.0,6.1221,0.0,0.0,0.0,0.0,0.0,0.0,0.0,0.0,0.0,0.0,0.0,0.0,0.0,0.0,0.0,0.0,0.0,0.0,0.0,0.0,0.0,0.0,0.0,0.0,0.0,0.0,0.0,0.0,7.1639,7.1475,7.1119,7.0556,6.9105,6.8359,0.0,6.9035,6.9411,6.9625,7.1325,7.2532,7.328,7.4417,7.4903,7.4903,7.4903,7.4903,7.4903,7.4903,7.4903,7.4903,7.4903,7.4903,7.4903,0.0,0.0,0.0,0.0,0.0,0.0,0.0,0.0,0.0,0.0,0.0,0.0,0.0,0.0,0.0,0.0,0.0,0.0,0.0,0.0,4.3459,4.3768,4.4407,4.5424,4.6749,4.713,4.7309,4.7309,4.7997,4.8169,4.7818,4.98,5.0877,5.1265,5.2606,5.2276,5.0697,5.0345,4.965,4.8858,4.98,4.98,4.9284,4.9942,4.9194,4.7788,0.0,0.0,0.0,0.0,0.0,0.0,0.0,0.0,4.8738,4.8409,4.8595,4.9193,5.0382,0.0,0.0,5.9886,0.0,6.6652,0.0,0.0,0.0,0.0,0.0,0.0,0.0,0.0,0.0,0.0,0.0,0.0,0.0,0.0,0.0,0.0,0.0,0.0,0.0,0.0,0.0,0.0,0.0,0.0,0.0,6.9851,6.98,6.8893,6.8866,6.8599,6.8013,6.7161,6.6704,6.6744,6.6965,6.7067,6.7145,6.9526,7.0888,7.1379,7.2236,7.3046,7.3772,7.3772,7.4189,7.4903,7.4903,7.4903,7.4903,7.4903,7.4903,7.4903,0.0,0.0,0.0,0.0,0.0,0.0,0.0,0.0,0.0,0.0,0.0,0.0,0.0,0.0,0.0,0.0,0.0,0.0,0.0,0.0,0.0,4.5065,4.5005,4.5633,4.71,4.713,4.7189,4.7309,4.7309,4.7758,0.0,4.9949,5.0847,5.1415,5.2636,5.2157,5.0345,5.0159,4.9703,4.9187,4.9823,4.9979,4.992,5.0488,4.9643,0.0,0.0,0.0,0.0,0.0,0.0,0.0,0.0,0.0,4.8319,4.8319,4.8634,4.9258,5.051,5.3796,5.8109,6.3199,6.5708,0.0,6.8387,0.0,0.0,0.0,0.0,0.0,0.0,0.0,0.0,0.0,0.0,0.0,0.0,0.0,0.0,0.0,0.0,0.0,0.0,0.0,0.0,0.0,0.0,0.0,6.8675,6.8141,6.7566,6.6965,6.6939,6.6678,6.6129,6.6129,6.6129,6.6129,6.5632,6.5371,6.5489,6.8111,6.9439,6.97,6.9997,7.0842,7.2093,7.2093,7.287,7.405,7.405,7.405,7.405,7.405,7.405,7.405,0.0,0.0,0.0,0.0,0.0,0.0,0.0,0.0,0.0,0.0,0.0,0.0,0.0,0.0,0.0,0.0,0.0,0.0,0.0,0.0,0.0,4.4356,4.3878,4.4476,4.639,4.642,4.6719,4.7309,4.7309,0.0,0.0,0.0,0.0,5.2097,5.2869,5.2396,5.0996,4.9883,4.9037,4.8498,4.9157,4.9067,4.8566,4.8656,0.0,0.0,0.0,0.0,0.0,0.0,0.0,0.0,0.0,0.0,0.0,4.8319,4.8079,4.7983,4.8757,0.0,5.7818,0.0,6.473,6.6704,0.0,0.0,0.0,0.0,0.0,0.0,0.0,0.0,0.0,0.0,0.0,0.0,0.0,0.0,0.0,0.0,0.0,0.0,0.0,0.0,0.0,0.0,0.0,0.0,6.8089,6.754,6.6965,6.6416,6.639,6.6103,6.5501,6.5501,6.5501,6.5501,6.5423,6.5371,6.541,6.5818,6.6808,6.8203,6.9514,7.0218,7.0402,7.0402,7.0549,7.0732,7.0732,7.0732,7.0732,7.0732,7.0732,7.0732,0.0,0.0,0.0,0.0,0.0,0.0,0.0,0.0,0.0,0.0,0.0,0.0,0.0,0.0,0.0,0.0,0.0,0.0,0.0,0.0,0.0,4.4267,4.4027,4.4625,4.6271,4.63,4.6629,4.7309,0.0,0.0,0.0,5.2127,5.2755,0.0,0.0,0.0,5.0578,4.9284,4.8588,4.8349,4.8618,4.8558,4.8349,0.0,0.0,0.0,0.0,0.0,0.0,0.0,0.0,0.0,0.0,0.0,0.0,0.0,4.8011,4.8134,5.0187,5.3017,5.6484,0.0,6.3829,6.5684,6.7148,0.0,0.0,0.0,0.0,0.0,0.0,0.0,0.0,0.0,0.0,0.0,0.0,0.0,0.0,0.0,0.0,0.0,0.0,0.0,0.0,0.0,0.0,6.707,6.7044,6.6782,6.6364,6.5789,6.5475,6.5162,6.49,6.49,6.5083,6.5371,6.5371,6.5371,6.5371,6.5371,6.5805,6.6484,6.7168,6.7985,6.8792,6.8792,6.9318,7.0107,7.0107,7.0107,7.0107,7.0107,7.0107,7.0107,0.0,0.0,0.0,0.0,0.0,0.0,0.0,0.0,0.0,0.0,0.0,0.0,0.0,0.0,0.0,0.0,0.0,0.0,0.0,0.0,0.0,4.4027,4.4207,4.4835,4.6001,4.6211,4.6629,4.7309,0.0,0.0,5.1498,5.2636,5.3648,0.0,5.3054,0.0,0.0,0.0,0.0,0.0,4.8498,4.8319,0.0,0.0,0.0,0.0,0.0,0.0,0.0,0.0,0.0,0.0,0.0,0.0,0.0,0.0,0.0,4.8024,5.1097,5.2631,5.4471,5.9255,6.2182,6.4325,0.0,0.0,0.0,0.0,0.0,0.0,0.0,0.0,0.0,0.0,0.0,0.0,0.0,0.0,0.0,0.0,0.0,0.0,0.0,0.0,0.0,0.0,0.0,6.6469,6.6076,6.592,6.5554,6.4979,6.4534,6.4339,6.4495,6.4495,6.4704,6.5162,6.5162,6.5162,6.5188,6.5318,6.5371,6.5371,6.5371,6.6054,6.7195,6.7195,6.7871,6.8905,6.8905,6.8905,6.8905,6.8905,6.8905,6.8905,0.0,0.0,0.0,0.0,0.0,0.0,0.0,0.0,0.0,0.0,0.0,0.0,0.0,0.0,3.8661,3.9331,0.0,0.0,0.0,0.0,0.0,4.3349,4.3967,0.0,4.5334,4.5971,4.6629,0.0,0.0,0.0,5.2157,5.2845,5.485,5.7786,5.6521,5.4875,5.2929,0.0,0.0,0.0,0.0,0.0,0.0,0.0,0.0,0.0,0.0,0.0,0.0,0.0,0.0,0.0,0.0,0.0,0.0,0.0,0.0,0.0,4.9861,5.0814,5.1805,5.5334,5.9202,6.2548,0.0,0.0,0.0,0.0,0.0,0.0,0.0,0.0,0.0,0.0,0.0,0.0,0.0,0.0,0.0,0.0,0.0,0.0,0.0,0.0,0.0,0.0,0.0,6.5475,6.5423,6.4926,6.4351,6.3815,6.3789,6.3985,6.4495,6.4495,6.4521,6.4548,6.4548,6.4548,6.4548,6.5136,6.5371,6.5371,6.5371,6.545,6.5529,6.5529,6.5569,6.5647,6.5647,6.5647,6.5647,6.5647,6.5647,6.5647,0.0,0.0,0.0,0.0,0.0,0.0,0.0,0.0,0.0,0.0,0.0,0.0,0.0,3.8631,3.932,3.9978,4.1283,0.0,0.0,0.0,0.0,4.3938,4.4177,4.4805,4.5912,4.6181,4.6629,0.0,0.0,4.8775,5.1565,5.2665,5.4281,5.6196,5.5299,5.4521,5.3653,5.081,0.0,0.0,0.0,0.0,0.0,0.0,0.0,0.0,0.0,0.0,0.0,0.0,0.0,0.0,0.0,0.0,0.0,0.0,0.0,4.6001,4.754,4.8254,4.9632,5.4262,5.732,5.9892,6.2339,6.4351,0.0,0.0,0.0,0.0,0.0,0.0,0.0,0.0,0.0,0.0,0.0,0.0,0.0,0.0,0.0,0.0,0.0,0.0,0.0,0.0,0.0,0.0,6.4338,6.409,6.3881,6.3737,6.3306,6.3227,6.3398,6.3071,6.3254,6.3985,6.3985,6.3985,6.4012,6.4587,6.4822,6.4822,6.4822,6.4822,6.4874,6.524,6.5162,6.4874,6.524,6.5371,6.5371,6.5371,6.5371,6.5371,0.0,0.0,0.0,0.0,0.0,0.0,0.0,0.0,0.0,0.0,0.0,0.0,0.0,0.0,3.9529,4.0636,4.1553,4.2421,4.325,4.3499,4.3848,4.4267,4.4715,4.5403,4.6271,4.63,0.0,0.0,0.0,0.0,0.0,5.1917,5.3354,5.482,5.3922,5.4132,0.0,0.0,0.0,5.0863,0.0,0.0,4.9726,0.0,0.0,0.0,0.0,0.0,0.0,0.0,0.0,0.0,0.0,0.0,0.0,0.0,0.0,0.0,4.6033,0.0,0.0,0.0,5.4811,5.6858,6.0337,0.0,0.0,0.0,0.0,0.0,0.0,0.0,0.0,0.0,0.0,0.0,0.0,0.0,0.0,0.0,0.0,0.0,0.0,0.0,0.0,0.0,0.0,0.0,6.3161,6.3135,6.2914,6.2522,6.2339,6.2223,6.2223,6.1868,6.2193,6.3135,6.3135,6.3201,6.341,6.3985,6.4247,6.4247,6.4247,6.4312,6.4495,6.4743,6.4691,6.4521,6.4953,6.5214,6.5371,6.5371,6.5371,6.5371,0.0,0.0,0.0,0.0,0.0,0.0,0.0,0.0,0.0,0.0,0.0,0.0,0.0,0.0,0.0,4.1313,4.1493,4.2013,4.325,4.3938,4.4326,4.4356,0.0,0.0,0.0,0.0,0.0,0.0,0.0,4.7339,0.0,0.0,5.2187,5.4012,5.2725,5.3952,5.6795,0.0,5.4132,5.3952,0.0,5.0255,5.0538,0.0,0.0,0.0,5.2181,5.0773,0.0,0.0,0.0,0.0,0.0,0.0,0.0,0.0,0.0,0.0,0.0,0.0,0.0,0.0,0.0,0.0,5.8166,0.0,5.9019,0.0,0.0,0.0,0.0,0.0,0.0,0.0,0.0,0.0,0.0,0.0,0.0,0.0,0.0,0.0,0.0,0.0,0.0,0.0,0.0,6.3135,6.201,6.1958,6.1398,6.0211,6.0734,6.1084,6.1047,6.1084,6.1346,6.1958,6.1958,6.2208,6.2719,6.3358,6.3658,6.3658,6.3684,6.3959,6.4391,6.3907,6.4012,6.4469,6.4495,6.4874,6.5371,6.5371,6.5371,6.5371,0.0,0.0,0.0,0.0,0.0,0.0,0.0,0.0,0.0,0.0,0.0,0.0,0.0,0.0,4.2352,4.3419,4.3509,4.3658,4.3997,4.4207,4.4715,4.5702,4.6091,4.654,4.6988,0.0,0.0,4.7309,4.713,4.7309,4.7878,4.8716,0.0,0.0,5.1229,5.1977,5.2785,5.1744,0.0,0.0,5.1594,5.1267,0.0,0.0,0.0,0.0,0.0,5.1508,0.0,0.0,4.9902,4.8599,0.0,0.0,0.0,0.0,0.0,0.0,4.4916,0.0,0.0,0.0,0.0,0.0,0.0,0.0,0.0,0.0,0.0,0.0,0.0,0.0,0.0,0.0,0.0,0.0,0.0,0.0,0.0,0.0,0.0,0.0,0.0,0.0,0.0,0.0,6.2051,6.1502,6.0744,6.0718,6.0561,6.0185,5.9986,6.0065,6.0457,6.0065,6.0143,6.0718,6.0718,6.0797,6.0943,6.1999,6.2481,6.2507,6.2888,6.3149,6.3294,6.3567,6.3776,6.3959,6.4339,6.4874,6.5371,6.5371,6.5371,6.5371,0.0,0.0,0.0,0.0,0.0,0.0,0.0,0.0,0.0,0.0,0.0,0.0,0.0,0.0,4.3299,4.4207,4.4057,4.4117,4.4676,4.4984,4.5493,4.6271,4.657,4.6899,4.7309,4.704,4.7018,4.7309,4.7309,4.7309,4.7339,4.8289,0.0,0.0,0.0,0.0,0.0,0.0,0.0,0.0,5.184,0.0,0.0,5.2699,5.2507,0.0,0.0,0.0,5.2257,5.1484,5.0121,0.0,0.0,0.0,0.0,0.0,0.0,0.0,0.0,0.0,0.0,0.0,0.0,0.0,5.1282,5.1753,5.2511,0.0,0.0,0.0,0.0,0.0,0.0,0.0,0.0,0.0,0.0,0.0,0.0,0.0,0.0,0.0,0.0,0.0,0.0,6.1241,6.0927,6.0483,5.9908,5.9647,5.948,5.948,5.9176,5.9176,5.9516,5.9176,5.9307,5.9856,5.9856,6.0117,6.0577,6.1032,6.1372,6.1633,6.1973,6.2066,6.2156,6.2731,6.3097,6.3358,6.3698,6.4325,6.5031,6.5031,6.5188,6.5371,0.0,0.0,0.0,0.0,0.0,0.0,0.0,0.0,0.0,0.0,0.0,0.0,0.0,0.0,0.0,0.0,4.3997,4.4117,4.5214,4.5933,4.633,4.642,4.6958,4.7309,4.7309,4.6719,4.6719,4.7429,4.7429,0.0,0.0,0.0,0.0,0.0,0.0,0.0,0.0,0.0,0.0,5.1072,5.1878,5.2292,0.0,0.0,5.5049,0.0,5.4847,5.4109,5.25,5.0714,4.9059,0.0,0.0,0.0,0.0,0.0,4.4747,0.0,0.0,0.0,0.0,0.0,0.0,0.0,5.0237,5.0342,5.0524,0.0,0.0,0.0,0.0,0.0,0.0,0.0,0.0,0.0,0.0,0.0,0.0,0.0,0.0,0.0,0.0,6.0237,6.0274,6.0143,6.0028,5.9803,5.9343,5.8784,5.8523,5.8523,5.8523,5.8523,5.8523,5.8523,5.8758,5.9317,5.9317,5.9803,6.0823,6.0352,6.0405,6.0927,6.0969,6.1021,6.1163,6.1659,6.226,6.2797,6.2797,6.3477,6.4495,6.4495,6.49,6.5371,0.0,0.0,0.0,0.0,0.0,0.0,0.0,0.0,0.0,0.0,0.0,0.0,0.0,0.0,0.0,0.0,4.5792,4.5583,4.5304,4.5933,4.654,4.7078,4.7249,4.7309,4.7309,4.7189,4.7429,4.8087,0.0,0.0,0.0,0.0,0.0,0.0,0.0,0.0,0.0,0.0,0.0,4.9882,5.1519,0.0,5.3894,5.3837,5.3728,5.3684,5.4717,5.4871,5.4412,0.0,5.1805,5.0315,0.0,0.0,0.0,0.0,0.0,0.0,0.0,0.0,0.0,0.0,0.0,0.0,4.7547,4.8044,4.9348,0.0,0.0,0.0,0.0,0.0,0.0,0.0,0.0,0.0,0.0,0.0,0.0,0.0,0.0,0.0,0.0,6.0629,6.0561,5.963,5.9098,5.881,5.8679,5.8575,5.8523,5.8523,5.8523,5.8523,5.8523,5.8523,5.8575,5.8679,5.8679,5.881,5.9045,5.9385,5.963,5.9761,6.0195,6.0629,6.1099,6.1241,6.1894,6.2797,6.2797,6.3477,6.4495,6.4495,6.49,6.5371,0.0,0.0,0.0,0.0,0.0,0.0,0.0,0.0,0.0,0.0,0.0,0.0,0.0,0.0,0.0,0.0,0.0,0.0,0.0,4.6621,4.6734,4.6543,4.655,4.6698,4.7051,4.6727,4.6874,4.7546,0.0,0.0,0.0,0.0,0.0,0.0,0.0,0.0,0.0,0.0,4.7452,4.7995,5.1333,0.0,5.4219,5.4503,5.478,5.5177,5.5752,5.6144,5.6013,5.3713,5.2929,0.0,0.0,4.7545,4.7521,0.0,4.582,4.5976,0.0,0.0,0.0,4.6761,0.0,0.0,0.0,4.7127,4.7649,5.0263,4.9871,0.0,0.0,0.0,0.0,0.0,0.0,0.0,0.0,0.0,0.0,0.0,0.0,0.0,0.0,5.8601,5.8732,5.8131,5.834,5.8261,5.7686,5.8209,5.8392,5.8104,5.8366,5.8523,5.8523,5.8523,5.8523,5.8523,5.8523,5.8653,5.8941,5.8941,5.9133,5.9421,5.9673,5.996,6.03,6.0875,6.1413,6.1961,6.2287,6.3097,6.4116,6.4116,6.4639,6.5371,0.0,0.0,0.0,0.0,0.0,0.0,0.0,0.0,0.0,4.3947,0.0,0.0,0.0,0.0,0.0,0.0,0.0,0.0,0.0,0.0,0.0,4.5756,4.5508,4.5625,4.6241,4.5654,4.5746,4.6523,4.6983,0.0,0.0,0.0,0.0,0.0,0.0,0.0,0.0,0.0,0.0,4.6901,0.0,5.2932,5.3439,5.4978,5.5883,5.6379,5.6824,5.7312,5.7251,5.4046,0.0,5.3511,4.9188,4.8564,0.0,0.0,0.0,0.0,0.0,0.0,0.0,0.0,0.0,4.7153,0.0,0.0,0.0,4.8306,0.0,0.0,0.0,0.0,0.0,0.0,0.0,0.0,0.0,0.0,0.0,0.0,0.0,0.0,0.0,5.6092,5.6353,5.6458,5.7346,5.7503,5.6693,5.7634,5.8026,5.7695,5.8104,5.8392,5.8523,5.8523,5.8523,5.8523,5.8523,5.8758,5.9212,5.8732,5.8758,5.9238,5.9238,5.929,5.9473,6.0378,6.0927,6.1189,6.1738,6.2717,6.371,6.371,6.4404,6.5371,3.7165,3.8854,0.0,0.0,0.0,0.0,0.0,0.0,4.3248,4.5627,4.6582,0.0,0.0,0.0,0.0,0.0,0.0,0.0,4.723,0.0,0.0,4.5389,4.4349,4.3909,4.4228,4.3909,4.4319,4.5487,4.5762,4.6275,0.0,0.0,0.0,0.0,4.6749,0.0,0.0,0.0,4.6948,0.0,5.031,5.0714,0.0,5.335,5.4445,5.4759,5.6858,5.7711,5.7568,0.0,5.4656,5.3878,0.0,5.0054,0.0,0.0,0.0,0.0,0.0,0.0,0.0,0.0,4.961,0.0,0.0,0.0,4.8329,4.7077,0.0,0.0,0.0,0.0,0.0,0.0,0.0,0.0,0.0,0.0,0.0,0.0,0.0,0.0,0.0,5.4759,5.4733,5.5255,5.5412,5.5647,5.5987,5.6641,5.7216,5.7695,5.7747,5.8035,5.8497,5.8523,5.8523,5.8523,5.8523,5.8549,5.8601,5.8549,5.8549,5.8601,5.8601,5.8915,5.9421,5.9552,6.0169,6.1189,6.1738,6.2717,6.371,6.371,6.4404,6.5371,3.7143,0.0,0.0,0.0,0.0,0.0,0.0,0.0,4.4903,4.6499,0.0,0.0,0.0,0.0,0.0,0.0,0.0,0.0,0.0,0.0,0.0,0.0,0.0,0.0,0.0,4.337,4.3512,4.4426,4.4503,4.458,4.4732,0.0,0.0,0.0,4.4302,0.0,4.4809,0.0,0.0,0.0,0.0,0.0,0.0,5.3235,5.5486,5.6019,5.6981,5.7643,5.7682,0.0,5.4668,0.0,0.0,0.0,0.0,0.0,0.0,0.0,0.0,0.0,0.0,0.0,0.0,0.0,0.0,0.0,4.6552,0.0,0.0,0.0,0.0,0.0,0.0,0.0,0.0,0.0,0.0,0.0,0.0,0.0,0.0,0.0,0.0,0.0,0.0,0.0,5.4524,5.4916,5.4471,5.5621,5.6405,5.6641,5.7015,5.7425,5.8035,5.8061,5.8183,5.8523,5.8523,5.8523,5.8523,5.8523,5.8706,5.8993,5.8653,5.8836,5.9421,5.9725,5.996,6.0222,6.1513,6.2469,6.3227,6.3541,6.4195,6.4926,3.691,0.0,0.0,0.0,0.0,0.0,0.0,0.0,0.0,0.0,0.0,0.0,4.9063,4.9535,0.0,0.0,0.0,4.8072,0.0,0.0,4.4832,0.0,0.0,0.0,0.0,0.0,4.2471,4.31,4.3152,4.3126,4.2989,0.0,0.0,0.0,0.0,4.3694,4.4361,0.0,0.0,4.6186,4.7991,4.8657,4.9043,5.3445,5.5874,5.6958,5.7113,5.7456,5.744,5.5148,5.4808,0.0,5.2613,0.0,0.0,0.0,0.0,0.0,4.9824,0.0,0.0,0.0,0.0,0.0,0.0,0.0,0.0,0.0,0.0,0.0,0.0,0.0,0.0,0.0,0.0,0.0,0.0,0.0,0.0,0.0,0.0,0.0,0.0,0.0,0.0,5.1831,5.2825,5.3217,5.272,5.4131,5.5203,5.5674,5.6405,5.7085,5.7695,5.7852,5.8104,5.8523,5.8523,5.8523,5.8523,5.8523,5.8732,5.9133,5.8706,5.8836,5.9421,5.9647,5.9803,5.9997,6.1058,6.1947,6.2652,6.3227,6.3907,6.4548,3.5732,3.7515,0.0,0.0,0.0,0.0,0.0,0.0,0.0,0.0,0.0,0.0,0.0,0.0,0.0,0.0,0.0,4.8344,4.9334,0.0,4.3708,0.0,0.0,0.0,0.0,0.0,0.0,4.1383,4.1677,4.226,4.3017,4.36,0.0,0.0,0.0,4.5892,4.5562,4.7197,4.8861,5.0454,5.1037,5.2879,5.5166,0.0,5.4586,5.662,5.7185,0.0,0.0,5.5845,5.5357,0.0,0.0,0.0,0.0,0.0,0.0,0.0,0.0,0.0,0.0,0.0,0.0,0.0,0.0,0.0,4.7937,0.0,0.0,0.0,0.0,0.0,0.0,0.0,0.0,0.0,0.0,0.0,0.0,0.0,0.0,0.0,0.0,0.0,0.0,4.9976,4.9531,4.974,5.0812,5.1962,5.3373,5.5072,5.6223,5.7085,5.7695,5.8209,5.8497,5.8523,5.8523,5.8523,5.8523,5.8523,5.8523,5.8549,5.8523,5.8836,5.9369,5.8784,5.9568,6.0969,6.0446,6.098,6.2115,6.2652,6.3529,6.4495,0.0,0.0,0.0,0.0,0.0,0.0,0.0,4.2059,0.0,0.0,0.0,0.0,0.0,0.0,5.4536,0.0,0.0,5.2396,5.1296,4.8983,0.0,0.0,0.0,4.422,0.0,0.0,0.0,0.0,0.0,0.0,4.3014,4.3209,4.3063,0.0,0.0,4.4731,0.0,0.0,0.0,0.0,0.0,5.2911,5.491,0.0,0.0,5.6143,5.6321,5.6399,0.0,5.6092,5.5593,5.5031,5.4723,5.3911,5.3051,5.2791,5.2764,0.0,0.0,0.0,5.3844,5.0597,0.0,0.0,0.0,0.0,0.0,0.0,0.0,0.0,0.0,0.0,0.0,0.0,0.0,0.0,0.0,0.0,0.0,0.0,0.0,0.0,0.0,0.0,0.0,4.8747,4.7914,4.807,4.9584,5.076,5.2171,5.3922,5.4707,5.5543,5.6484,5.6693,5.6981,5.7399,5.7765,5.7983,5.7983,5.834,5.8732,5.9045,5.8679,5.8836,5.9421,5.9568,5.9777,6.0065,6.1006,6.1398,6.1529,6.2432,6.3032,6.3477,3.5807,0.0,0.0,0.0,0.0,0.0,0.0,0.0,0.0,0.0,5.0882,0.0,5.5667,0.0,5.7587,0.0,5.7148,5.5591,5.2603,5.1548,0.0,4.8008,4.7431,0.0,0.0,0.0,0.0,0.0,0.0,4.2838,4.3014,4.3014,4.2813,0.0,0.0,0.0,4.5422,0.0,4.9861,0.0,0.0,5.4033,0.0,0.0,5.5776,5.5749,0.0,5.6074,5.6168,5.5993,5.5735,5.545,5.5186,5.4425,5.3597,5.3509,5.341,5.3284,5.3241,5.3996,0.0,0.0,5.1325,0.0,0.0,0.0,0.0,0.0,0.0,0.0,0.0,0.0,0.0,0.0,0.0,0.0,0.0,0.0,0.0,0.0,0.0,0.0,0.0,0.0,4.7338,4.6737,4.5767,4.6003,0.0,0.0,5.076,5.2694,5.3896,5.4968,5.5909,5.6118,5.6432,5.6824,5.7407,5.7695,5.7721,5.8261,5.8706,5.9045,5.8679,5.8836,5.9421,5.9777,5.9934,6.0117,6.1241,6.1555,6.1529,6.2432,6.3059,6.3503,0.0,0.0,0.0,0.0,3.7813,0.0,0.0,0.0,4.6728,0.0,5.1548,5.4587,5.6344,5.7976,5.8892,5.8892,5.9357,0.0,5.3547,5.3708,0.0,0.0,4.8812,4.8284,4.6627,0.0,0.0,0.0,0.0,0.0,4.309,4.3039,4.2989,4.3065,4.5296,0.0,4.6527,5.0393,5.2377,5.3121,5.534,5.6219,5.6219,5.6219,0.0,5.5491,5.6018,5.6219,5.6118,5.5591,5.5767,5.6018,5.5024,5.4672,5.4522,5.3959,5.3783,5.3727,5.3569,5.3891,5.3976,5.2662,0.0,0.0,0.0,0.0,5.253,0.0,0.0,0.0,0.0,0.0,0.0,0.0,0.0,0.0,0.0,0.0,0.0,0.0,0.0,0.0,0.0,4.663,4.5612,4.399,4.3258,4.365,0.0,0.0,4.9165,5.1413,5.3792,5.5282,5.583,5.6432,5.6745,5.6771,5.7355,5.7643,5.7721,5.8235,5.8497,5.8523,5.8523,5.8836,5.9369,5.9395,6.0013,6.0995,6.1084,6.1476,6.2115,6.26,6.345,6.4417,3.648,3.6833,3.7562,0.0,3.8492,3.9019,0.0,0.0,0.0,0.0,5.5164,5.7926,6.0774,6.1477,6.1728,6.1728,6.1517,0.0,0.0,0.0,0.0,5.4727,5.3658,5.2336,5.0645,4.8987,0.0,4.6045,0.0,0.0,4.4192,4.3363,4.2788,4.2512,0.0,0.0,4.5924,4.9389,5.1875,5.3658,5.5491,5.6219,0.0,0.0,5.6118,5.6018,5.6168,5.6219,5.6194,5.6043,5.6093,5.6168,5.5892,5.5516,5.5139,5.4988,5.4963,5.4949,5.4894,5.5307,5.548,5.4594,5.369,5.2834,0.0,0.0,0.0,0.0,0.0,0.0,0.0,0.0,0.0,0.0,0.0,0.0,0.0,0.0,0.0,0.0,0.0,0.0,0.0,4.4121,4.3284,4.3232,4.1874,0.0,0.0,0.0,0.0,4.9688,5.2406,5.4105,5.4628,5.5229,5.5752,5.6144,5.6275,5.6858,5.7695,5.7852,5.8104,5.8523,5.8523,5.8601,5.8758,5.9238,5.9578,5.9944,6.0771,6.1738,6.2574,6.2287,6.2652,6.3241,0.0,0.0,0.0,4.0223,0.0,0.0,4.3768,0.0,0.0,5.3206,5.642,0.0,6.0814,6.2094,6.2781,6.2781,6.2505,0.0,0.0,0.0,0.0,5.7085,5.6143,5.4863,5.3206,5.1029,0.0,4.745,0.0,0.0,4.4242,4.3388,4.2713,4.2313,0.0,4.5773,0.0,4.954,5.2277,5.4185,5.5365,0.0,0.0,5.6118,5.6068,5.5892,5.6118,5.6219,5.6168,5.5942,5.6018,5.6168,5.5917,5.5817,5.5742,5.5742,5.5742,5.5742,5.5742,5.5968,5.6104,5.5692,5.5062,5.4445,5.3912,5.4244,5.4262,0.0,0.0,0.0,0.0,0.0,0.0,0.0,0.0,0.0,0.0,0.0,0.0,0.0,0.0,0.0,4.284,4.1977,4.1428,4.1508,0.0,0.0,0.0,0.0,0.0,4.8303,5.1622,5.3661,5.4184,5.5046,5.5595,5.5909,5.617,5.6771,5.7695,5.7957,5.8209,5.8523,5.8523,5.8523,5.8549,5.916,5.9395,5.9526,6.0666,6.1659,6.2417,6.2115,6.2496,6.3201,0.0,0.0,0.0,0.0,0.0,0.0,0.0,4.8159,0.0,5.3221,0.0,5.9257,5.927,6.1391,6.2781,0.0,0.0,6.1953,6.006,6.0839,6.0286,5.7763,5.7512,5.6696,5.5074,5.2662,0.0,0.0,0.0,0.0,4.389,4.3291,4.2738,4.2414,0.0,0.0,0.0,5.0318,5.2879,0.0,5.5074,5.539,5.544,5.5993,5.5917,5.5566,5.6043,5.6219,5.6143,5.5666,5.5817,5.6118,5.5641,5.5817,5.6219,5.6219,5.6219,5.6219,5.6219,5.6219,5.6219,5.6219,5.6219,5.604,5.5477,5.5455,5.5239,5.3953,5.3187,0.0,0.0,0.0,0.0,0.0,0.0,0.0,0.0,0.0,0.0,0.0,0.0,0.0,0.0,0.0,0.0,0.0,0.0,0.0,0.0,0.0,0.0,4.7202,5.1073,0.0,5.4314,0.0,5.5961,5.6249,5.6536,5.7085,5.7826,5.8209,5.8444,5.8523,5.8523,5.8523,5.8549,5.9045,5.9369,5.9604,6.0614,6.1398,6.201,6.201,6.2638,6.3501,0.0,0.0,0.0,0.0,0.0,4.7531,5.1189,5.308,5.4938,5.7386,6.0261,0.0,6.2054,6.2505,6.2781,6.2781,6.2781,0.0,0.0,0.0,0.0,6.119,6.0197,5.8981,5.7349,5.3808,5.1297,0.0,0.0,0.0,4.4439,4.3438,4.2964,4.2939,0.0,0.0,4.7682,5.0795,0.0,5.2084,5.4436,5.539,5.544,5.5993,5.6143,5.6068,5.6168,5.6219,5.6194,5.6093,5.6118,5.6194,5.6093,5.6143,5.6219,5.6219,5.6219,5.6219,5.6219,5.6219,5.6219,5.6219,5.6219,5.6278,5.6439,5.5926,5.5421,5.5325,5.3648,5.1999,5.1279,0.0,0.0,0.0,0.0,0.0,0.0,0.0,0.0,0.0,0.0,0.0,0.0,0.0,0.0,0.0,0.0,0.0,0.0,0.0,0.0,0.0,5.0054,0.0,0.0,0.0,5.6196,5.8052,5.6693,5.6876,5.834,5.8009,5.8078,5.8523,5.8523,5.8523,5.8523,5.8627,5.9228,6.0091,6.03,6.1032,6.201,6.201,6.2141,6.2298,0.0,0.0,0.0,0.0,0.0,0.0,0.0,5.7198,0.0,5.8328,5.9684,6.0688,6.0649,6.1928,6.2781,6.2781,6.2781,6.2781,6.2781,6.2781,6.2531,6.2019,6.0914,0.0,5.8353,0.0,5.2251,5.087,0.0,0.0,0.0,0.0,0.0,4.2183,0.0,4.5573,0.0,0.0,0.0,5.19,5.4084,5.5139,5.544,5.5993,5.6043,5.5817,5.6118,5.6219,5.6219,5.6219,5.6219,5.6219,5.6219,5.6219,5.6219,5.6219,5.6219,5.6219,5.6219,5.6219,5.6219,5.6219,5.6219,5.6255,5.6438,5.6309,5.5987,5.5481,5.4264,5.2658,5.0735,4.8114,0.0,0.0,0.0,0.0,0.0,0.0,0.0,0.0,0.0,0.0,0.0,0.0,0.0,0.0,0.0,0.0,0.0,0.0,0.0,0.0,0.0,0.0,0.0,0.0,0.0,5.7608,5.6771,5.7137,5.8497,5.8235,5.8261,5.8523,5.8523,5.8523,5.8523,5.8523,5.9019,5.9777,5.9777,6.0483,6.1529,6.1529,6.1711,6.2063,0.0,4.5999,0.0,0.0,5.2302,0.0,0.0,6.001,6.1266,5.9207,5.9307,5.9558,5.9545,6.1477,6.2781,6.2781,6.2781,6.2781,6.2781,6.2781,6.2581,6.2195,6.1115,6.006,5.9043,5.5767,5.308,0.0,0.0,0.0,0.0,0.0,0.0,0.0,0.0,0.0,0.0,0.0,5.0795,5.2251,5.4069,5.5024,5.544,5.5993,5.5867,5.5465,5.6018,5.6143,5.6068,5.6168,5.6219,5.6219,5.6219,5.6219,5.6219,5.6219,5.6219,5.6219,5.6219,5.6219,5.6219,5.6219,5.6219,5.6168,5.6068,5.6197,5.6059,5.5142,5.4419,5.3121,5.0237,4.8476,0.0,0.0,0.0,0.0,0.0,0.0,0.0,0.0,0.0,0.0,0.0,0.0,0.0,0.0,0.0,0.0,0.0,0.0,0.0,0.0,0.0,5.2171,5.3739,0.0,5.6223,0.0,5.7059,5.7529,5.8523,5.8627,5.8627,5.8523,5.8653,5.8627,5.8523,5.8523,5.8862,5.9395,5.9395,6.0091,6.1073,6.1073,6.1476,6.2063,0.0,0.0,0.0,0.0,0.0,0.0,0.0,6.0512,6.2094,6.2305,6.238,6.2446,6.2405,6.2631,6.2781,6.2781,6.2781,6.2781,6.2781,6.2781,6.2756,6.2706,6.1692,6.0814,6.0147,5.6922,5.3683,0.0,0.0,0.0,0.0,0.0,0.0,0.0,0.0,0.0,0.0,5.0017,5.1498,5.2302,5.4436,5.534,5.544,5.5993,5.5867,5.5465,5.6018,5.5892,5.5541,5.6043,5.6219,5.6219,5.6219,5.6219,5.6219,5.6219,5.6219,5.6219,5.6219,5.6219,5.6219,5.6219,5.6219,5.6068,5.5591,5.5125,5.4739,5.4448,5.3604,5.2297,5.0158,4.9671,4.9083,0.0,0.0,0.0,0.0,0.0,0.0,0.0,0.0,0.0,0.0,0.0,0.0,0.0,0.0,0.0,0.0,0.0,0.0,4.6397,0.0,5.2171,5.4916,5.5099,0.0,5.834,5.7878,5.7957,5.8523,5.9045,5.8993,5.8549,5.9072,5.8993,5.8523,5.8523,5.8862,5.9395,5.9395,6.0091,6.1073,6.1073,6.1476,6.201,0.0,0.0,0.0,0.0,0.0,0.0,0.0,6.1918,6.2531,6.2756,6.2781,6.2781,6.2781,6.2781,6.2781,6.2781,6.2781,6.2781,6.2781,6.2781,6.2781,6.2781,6.1768,6.0914,6.0337,5.7725,5.4913,0.0,0.0,0.0,0.0,0.0,0.0,0.0,0.0,4.6351,4.8234,5.0017,5.1272,5.2277,5.4135,5.5125,5.544,5.5993,5.6068,5.5917,5.6118,5.6068,5.5917,5.6143,5.6219,5.6219,5.6219,5.6219,5.6219,5.6219,5.6219,5.6219,5.6219,5.6219,5.6219,5.6219,5.5968,5.5666,5.544,5.4999,5.4552,5.4347,5.3342,5.2198,5.1208,5.0061,4.9306,0.0,0.0,0.0,0.0,0.0,0.0,0.0,0.0,0.0,0.0,0.0,0.0,0.0,0.0,0.0,0.0,0.0,0.0,4.6917,0.0,5.1492,5.4053,5.5072,5.6223,5.7503,5.7701,5.8258,5.9045,5.9367,5.9534,5.9542,5.9447,5.9264,5.9019,5.9019,5.9186,5.9395,5.9395,6.0091,6.1084,6.0681,6.1163,6.201,5.4762,0.0,5.6118,0.0,5.9508,6.0136,6.243,6.2781,6.2781,6.2781,6.2781,6.2781,6.2781,6.2781,6.2781,6.2781,6.2781,6.2781,6.2781,6.2781,6.2781,6.2781,6.1768,0.0,6.0588,5.8541,5.6132,5.3406,5.19,0.0,0.0,0.0,0.0,0.0,4.5769,4.7355,4.9622,5.0845,5.195,5.2955,5.4461,5.5189,5.544,5.5993,5.6118,5.5993,5.6143,5.6118,5.5993,5.6168,5.6219,5.6194,5.6018,5.5968,5.5968,5.5968,5.6093,5.6219,5.6219,5.6219,5.6219,5.6219,5.5792,5.534,5.5189,5.4712,5.4215,5.3856,5.2944,5.2024,5.1641,5.0391,4.9603,5.0359,0.0,0.0,0.0,0.0,0.0,0.0,0.0,4.2852,4.1565,0.0,0.0,0.0,0.0,0.0,0.0,0.0,0.0,0.0,0.0,0.0,0.0,5.4984,5.6199,5.7059,5.7523,5.817,5.898,5.9264,5.9705,6.0274,5.9846,5.9657,5.9594,5.9473,5.95,5.9594,5.929,5.983,6.076,6.0378,6.0744,6.1502,5.7298,5.8252,5.9332,6.1567,6.2395,6.2731,6.2781,6.2781,6.2781,6.2781,6.2781,6.2781,6.2781,6.2781,6.2781,6.2781,6.2781,6.2781,6.2781,6.2781,6.2781,0.0,0.0,6.119,6.1165,5.9558,5.7323,5.4572,0.0,0.0,4.7074,0.0,4.6276,4.6376,4.856,5.0167,5.1348,5.298,5.4009,5.4672,5.5742,5.5867,5.544,5.5993,5.5867,5.5465,5.6018,5.5867,5.5491,5.6018,5.6219,5.6118,5.5566,5.539,5.539,5.539,5.5792,5.6219,5.6219,5.6219,5.6219,5.6219,5.5792,5.5239,5.4723,5.4135,5.3511,5.2776,5.2184,5.1634,5.1108,5.0748,5.0493,5.0136,0.0,0.0,0.0,0.0,0.0,0.0,4.5335,4.4262,4.2009,0.0,0.0,0.0,0.0,0.0,0.0,0.0,0.0,4.6769,4.9377,0.0,5.3657,5.4821,5.6167,5.7695,5.7491,5.7595,5.7918,5.8559,5.9439,6.0464,6.0274,6.0185,6.0133,5.963,5.9699,6.0091,5.8967,5.9228,6.0185,6.0185,6.0185,6.0405,5.9307,6.0311,6.1291,6.237,6.2681,6.2781,6.2781,6.2781,6.2973,6.3375,6.3073,6.2973,6.3375,6.3073,6.2781,0.0,6.2781,6.2781,0.0,6.2781,6.2781,6.2781,6.1768,6.119,6.119,5.9558,5.7725,5.5691,0.0,0.0,0.0,4.841,4.8385,4.9131,5.0268,5.1548,5.3005,5.3909,5.4421,5.4672,5.5365,5.5541,5.544,5.5993,5.6093,5.5968,5.6143,5.6093,5.5917,5.5717,5.539,5.5024,5.4411,5.4762,5.5315,5.4974,5.5214,5.5641,5.5641,5.5917,5.6219,5.6219,5.5792,5.5239,5.4723,5.3833,5.308,5.2866,5.227,5.1694,5.1278,5.0699,5.02,5.0129,0.0,0.0,0.0,0.0,0.0,0.0,4.3547,4.2506,0.0,4.2497,0.0,0.0,0.0,0.0,0.0,0.0,0.0,0.0,4.9343,0.0,5.4019,5.5073,5.6314,5.7695,5.759,5.8023,5.8874,5.961,6.0153,6.049,6.0717,6.0551,6.0195,6.0013,6.0065,6.0143,5.9385,5.9568,6.0169,5.9777,5.9882,6.0237,6.0814,6.1517,6.2169,6.2681,6.2781,6.2781,6.2781,6.2781,6.2948,6.3324,6.3007,6.2932,6.3324,6.3048,0.0,6.2781,6.2781,6.2781,6.2781,6.2781,6.2781,6.2781,6.1768,6.109,6.0864,0.0,0.0,5.6483,5.534,5.3582,5.1314,5.0645,5.0795,5.1674,5.2477,5.3381,5.4386,5.4938,5.5064,5.4949,5.5465,5.5566,5.544,5.5993,5.6219,5.6219,5.6219,5.6068,5.5842,5.5491,5.5049,5.4496,5.3884,5.4185,5.4737,5.4647,5.5125,5.5691,5.5691,5.5942,5.6219,5.6219,5.5792,5.5189,5.4446,5.3708,5.3105,5.2669,5.222,5.1715,5.1054,5.0557,5.0164,4.9962,4.9735,4.9153,0.0,0.0,0.0,0.0,0.0,0.0,0.0,4.3693,0.0,0.0,0.0,0.0,0.0,0.0,0.0,4.781,4.9507,0.0,5.4211,5.5047,5.6204,5.7612,5.7378,5.7717,5.8466,5.9139,5.9564,5.977,6.0327,6.0367,6.0002,5.9914,6.0013,6.0107,5.9359,5.9411,5.9856,5.9526,5.9464,5.9647,6.1793,6.2044,0.0,0.0,6.2781,0.0,6.2781,6.2781,6.2807,6.2832,6.2807,6.2807,6.2832,6.2807,6.2781,6.2781,0.0,0.0,0.0,6.2781,6.2781,6.2781,6.1768,6.0939,6.0387,5.9332,5.819,5.706,5.4888,5.3557,5.3071,5.302,5.3296,5.3858,5.4913,5.5415,5.5491,5.5993,5.5917,5.5491,5.6018,5.5917,5.5491,5.6018,5.6219,5.6219,5.6219,5.5892,5.544,5.539,5.5074,5.4547,5.3909,5.3733,5.3858,5.4346,5.5239,5.6093,5.6093,5.6143,5.6219,5.6219,5.5792,5.5114,5.4059,5.3783,5.3457,5.2427,5.2176,5.1825,5.0712,5.0436,5.0243,4.9741,4.9145,4.819,4.6527,0.0,0.0,0.0,0.0,0.0,0.0,4.5145,4.5715,0.0,0.0,0.0,0.0,0.0,4.685,4.8012,4.9834,5.1937,5.4308,5.4899,5.5878,5.7307,5.6982,5.6861,5.7047,5.7466,5.7966,5.8474,5.9304,5.9636,5.9595,5.9414,5.9637,6.0002,5.8905,5.8836,5.9343,5.9343,5.8967,5.8653,0.0,0.0,6.2631,6.2756,6.2781,6.2781,6.2781,6.2781,6.2998,6.3425,6.3099,6.2998,6.345,6.3099,6.2781,6.2781,6.2781,6.2781,6.2781,6.2781,6.2781,6.2781,6.1768,6.1115,6.0989,5.9885,5.878,5.77,5.5867,5.4913,5.4787,5.4386,5.4461,5.4988,5.5265,5.5616,5.6018,5.6168,5.6143,5.6018,5.6168,5.6118,5.6018,5.6168,5.6219,5.6219,5.6219,5.6118,5.5968,5.5541,5.5326,5.5013,5.4009,5.4009,5.4245,5.3532,5.4084,5.4999,5.4999,5.5566,5.6219,5.6219,5.5792,5.5315,5.5039,5.4662,5.4195,5.3457,5.3005,5.2494,5.1825,5.0996,5.0336,5.0243,4.9038,4.7682,4.6476,4.5192,0.0,0.0,4.4471,4.4771,4.5922,4.5943,4.6023,0.0,0.0,0.0,0.0,4.8543,4.9168,4.84,5.1357,5.3538,5.4679,5.542,5.6009,5.651,5.6692,5.6861,5.7047,5.7466,5.7726,5.7841,5.8829,5.8999,5.8598,5.8833,5.904,5.9092,5.8677,5.8601,5.8706,5.8706,5.8627,5.8549,6.2395,6.2581,6.2781,6.2781,6.2781,6.2781,6.2781,6.2781,6.2907,6.3249,6.2982,6.2907,6.3249,6.3023,6.2781,6.2781,6.2781,6.2781,6.2781,6.2781,6.2681,6.2471,6.1642,6.0939,6.0412,5.9583,5.8604,5.7499,5.6595,5.6018,5.5767,5.5465,5.5491,5.5767,5.5767,5.5942,5.6219,5.6219,5.6219,5.6219,5.6219,5.6219,5.6194,5.5942,5.5842,5.5792,5.5541,5.529,5.5013,5.4712,5.4461,5.416,5.3532,5.3557,5.3708,5.3071,5.3884,5.4974,5.4974,5.5566,5.6219,5.6219,5.5792,5.539,5.539,5.4999,5.4446,5.3808,5.3482,5.303,5.2251,5.1398,5.0569,4.9791,4.8485,4.6903,4.5045,4.4468,0.0,4.4172,4.4856,4.5753,4.6788,4.7323,4.746,4.7126,0.0,0.0,4.7779,5.0124,5.0958,4.9647,5.2027,5.3895,5.5061,5.577,5.6135,5.6219,5.6438,5.6552,5.6634,5.6928,5.6976,5.7001,5.7709,5.7977,5.7851,5.8249,5.8501,5.8655,5.8521,5.8523,5.8523,5.8523,5.8523,5.8523,6.2781,6.2781,6.2781,6.2781,6.2781,6.2781,6.2781,6.2781,6.2781,6.2781,6.2781,6.2781,6.2781,6.2781,6.2781,6.2781,6.2781,6.2781,6.2781,6.2781,6.2581,6.2144,6.1517,6.0738,5.9784,5.9081,5.8164,5.7136,5.7035,5.6709,5.6219,5.6219,5.6244,5.6344,5.6244,5.6269,5.6319,5.6244,5.6219,5.6219,5.6219,5.6168,5.6043,5.5566,5.534,5.5225,5.4773,5.427,5.3858,5.3934,5.3658,5.3246,5.3171,5.3146,5.3121,5.3046,5.411,5.5265,5.5265,5.5717,5.6219,5.6219,5.5867,5.5516,5.5516,5.5175,5.4672,5.4084,5.3884,5.3532,5.2528,5.1749,5.0853,4.9421,4.7883,4.602,4.3718,0.0,4.379,4.3441,4.5321,4.6928,4.7525,4.8736,4.9115,4.823,4.9103,4.9474,0.0,5.1332,5.2354,5.1469,5.2741,5.4149,5.5599,5.6004,5.6219,5.6219,5.6219,5.6219,5.6219,5.6219,5.6219,5.6219,5.662,5.6982,5.7343,5.7713,5.8106,5.8416,5.8487,5.8523,5.8523,5.8523,5.8523,5.8523,6.2781,6.2781,6.2781,6.2781,6.2781,6.2781,6.2781,6.2781,6.2781,6.2781,6.2781,6.2781,6.2781,6.2781,6.2781,6.2781,6.2781,6.2781,6.2781,6.2781,6.2756,6.2656,6.1718,6.109,6.0914,5.9483,5.8403,5.775,5.7236,5.6709,5.6219,5.6219,5.6433,5.686,5.642,5.647,5.6835,5.642,5.6219,5.6219,5.6219,5.5942,5.5516,5.5415,5.5125,5.4723,5.4622,5.4547,5.4547,5.4963,5.5064,5.4913,5.4496,5.4346,5.4245,5.3733,5.411,5.4723,5.4723,5.544,5.6219,5.6219,5.6143,5.6093,5.6093,5.6018,5.5792,5.5239,5.4798,5.427,5.3582,5.2251,5.1197,5.0946,4.8008,4.5598,4.5171,0.0,4.4614,4.5045,4.7085,4.8786,4.9816,4.9289,4.9421,5.061,5.0284,5.0468,5.1465,5.2641,5.3509,5.4014,5.5283,5.6163,5.6577,5.6314,5.6219,5.6219,5.6219,5.6219,5.6219,5.6219,5.6219,5.6219,5.662,5.6837,5.6946,5.7605,5.7927,5.8034,5.8381,5.8523,5.8523,5.8523,5.8523,5.8523,5.9841,5.9841,5.9841,5.9841,5.9841,5.9841,5.9841,5.9841,5.9841,5.9841,5.9841,5.9841,5.9841,5.9841,5.9841,5.9841,5.9841,6.0284,6.1291,6.2265,6.2656,6.2395,6.1617,6.0889,6.0286,5.9257,5.8604,5.8353,5.7437,5.686,5.6609,5.6344,5.6308,5.6533,5.6319,5.6344,5.6533,5.6319,5.6219,5.6219,5.6219,5.6068,5.5767,5.5164,5.4823,5.4522,5.3884,5.3683,5.3758,5.431,5.4486,5.4486,5.4572,5.4597,5.4547,5.427,5.4597,5.5049,5.5049,5.5591,5.6143,5.5842,5.5767,5.5842,5.6143,5.5993,5.5691,5.544,5.5189,5.4773,5.3858,5.2628,5.1423,5.0519,4.7631,0.0,0.0,4.4995,4.5141,4.6627,4.8234,4.9766,5.1197,5.087,5.1021,5.2076,5.1833,5.1984,5.2904,5.3655,5.4336,5.5024,5.5901,5.6378,5.6474,5.6292,5.6219,5.6219,5.6219,5.6219,5.6219,5.6219,5.6328,5.6547,5.6729,5.7019,5.7426,5.7749,5.8034,5.8212,5.8452,5.8523,5.8523,5.8523,5.8523,5.8523,5.7309,5.7309,5.7309,5.7309,5.7309,5.7309,5.7309,5.7309,5.7309,5.7309,5.7309,5.7309,5.7309,5.7309,5.7309,5.7309,5.7309,5.791,5.9359,6.0768,6.1688,6.1978,6.1341,6.0512,5.9508,5.8981,5.8654,5.8491,5.7487,5.6935,5.6809,5.642,5.6269,5.6358,5.6269,5.6294,5.6394,5.6269,5.6219,5.6219,5.6219,5.6143,5.5917,5.5125,5.4723,5.4471,5.3457,5.3206,5.3356,5.3758,5.3984,5.416,5.4647,5.4798,5.4798,5.4798,5.5175,5.5541,5.5415,5.5691,5.5917,5.5491,5.5491,5.5691,5.6118,5.5892,5.5591,5.5591,5.5365,5.4974,5.4059,5.2804,5.1498,5.0193,0.0,0.0,0.0,4.5598,4.6024,4.7707,4.9138,5.0594,5.2151,5.2302,5.2578,5.3256,5.3306,5.3532,5.4059,5.4547,5.5049,5.5566,5.5993,5.6219,5.6219,5.6219,5.6219,5.6219,5.6219,5.6219,5.6219,5.6219,5.6365,5.6656,5.6874,5.7271,5.7784,5.7963,5.8212,5.8523,5.8523,5.8523,5.8523,5.8523,5.8523,5.8523,5.7309,5.7309,5.7309,5.7309,5.7309,5.7309,5.7309,5.7309,5.7309,5.7309,5.7309,5.7309,5.7309,5.7309,5.7309,5.7309,5.7309,5.7352,5.7481,5.761,5.8972,6.1857,6.0964,6.0111,5.9508,5.8981,5.8478,5.7951,5.7286,5.6734,5.6269,5.6219,5.6495,5.691,5.6408,5.6495,5.691,5.642,5.6219,5.6219,5.6219,5.5917,5.544,5.5365,5.5049,5.4522,5.3858,5.3984,5.4496,5.4522,5.4873,5.5265,5.5315,5.534,5.534,5.534,5.5717,5.6043,5.5516,5.5415,5.544,5.539,5.5767,5.6168,5.6194,5.6168,5.6143,5.6143,5.534,5.4622,5.4547,5.2813,5.1297,5.1172,0.0,0.0,4.6973,4.735,4.7732,4.7883,4.9841,5.1599,5.2719,5.2845,5.3306,5.4396,5.4471,5.4723,5.5239,5.5315,5.5591,5.6143,5.6194,5.6219,5.6219,5.6219,5.6219,5.6219,5.6219,5.6219,5.6219,5.6219,5.6219,5.6292,5.7019,5.7379,5.7487,5.8167,5.8487,5.8523,5.8523,5.8523,5.8523,5.8523,5.8523,5.8523,5.3878,5.3878,5.3878,5.3878,5.3878,5.3878,5.3878,5.3878,5.3878,5.3878,5.3878,5.3878,5.3878,5.3878,5.3878,5.3878,5.3878,5.4388,5.5553,5.5641,5.6407,5.8059,5.7713,5.7095,5.6303,5.574,5.5422,5.5247,5.5359,5.4958,5.4137,5.5534,5.5917,5.5415,5.5966,5.6319,5.6483,5.6294,5.6219,5.6219,5.6219,5.6093,5.5867,5.5516,5.5265,5.4963,5.4034,5.3833,5.4084,5.4471,5.4748,5.5024,5.5691,5.5892,5.5892,5.5892,5.5817,5.5641,5.544,5.5641,5.5817,5.5465,5.5792,5.6219,5.6219,5.6219,5.6219,5.6219,5.5867,5.539,5.4723,5.3617,5.2452,5.1448,0.0,4.8385,4.9031,4.8761,4.9088,5.082,5.1774,5.2879,5.431,5.4461,5.4762,5.5516,5.5591,5.5666,5.5892,5.5892,5.5993,5.6194,5.6219,5.6219,5.6219,5.6219,5.6219,5.6219,5.6219,5.6219,5.6219,5.6219,5.6474,5.6946,5.7271,5.7667,5.8096,5.8381,5.8523,5.8523,5.8523,5.8523,5.8523,5.8523,5.8523,5.8523,5.1791,5.1791,5.1791,5.1791,5.1791,5.1791,5.1791,5.1791,5.1791,5.1791,5.1791,5.1791,5.1791,5.1791,5.1791,5.1791,5.1791,5.2378,5.3633,5.3572,5.4193,5.5714,5.5495,5.499,5.4342,5.3796,5.352,5.3561,5.3756,5.3444,5.2786,5.4363,5.4541,5.3678,5.4523,5.4804,5.467,5.5214,5.5398,5.5447,5.5799,5.5968,5.5917,5.5541,5.539,5.5265,5.431,5.4084,5.4235,5.4321,5.4446,5.4773,5.5666,5.6068,5.6219,5.6219,5.5942,5.5641,5.5641,5.5917,5.6068,5.5516,5.5792,5.6219,5.6219,5.6219,5.6219,5.6219,5.6068,5.5717,5.4999,5.4084,5.3105,5.1975,5.0544,4.9891,5.082,5.0444,5.0845,5.2929,5.3331,5.3959,5.5265,5.539,5.5616,5.6168,5.6219,5.6219,5.6219,5.6219,5.6219,5.6219,5.6219,5.6219,5.6219,5.6219,5.6219,5.6219,5.6219,5.6219,5.6219,5.6219,5.651,5.7019,5.7163,5.7487,5.7989,5.8096,5.8167,5.8167,5.8167,5.8239,5.8284,5.8284,5.8416,5.8523,5.1791,5.1791,5.1791,5.1791,5.1791,5.1791,5.1791,5.1791,5.1791,5.1791,5.1791,5.1791,5.1791,5.1791,5.1791,5.1791,5.1791,5.1791,5.1791,5.1357,5.247,5.5607,5.4788,5.4237,5.4237,5.3756,5.344,5.344,5.2879,5.2571,5.2571,5.2587,5.2375,5.1996,5.1996,5.1737,5.1409,5.301,5.3688,5.3777,5.4938,5.539,5.539,5.539,5.539,5.5315,5.4798,5.4949,5.5214,5.4084,5.412,5.4697,5.5214,5.5767,5.6219,5.6219,5.6219,5.6219,5.6219,5.6219,5.6068,5.5541,5.5817,5.6219,5.6219,5.6219,5.6219,5.6219,5.5767,5.539,5.539,5.4059,5.292,5.2895,5.2026,5.1498,5.2051,5.2544,5.3096,5.3658,5.4245,5.4823,5.534,5.539,5.5616,5.6168,5.6219,5.6219,5.6219,5.6219,5.6219,5.6219,5.6219,5.6219,5.6219,5.6219,5.6219,5.6219,5.6219,5.6219,5.6219,5.6219,5.6219,5.6219,5.662,5.6801,5.6837,5.7235,5.7379,5.7379,5.7379,5.7595,5.7892,5.7892,5.8141,5.8523,5.1791,5.1791,5.1791,5.1791,5.1791,5.1791,5.1791,5.1791,5.1791,5.1791,5.1791,5.1791,5.1791,5.1791,5.1791,5.1791,5.1791,5.1667,5.1336,5.088,5.0887,5.1552,5.1317,5.0996,5.0675,5.0483,5.0248,4.9906,5.0931,5.0783,4.9692,5.1689,5.2103,5.1235,5.1781,5.1943,5.1798,5.1955,5.2022,5.2152,5.3619,5.4216,5.4352,5.5505,5.5968,5.5892,5.534,5.5024,5.4848,5.4863,5.4461,5.4135,5.5089,5.5767,5.6219,5.6219,5.6219,5.6219,5.6219,5.6219,5.6168,5.6018,5.6093,5.6219,5.6219,5.6219,5.6219,5.6219,5.6068,5.5842,5.5465,5.4988,5.4386,5.3607,5.3532,5.3542,5.3256,5.3708,5.4285,5.4813,5.5039,5.5365,5.5917,5.5968,5.6043,5.6194,5.6219,5.6219,5.6219,5.6219,5.6219,5.6219,5.6219,5.6219,5.6219,5.6219,5.6219,5.6219,5.6219,5.6219,5.6219,5.6219,5.6365,5.662,5.6765,5.6946,5.7235,5.7343,5.7379,5.7379,5.7379,5.7451,5.7595,5.782,5.7963,5.8106,5.1791,5.1791,5.1791,5.1791,5.1791,5.1791,5.1791,5.1791,5.1791,5.1791,5.1791,5.1791,5.1791,5.1791,5.1791,5.1791,5.1791,5.1605,5.115,5.0673,5.0218,4.9827,4.962,4.9392,4.9122,4.9102,4.8977,4.8687,4.9702,4.9575,4.846,5.0143,5.0358,4.9391,4.9803,4.991,4.9751,5.0149,5.0326,5.0498,5.2547,5.3376,5.3586,5.5259,5.5892,5.5842,5.5516,5.5164,5.4949,5.5074,5.4762,5.4486,5.5164,5.5767,5.6219,5.6219,5.6219,5.6219,5.6219,5.6219,5.6219,5.6219,5.6219,5.6219,5.6219,5.6219,5.6219,5.6219,5.6219,5.6118,5.5767,5.5541,5.5164,5.4486,5.4522,5.4547,5.4386,5.4697,5.5125,5.5641,5.5717,5.5842,5.6168,5.6219,5.6219,5.6219,5.6219,5.6219,5.6219,5.6219,5.6219,5.6219,5.6219,5.6219,5.6219,5.6219,5.6219,5.6219,5.6219,5.6219,5.6219,5.6219,5.6328,5.6583,5.6583,5.6692,5.691,5.691,5.691,5.691,5.691,5.7127,5.7415,5.7631,5.7892,5.8177,5.1791,5.1791,5.1791,5.1791,5.1791,5.1791,5.1791,5.1791,5.1791,5.1791,5.1791,5.1791,5.1791,5.1791,5.1791,5.1791,5.1791,5.1584,5.1087,5.0653,5.0197,4.9765,4.933,4.9102,4.9102,4.9102,4.9102,4.9102,4.9102,4.8874,4.8418,4.8418,4.792,4.7051,4.701,4.6762,4.645,4.7951,4.8583,4.8816,5.1472,5.2634,5.2954,5.4619,5.5332,5.5465,5.5465,5.544,5.5315,5.4798,5.4999,5.544,5.5415,5.5767,5.6219,5.6219,5.6219,5.6219,5.6219,5.6219,5.6219,5.6219,5.6219,5.6219,5.6219,5.6219,5.6219,5.6219,5.6219,5.6219,5.6219,5.5792,5.5465,5.5465,5.5074,5.4924,5.539,5.5465,5.5641,5.6143,5.6219,5.6219,5.6219,5.6219,5.6219,5.6219,5.6219,5.6219,5.6219,5.6219,5.6219,5.6219,5.6219,5.6219,5.6219,5.6219,5.6219,5.6219,5.6219,5.6219,5.6219,5.6219,5.6219,5.6219,5.6219,5.6219,5.6219,5.6219,5.6219,5.6219,5.6219,5.6656,5.7307,5.7379,5.7846,5.8416,5.1791,5.1791,5.1791,5.1791,5.1791,5.1791,5.1791,5.1791,5.1791,5.1791,5.1791,5.1791,5.1791,5.1791,5.1791,5.1791,5.1791,5.1439,5.0632,5.0466,5.0052,4.9288,4.9164,4.9102,4.9102,4.9102,4.9102,4.9102,4.9102,4.8874,4.8418,4.8418,4.8086,4.7527,4.7155,4.6948,4.6865,4.6857,4.6851,4.6991,4.8925,5.0478,5.1821,5.3445,5.4869,5.6043,5.6043,5.5767,5.5315,5.4798,5.525,5.5968,5.5516,5.5767,5.6219,5.6219,5.6219,5.6219,5.6219,5.6219,5.6219,5.6219,5.6219,5.6219,5.6219,5.6219,5.6219,5.6219,5.6219,5.6219,5.6219,5.6118,5.6043,5.6043,5.5942,5.5892,5.6018,5.6043,5.6068,5.6194,5.6219,5.6219,5.6219,5.6219,5.6219,5.6219,5.6219,5.6219,5.6219,5.6219,5.6219,5.6219,5.6219,5.6219,5.6219,5.6219,5.6219,5.6219,5.6219,5.6219,5.6219,5.6219,5.6219,5.6219,5.6219,5.6219,5.6219,5.6219,5.6219,5.6219,5.6219,5.6328,5.6547,5.7163,5.7487,5.7703,5.1791,5.1791,5.1791,5.1791,5.1791,5.1791,5.1791,5.1791,5.1791,5.1791,5.1791,5.1791,5.1791,5.1791,5.1791,5.1791,5.1791,5.1501,5.0798,5.0736,5.0342,4.9475,4.9433,4.933,4.9122,4.9102,4.9102,4.9102,4.9102,4.8749,4.8086,4.8086,4.7693,4.703,4.6762,4.6679,4.6658,4.641,4.6307,4.6468,4.8129,4.978,5.1486,5.3086,5.4745,5.6219,5.6219,5.5867,5.534,5.5099,5.534,5.5817,5.5792,5.5968,5.6219,5.6219,5.6219,5.6219,5.6219,5.6219,5.6219,5.6219,5.6219,5.6219,5.6219,5.6219,5.6219,5.6219,5.6219,5.6219,5.6219,5.6219,5.6219,5.6219,5.6219,5.6219,5.6219,5.6219,5.6219,5.6219,5.6219,5.6219,5.6219,5.6219,5.6219,5.6219,5.6219,5.6219,5.6219,5.6219,5.6219,5.6219,5.6219,5.6219,5.6219,5.6219,5.6219,5.6219,5.6219,5.6219,5.6219,5.6219,5.6219,5.6219,5.6219,5.6219,5.6219,5.6219,5.6369,5.6533,5.6319,5.6479,5.69,5.7048,5.7343,5.7739,5.1791,5.1791,5.1791,5.1791,5.1791,5.1791,5.1791,5.1791,5.1791,5.1791,5.1791,5.1791,5.1791,5.1791,5.1791,5.1791,5.1791,5.1605,5.115,5.1025,5.0632,4.9827,4.9723,4.9495,4.9122,4.9102,4.9102,4.9102,4.9102,4.8646,4.7693,4.7693,4.7217,4.6307,4.6307,4.6307,4.6307,4.6307,4.6307,4.6428,4.781,4.9567,5.1447,5.2783,5.4522,5.6219,5.6219,5.5917,5.5541,5.5541,5.5541,5.5616,5.6068,5.6219,5.6219,5.6219,5.6219,5.6219,5.6219,5.6219,5.6219,5.6219,5.6219,5.6219,5.6219,5.6219,5.6219,5.6219,5.6219,5.6219,5.6219,5.6219,5.6219,5.6219,5.6219,5.6219,5.6219,5.6219,5.6219,5.6219,5.6219,5.6219,5.6219,5.6219,5.6219,5.6219,5.6219,5.6219,5.6219,5.6219,5.6219,5.6219,5.6219,5.6219,5.6219,5.6219,5.6219,5.6219,5.6219,5.6219,5.6219,5.6219,5.6219,5.6219,5.6219,5.6219,5.6219,5.6219,5.6508,5.696,5.6483,5.688,5.7604,5.712,5.7348,5.7963,5.1791,5.1791,5.1791,5.1791,5.1791,5.1791,5.1791,5.1791,5.1791,5.1791,5.1791,5.1791,5.1791,5.1791,5.1791,5.1791,5.1791,5.1605,5.115,5.0736,5.028,4.9827,4.9412,4.9164,4.9102,4.9102,4.9102,4.9102,4.9102,4.8646,4.7693,4.7693,4.7217,4.6307,4.6307,4.6307,4.6307,4.6307,4.6307,4.6307,4.6528,4.8504,5.1332,5.1524,5.3525,5.6219,5.6219,5.6168,5.6093,5.6093,5.6093,5.6118,5.6194,5.6219,5.6219,5.6219,5.6219,5.6219,5.6219,5.6219,5.6219,5.6219,5.6219,5.6219,5.6219,5.6219,5.6219,5.6219,5.6219,5.6219,5.6219,5.6219,5.6219,5.6219,5.6219,5.6219,5.6219,5.6219,5.6219,5.6219,5.6219,5.6219,5.6219,5.6219,5.6219,5.6219,5.6219,5.6219,5.6219,5.6219,5.6219,5.6219,5.6219,5.6219,5.6219,5.6219,5.6219,5.6219,5.6219,5.6219,5.6219,5.6219,5.6219,5.6219,5.6219,5.6219,5.6219,5.6219,5.6508,5.6985,5.691,5.7273,5.7813,5.7592,5.7681,5.7927,5.0975,5.0975,5.1066,5.1338,5.1429,5.152,5.1746,5.1791,5.1791,5.1791,5.1791,5.1791,5.1791,5.1791,5.1791,5.1791,5.1564,5.1336,5.1129,5.0673,5.0218,4.9827,4.9599,4.9371,4.9122,4.9102,4.9102,4.9102,4.9102,4.8646,4.7693,4.7693,4.7217,4.6307,4.6307,4.6307,4.6307,4.6307,4.6307,4.6307,4.6307,4.8327,5.1293,5.1293,5.3336,5.6168,5.5867,5.5742,5.5742,5.5742,5.5742,5.5817,5.6118,5.6219,5.6219,5.6219,5.6219,5.6219,5.6219,5.6219,5.6219,5.6219,5.6219,5.6219,5.6219,5.6219,5.6219,5.6219,5.6219,5.6219,5.6219,5.6219,5.6219,5.6219,5.6219,5.6219,5.6219,5.6219,5.6219,5.6219,5.6219,5.6219,5.6219,5.6219,5.6219,5.6219,5.6219,5.6219,5.6219,5.6219,5.6219,5.6219,5.6219,5.6219,5.6219,5.6219,5.6219,5.6219,5.6219,5.6219,5.6219,5.6219,5.6219,5.6219,5.6219,5.6219,5.6244,5.6508,5.6784,5.6985,5.6985,5.696,5.6959,5.7111,5.7222,5.7318]},{"header":{"parameterUnit":"m.s-1","parameterCategory":1,"la1":30.6,"la2":28.766,"lo1":-90.7593,"lo2":-88.6598,"dy":0.0162,"dx":0.0183,"nx":116,"ny":114,"refTime":"2023-03-26T12:00:00:Z","depth":0,"parameterNumber":3,"parameterNumberName":"V-component_of_WINDS"},"data":[0.0,0.0,0.0,0.0,0.0,0.0,0.0,0.0,0.0,0.0,0.0,0.0,0.0,0.0,0.0,0.0,0.0,0.0,0.0,0.0,0.0,0.0,0.0,0.0,0.0,0.0,0.0,0.0,0.0,0.0,0.0,0.0,0.0,0.0,0.0,0.0,0.0,0.0,0.0,0.0,0.0,0.0,0.0,0.0,0.0,0.0,0.0,0.0,0.0,0.0,0.0,0.0,0.0,0.0,0.0,0.0,0.0,0.0,0.0,0.0,0.0,0.0,0.0,0.0,0.0,0.0,0.0,0.0,0.0,0.0,0.0,0.0,0.0,0.0,0.0,0.0,0.0,0.0,0.0,0.0,0.0,0.0,0.0,0.0,0.0,0.0,0.0,0.0,0.0,0.0,0.0,0.0,0.0,0.0,0.0,0.0,0.0,0.0,0.0,0.0,0.0,0.0,0.0,0.0,0.0,0.0,0.0,0.0,0.0,0.0,0.0,0.0,0.0,0.0,0.0,0.0,0.0,0.0,0.0,0.0,0.0,0.0,0.0,0.0,0.0,0.0,0.0,0.0,0.0,0.0,0.0,0.0,0.0,0.0,0.0,0.0,0.0,0.0,0.0,0.0,0.0,0.0,0.0,0.0,0.0,0.0,0.0,0.0,0.0,0.0,0.0,0.0,0.0,0.0,0.0,0.0,0.0,0.0,0.0,0.0,0.0,0.0,0.0,0.0,0.0,0.0,0.0,0.0,0.0,0.0,0.0,0.0,0.0,0.0,0.0,0.0,0.0,0.0,0.0,0.0,0.0,0.0,0.0,0.0,0.0,0.0,0.0,0.0,0.0,0.0,0.0,0.0,0.0,0.0,0.0,0.0,0.0,0.0,0.0,0.0,0.0,0.0,0.0,0.0,0.0,0.0,0.0,0.0,0.0,0.0,0.0,0.0,0.0,0.0,0.0,0.0,0.0,0.0,0.0,0.0,0.0,0.0,0.0,0.0,0.0,0.0,0.0,0.0,0.0,0.0,0.0,0.0,0.0,0.0,0.0,0.0,0.0,0.0,0.0,0.0,0.0,0.0,0.0,0.0,0.0,0.0,0.0,0.0,0.0,0.0,0.0,0.0,0.0,0.0,0.0,0.0,0.0,0.0,0.0,0.0,0.0,0.0,0.0,0.0,0.0,0.0,0.0,0.0,0.0,0.0,0.0,0.0,0.0,0.0,0.0,0.0,0.0,0.0,0.0,0.0,0.0,0.0,0.0,0.0,0.0,0.0,0.0,0.0,0.0,0.0,0.0,0.0,0.0,0.0,0.0,0.0,0.0,0.0,0.0,0.0,0.0,0.0,0.0,0.0,0.0,0.0,0.0,0.0,0.0,0.0,0.0,0.0,0.0,0.0,0.0,0.0,0.0,0.0,0.0,0.0,0.0,0.0,0.0,0.0,0.0,0.0,0.0,0.0,0.0,0.0,0.0,0.0,0.0,0.0,0.0,0.0,0.0,0.0,0.0,0.0,0.0,0.0,0.0,0.0,0.0,0.0,0.0,0.0,0.0,0.0,0.0,0.0,0.0,0.0,0.0,0.0,0.0,0.0,0.0,0.0,0.0,0.0,0.0,0.0,0.0,0.0,0.0,0.0,0.0,0.0,0.0,0.0,0.0,0.0,0.0,0.0,0.0,0.0,0.0,0.0,0.0,0.0,0.0,0.0,0.0,0.0,0.0,0.0,0.0,0.0,0.0,0.0,0.0,0.0,0.0,0.0,0.0,0.0,0.0,0.0,0.0,0.0,0.0,0.0,0.0,0.0,0.0,0.0,0.0,0.0,0.0,0.0,0.0,0.0,0.0,0.0,0.0,0.0,0.0,0.0,0.0,0.0,0.0,0.0,0.0,0.0,0.0,0.0,0.0,0.0,0.0,0.0,0.0,0.0,0.0,0.0,0.0,0.0,0.0,0.0,0.0,0.0,0.0,0.0,0.0,0.0,0.0,0.0,0.0,0.0,0.0,0.0,0.0,0.0,0.0,0.0,0.0,0.0,0.0,0.0,0.0,0.0,0.0,0.0,0.0,0.0,0.0,0.0,0.0,0.0,0.0,0.0,0.0,0.0,0.0,0.0,0.0,0.0,0.0,0.0,0.0,0.0,0.0,0.0,0.0,0.0,0.0,0.0,0.0,0.0,0.0,0.0,0.0,0.0,0.0,0.0,0.0,0.0,0.0,0.0,0.0,0.0,0.0,0.0,0.0,0.0,0.0,0.0,0.0,0.0,0.0,0.0,0.0,0.0,0.0,0.0,0.0,0.0,0.0,0.0,0.0,0.0,0.0,0.0,0.0,0.0,0.0,0.0,0.0,0.0,0.0,0.0,0.0,0.0,0.0,0.0,0.0,0.0,0.0,0.0,0.0,0.0,0.0,0.0,0.0,0.0,0.0,0.0,0.0,0.0,0.0,0.0,0.0,0.0,0.0,0.0,0.0,0.0,0.0,0.0,0.0,0.0,0.0,0.0,0.0,0.0,0.0,0.0,0.0,0.0,0.0,0.0,0.0,0.0,0.0,0.0,0.0,0.0,0.0,0.0,0.0,0.0,0.0,0.0,0.0,0.0,0.0,0.0,0.0,0.0,0.0,0.0,0.0,0.0,0.0,0.0,0.0,0.0,0.0,0.0,0.0,0.0,0.0,0.0,0.0,0.0,0.0,0.0,0.0,0.0,0.0,0.0,0.0,0.0,0.0,0.0,0.0,0.0,0.0,0.0,0.0,0.0,0.0,0.0,0.0,0.0,0.0,0.0,0.0,0.0,0.0,0.0,0.0,0.0,0.0,0.0,0.0,0.0,0.0,0.0,0.0,0.0,0.0,0.0,0.0,0.0,0.0,0.0,0.0,0.0,0.0,0.0,0.0,0.0,0.0,0.0,0.0,0.0,0.0,0.0,0.0,0.0,0.0,0.0,0.0,0.0,0.0,0.0,0.0,0.0,0.0,0.0,0.0,0.0,0.0,0.0,0.0,0.0,0.0,0.0,0.0,0.0,0.0,0.0,0.0,0.0,0.0,0.0,0.0,0.0,0.0,0.0,0.0,0.0,0.0,0.0,0.0,0.0,0.0,0.0,0.0,0.0,0.0,0.0,0.0,0.0,0.0,0.0,0.0,0.0,0.0,0.0,0.0,0.0,0.0,0.0,0.0,0.0,0.0,0.0,0.0,0.0,0.0,0.0,0.0,0.0,0.0,0.0,0.0,0.0,0.0,0.0,0.0,0.0,0.0,0.0,0.0,0.0,0.0,0.0,0.0,0.0,0.0,0.0,0.0,0.0,0.0,0.0,0.0,0.0,0.0,0.0,0.0,0.0,0.0,0.0,0.0,0.0,0.0,0.0,0.0,0.0,0.0,0.0,0.0,0.0,0.0,0.0,0.0,0.0,0.0,0.0,0.0,0.0,0.0,0.0,0.0,0.0,0.0,0.0,0.0,0.0,0.0,0.0,0.0,0.0,0.0,0.0,0.0,0.0,0.0,0.0,0.0,0.0,0.0,0.0,0.0,0.0,0.0,0.0,0.0,0.0,0.0,0.0,0.0,0.0,0.0,0.0,0.0,0.0,0.0,0.0,0.0,0.0,0.0,0.0,0.0,0.0,0.0,0.0,0.0,0.0,0.0,0.0,0.0,0.0,0.0,0.0,0.0,0.0,0.0,0.0,0.0,0.0,0.0,0.0,0.0,0.0,0.0,0.0,0.0,0.0,0.0,0.0,0.0,0.0,0.0,0.0,0.0,0.0,0.0,0.0,0.0,0.0,0.0,0.0,0.0,0.0,0.0,0.0,0.0,0.0,0.0,0.0,0.0,0.0,0.0,0.0,0.0,0.0,0.0,0.0,0.0,0.0,0.0,0.0,0.0,0.0,0.0,0.0,0.0,0.0,0.0,0.0,0.0,0.0,0.0,0.0,0.0,0.0,0.0,0.0,0.0,0.0,0.0,0.0,0.0,0.0,0.0,0.0,0.0,0.0,0.0,0.0,0.0,0.0,0.0,0.0,0.0,0.0,0.0,0.0,0.0,0.0,0.0,0.0,0.0,0.0,0.0,0.0,0.0,0.0,0.0,0.0,0.0,0.0,0.0,0.0,0.0,0.0,0.0,0.0,0.0,0.0,0.0,0.0,0.0,0.0,0.0,0.0,0.0,0.0,0.0,0.0,0.0,0.0,0.0,0.0,0.0,0.0,0.0,0.0,0.0,0.0,0.0,0.0,0.0,0.0,0.0,0.0,0.0,0.0,0.0,0.0,0.0,0.0,0.0,0.0,0.0,0.0,0.0,0.0,0.0,0.0,0.0,0.0,0.0,0.0,0.0,0.0,0.0,0.0,0.0,0.0,0.0,0.0,0.0,0.0,0.0,0.0,0.0,0.0,0.0,0.0,0.0,0.0,0.0,0.0,0.0,0.0,0.0,0.0,0.0,0.0,0.0,0.0,0.0,0.0,0.0,0.0,0.0,0.0,0.0,0.0,0.0,0.0,0.0,0.0,0.0,0.0,0.0,0.0,0.0,0.0,0.0,0.0,0.0,0.0,0.0,0.0,0.0,0.0,0.0,0.0,0.0,0.0,0.0,0.0,0.0,0.0,0.0,0.0,0.0,0.0,0.0,0.0,0.0,0.0,0.0,0.0,0.0,0.0,0.0,0.0,0.0,0.0,0.0,0.0,0.0,0.0,0.0,0.0,0.0,0.0,0.0,0.0,0.0,0.0,0.0,0.0,0.0,0.0,0.0,0.0,0.0,0.0,0.0,0.0,0.0,0.0,0.0,0.0,0.0,0.0,0.0,0.0,0.0,0.0,0.0,0.0,0.0,0.0,0.0,0.0,0.0,0.0,0.0,0.0,0.0,0.0,0.0,0.0,0.0,0.0,0.0,0.0,0.0,0.0,0.0,0.0,0.0,0.0,0.0,0.0,0.0,0.0,0.0,0.0,0.0,0.0,0.0,0.0,0.0,0.0,0.0,0.0,0.0,0.0,0.0,0.0,0.0,0.0,0.0,0.0,0.0,0.0,0.0,0.0,0.0,0.0,0.0,0.0,0.0,0.0,0.0,0.0,0.0,0.0,0.0,0.0,0.0,0.0,0.0,0.0,0.0,0.0,0.0,0.0,0.0,0.0,0.0,0.0,0.0,0.0,0.0,0.0,0.0,0.0,0.0,0.0,0.0,0.0,0.0,0.0,0.0,0.0,0.0,0.0,0.0,0.0,0.0,0.0,0.0,0.0,0.0,0.0,0.0,0.0,0.0,0.0,0.0,0.0,0.0,0.0,0.0,0.0,0.0,0.0,0.0,0.0,0.0,0.0,0.0,0.0,0.0,0.0,0.0,0.0,0.0,0.0,0.0,0.0,0.0,0.0,0.0,0.0,0.0,0.0,0.0,0.0,0.0,0.0,0.0,0.0,0.0,0.0,0.0,0.0,0.0,0.0,0.0,0.0,0.0,0.0,0.0,0.0,0.0,0.0,0.0,0.0,0.0,0.0,0.0,0.0,0.0,0.0,0.0,0.0,0.0,0.0,0.0,0.0,0.0,0.0,0.0,0.0,0.0,0.0,0.0,0.0,0.0,0.0,0.0,0.0,0.0,0.0,0.0,0.0,0.0,0.0,0.0,0.0,0.0,0.0,0.0,0.0,0.0,0.0,0.0,0.0,0.0,0.0,0.0,0.0,0.0,0.0,0.0,0.0,0.0,0.0,0.0,0.0,0.0,0.0,0.0,0.0,0.0,0.0,0.0,0.0,0.0,0.0,0.0,0.0,0.0,0.0,0.0,0.0,0.0,0.0,0.0,0.0,0.0,0.0,0.0,0.0,0.0,0.0,0.0,0.0,0.0,0.0,0.0,0.0,0.0,0.0,0.0,0.0,0.0,0.0,0.0,0.0,0.0,0.0,0.0,0.0,0.0,0.0,0.0,0.0,0.0,0.0,0.0,0.0,0.0,0.0,0.0,0.0,0.0,0.0,0.0,0.0,0.0,0.0,0.0,0.0,0.0,0.0,0.0,0.0,0.0,0.0,0.0,0.0,0.0,0.0,0.0,0.0,0.0,0.0,0.0,0.0,0.0,0.0,0.0,0.0,0.0,0.0,0.0,0.0,3.0204,0.0,0.0,0.0,0.0,0.0,0.0,0.0,0.0,0.0,0.0,0.0,0.0,0.0,0.0,0.0,0.0,0.0,0.0,0.0,0.0,0.0,0.0,0.0,0.0,0.0,0.0,0.0,0.0,0.0,0.0,0.0,0.0,0.0,0.0,0.0,0.0,0.0,0.0,0.0,0.0,0.0,0.0,0.0,0.0,0.0,0.0,0.0,0.0,0.0,0.0,0.0,0.0,0.0,0.0,0.0,0.0,0.0,0.0,0.0,0.0,0.0,0.0,0.0,0.0,0.0,0.0,0.0,0.0,0.0,0.0,0.0,0.0,0.0,0.0,0.0,0.0,0.0,0.0,0.0,0.0,0.0,0.0,0.0,0.0,0.0,0.0,0.0,0.0,0.0,0.0,0.0,0.0,0.0,0.0,0.0,0.0,0.0,0.0,0.0,0.0,0.0,0.0,0.0,0.0,0.0,0.0,0.0,0.0,0.0,0.0,0.0,0.0,0.0,0.0,0.0,0.0,3.1079,0.0,0.0,0.0,0.0,0.0,0.0,0.0,0.0,0.0,0.0,0.0,0.0,0.0,0.0,0.0,0.0,0.0,0.0,0.0,0.0,0.0,0.0,0.0,0.0,0.0,0.0,0.0,0.0,0.0,0.0,0.0,0.0,0.0,0.0,0.0,0.0,0.0,0.0,0.0,0.0,0.0,0.0,0.0,0.0,0.0,0.0,0.0,0.0,0.0,0.0,0.0,0.0,0.0,0.0,0.0,0.0,0.0,0.0,0.0,0.0,0.0,0.0,0.0,0.0,0.0,0.0,0.0,0.0,0.0,0.0,0.0,0.0,0.0,0.0,0.0,0.0,0.0,0.0,0.0,0.0,0.0,0.0,0.0,0.0,0.0,0.0,0.0,0.0,0.0,0.0,0.0,0.0,0.0,0.0,0.0,0.0,0.0,0.0,0.0,0.0,0.0,0.0,0.0,0.0,0.0,0.0,0.0,0.0,0.0,3.5459,3.6773,3.6563,3.6504,3.6484,3.4766,3.3338,3.2235,0.0,0.0,0.0,0.0,0.0,0.0,0.0,0.0,0.0,0.0,0.0,0.0,0.0,0.0,0.0,0.0,0.0,0.0,0.0,0.0,0.0,0.0,0.0,0.0,0.0,0.0,0.0,0.0,0.0,0.0,0.0,0.0,0.0,0.0,0.0,0.0,0.0,0.0,0.0,4.181,4.3112,4.3987,4.4231,3.961,0.0,0.0,0.0,0.0,0.0,0.0,0.0,0.0,0.0,0.0,0.0,0.0,0.0,0.0,0.0,0.0,0.0,0.0,0.0,0.0,0.0,0.0,0.0,0.0,0.0,0.0,0.0,0.0,0.0,0.0,0.0,0.0,0.0,0.0,0.0,0.0,0.0,0.0,0.0,0.0,0.0,0.0,0.0,3.0167,2.9494,0.0,0.0,0.0,0.0,0.0,0.0,0.0,0.0,0.0,0.0,0.0,0.0,0.0,0.0,3.4863,3.5659,3.7049,3.914,3.7958,3.8327,3.9938,3.8799,3.8437,3.8789,3.8906,0.0,3.4251,3.3569,0.0,0.0,0.0,0.0,0.0,0.0,0.0,0.0,0.0,0.0,0.0,0.0,0.0,0.0,0.0,0.0,0.0,0.0,0.0,0.0,0.0,0.0,0.0,0.0,0.0,0.0,0.0,0.0,0.0,0.0,0.0,0.0,0.0,0.0,0.0,0.0,4.1932,4.3338,4.4518,4.5221,4.5698,4.5849,4.3526,4.2068,4.1318,4.0438,0.0,0.0,0.0,0.0,0.0,0.0,0.0,0.0,0.0,0.0,0.0,0.0,0.0,0.0,0.0,0.0,0.0,0.0,0.0,0.0,0.0,0.0,0.0,0.0,0.0,0.0,0.0,0.0,0.0,0.0,0.0,0.0,0.0,0.0,0.0,0.0,0.0,0.0,0.0,2.9945,3.0653,2.9352,3.0957,3.1589,0.0,0.0,0.0,0.0,0.0,0.0,0.0,0.0,0.0,3.8133,3.8366,3.8649,3.9062,4.0445,4.1762,4.2999,4.3373,4.4491,4.6258,4.5668,4.5493,4.5661,4.558,4.4209,4.1718,3.7383,3.4602,3.2976,0.0,0.0,0.0,0.0,0.0,3.2331,0.0,0.0,0.0,0.0,0.0,0.0,0.0,0.0,0.0,0.0,0.0,0.0,0.0,0.0,0.0,3.7436,0.0,0.0,0.0,0.0,0.0,0.0,0.0,0.0,0.0,0.0,0.0,4.2612,4.4271,4.5773,4.7154,4.7456,4.7807,4.8184,4.7757,4.625,4.3966,4.2864,4.1431,0.0,0.0,0.0,0.0,0.0,0.0,0.0,0.0,0.0,0.0,0.0,0.0,0.0,0.0,0.0,0.0,0.0,0.0,0.0,0.0,0.0,0.0,0.0,0.0,0.0,0.0,0.0,0.0,0.0,0.0,0.0,0.0,0.0,0.0,0.0,0.0,0.0,0.0,3.1,3.1912,2.9674,3.2532,3.3699,0.0,0.0,0.0,0.0,0.0,0.0,3.8698,3.884,4.0254,4.3404,4.3727,4.388,4.3965,4.5552,4.6774,4.7684,4.8658,5.0065,5.1871,5.1492,5.1287,5.1133,5.0759,4.9857,4.8162,4.1835,3.8069,3.6233,3.524,3.4683,3.446,3.5046,3.5512,3.5864,0.0,0.0,0.0,0.0,0.0,0.0,0.0,0.0,0.0,0.0,0.0,0.0,0.0,0.0,3.9195,4.0198,4.0399,4.0675,0.0,0.0,0.0,0.0,0.0,0.0,0.0,0.0,0.0,4.3714,4.6984,4.8868,4.9464,5.0519,5.185,5.3256,5.1724,4.9515,4.6722,4.4066,4.2889,4.2534,0.0,0.0,0.0,0.0,0.0,0.0,0.0,0.0,0.0,0.0,0.0,0.0,0.0,0.0,0.0,0.0,0.0,0.0,0.0,0.0,0.0,0.0,0.0,0.0,0.0,0.0,0.0,0.0,0.0,0.0,0.0,0.0,0.0,0.0,0.0,0.0,0.0,0.0,0.0,3.1199,3.6124,0.0,0.0,0.0,0.0,3.7336,3.9302,4.0964,4.2104,4.306,4.4448,4.6411,4.7343,4.8404,4.9566,5.0495,5.2019,5.4117,5.2903,5.3318,5.5013,5.3664,5.2857,5.2525,5.2503,5.1932,5.0703,4.6335,4.3692,4.2232,4.0923,4.0405,4.0383,4.0394,4.0438,4.0267,0.0,0.0,0.0,0.0,0.0,0.0,0.0,0.0,0.0,0.0,0.0,0.0,0.0,3.9899,4.1758,4.3564,4.4041,4.3865,4.2958,0.0,0.0,0.0,0.0,0.0,0.0,0.0,4.4995,4.8058,4.9615,5.1255,5.2838,5.324,5.3743,5.427,5.3692,5.2452,5.0612,4.7099,4.4618,4.2813,4.0646,3.914,0.0,0.0,0.0,0.0,0.0,0.0,0.0,0.0,0.0,0.0,0.0,0.0,0.0,0.0,0.0,0.0,0.0,0.0,0.0,0.0,0.0,0.0,0.0,0.0,0.0,0.0,0.0,0.0,0.0,0.0,0.0,0.0,0.0,0.0,0.0,0.0,0.0,3.701,4.0681,0.0,0.0,4.1002,4.2294,4.2294,4.4185,4.6334,4.8674,4.8922,5.0325,5.3256,5.3678,5.3932,5.424,5.5407,5.6136,5.6402,5.6768,5.7494,5.8432,5.7944,5.7626,5.7481,5.7154,5.6576,5.5801,5.3584,4.9703,4.5006,4.3963,4.319,4.2669,4.322,4.3395,4.3205,0.0,0.0,0.0,0.0,0.0,0.0,0.0,0.0,0.0,0.0,0.0,3.7262,3.9697,4.2283,4.4522,4.6175,4.6476,4.5874,4.4192,0.0,0.0,0.0,4.0224,0.0,0.0,4.4895,4.7481,5.0971,5.2101,5.3607,5.539,5.5214,5.5315,5.5702,5.5125,5.4536,5.3798,5.0461,4.7355,4.4443,4.2233,4.1021,4.0364,0.0,0.0,0.0,0.0,0.0,0.0,0.0,0.0,0.0,0.0,0.0,0.0,0.0,0.0,0.0,0.0,0.0,0.0,0.0,0.0,0.0,0.0,0.0,0.0,0.0,0.0,0.0,0.0,0.0,0.0,0.0,0.0,0.0,0.0,0.0,4.21,4.1481,4.5183,4.6829,4.4301,4.6091,4.7405,4.7405,4.926,5.1376,5.3761,5.4025,5.5225,5.7726,5.8175,5.8176,5.7808,5.8867,5.9129,5.8621,5.9504,6.0141,6.0478,6.0478,6.0382,6.0189,5.981,5.9353,5.88,5.8103,5.4791,5.0125,4.8831,4.778,4.7095,4.7525,4.7635,4.7391,0.0,0.0,0.0,0.0,0.0,0.0,0.0,0.0,0.0,0.0,3.6332,3.8693,4.045,4.4514,4.74,4.8008,4.7475,4.6421,4.4765,4.2055,0.0,0.0,0.0,0.0,4.3966,4.7707,5.0494,5.2226,5.4386,5.5993,5.701,5.652,5.6846,5.7826,5.6194,5.5742,5.6093,5.3924,5.1113,4.7857,4.4522,4.3714,4.4163,0.0,0.0,0.0,0.0,0.0,0.0,0.0,0.0,0.0,0.0,0.0,0.0,0.0,0.0,0.0,0.0,0.0,0.0,0.0,0.0,0.0,0.0,0.0,0.0,0.0,0.0,0.0,0.0,0.0,0.0,0.0,0.0,0.0,3.8266,4.2696,4.5643,4.4419,4.961,5.1809,4.8006,5.0602,5.2536,5.2536,5.4399,5.6035,5.7077,5.8151,5.8945,5.945,6.0502,6.0791,6.0261,6.0767,6.1031,6.1031,6.1031,6.1031,6.1031,6.1007,6.0719,6.0237,6.0213,5.9924,5.9402,5.9402,5.88,5.7646,5.553,5.4375,5.3846,5.3341,5.3149,5.2697,0.0,0.0,0.0,0.0,0.0,0.0,0.0,0.0,0.0,0.0,3.691,3.9873,4.3109,4.6376,4.9188,5.1314,4.9213,4.7235,4.5924,0.0,0.0,0.0,0.0,0.0,4.7908,4.9841,5.2226,5.5089,5.6057,5.691,5.765,5.7499,5.76,5.7876,5.7424,5.7072,5.6734,5.6132,5.4913,5.2929,4.8385,4.5547,4.3815,0.0,0.0,0.0,0.0,0.0,0.0,0.0,0.0,0.0,0.0,0.0,0.0,0.0,0.0,0.0,0.0,0.0,0.0,0.0,0.0,0.0,0.0,0.0,0.0,0.0,0.0,0.0,0.0,0.0,0.0,0.0,0.0,4.5016,4.369,4.7593,5.1115,5.2656,5.5332,5.6661,5.5603,5.6693,5.743,5.743,5.8721,5.9738,6.0436,6.0748,6.0989,6.1133,6.1422,6.1494,6.135,6.1494,6.1566,6.1566,6.1566,6.1566,6.1566,6.12,6.0935,6.0767,6.0382,6.0141,5.9955,5.9955,5.957,5.8824,5.7454,5.6332,5.5515,5.5409,5.4141,5.2293,0.0,0.0,0.0,0.0,0.0,0.0,0.0,0.0,0.0,0.0,3.809,4.1482,4.4644,4.8083,5.072,5.2126,4.959,4.721,4.5372,0.0,0.0,0.0,0.0,4.6984,5.0569,5.2653,5.4963,5.7575,5.8114,5.8704,5.9282,5.9282,5.9282,5.9257,5.9031,5.873,5.8365,5.8114,5.7449,5.6168,5.3005,5.0092,4.738,4.5095,4.4141,4.384,4.2836,4.2468,4.2218,4.0564,0.0,0.0,0.0,0.0,0.0,0.0,0.0,0.0,0.0,0.0,0.0,0.0,0.0,0.0,0.0,0.0,0.0,0.0,0.0,0.0,0.0,0.0,0.0,0.0,4.7569,4.9813,5.0657,5.2811,5.5097,5.7285,5.8969,5.9931,5.9931,6.0219,6.0388,6.0388,6.0965,6.1446,6.1782,6.1807,6.1807,6.1807,6.2023,6.2023,6.1807,6.2023,6.2239,6.2432,6.2239,6.2239,6.2432,6.1879,6.1561,0.0,6.0791,6.055,6.0526,6.0309,6.0045,0.0,0.0,0.0,0.0,0.0,5.5295,5.3474,0.0,0.0,0.0,0.0,0.0,0.0,0.0,0.0,0.0,0.0,0.0,4.2889,4.497,4.9113,5.1574,5.1222,4.9012,4.6577,0.0,0.0,4.1932,4.3065,4.7456,5.0745,5.2628,5.568,5.8014,5.9583,6.0136,6.0688,6.119,6.119,6.119,6.1205,6.0638,6.0412,6.0387,5.9885,5.9131,5.8227,5.7612,5.5605,5.2594,4.9006,4.8184,4.8693,4.7054,4.5495,4.4066,4.3266,0.0,0.0,0.0,0.0,0.0,0.0,0.0,0.0,0.0,0.0,0.0,0.0,0.0,0.0,0.0,0.0,0.0,0.0,0.0,0.0,0.0,0.0,0.0,0.0,5.1081,5.4135,5.767,5.7911,5.8247,5.9666,6.1109,6.2047,6.2215,6.2191,6.2167,6.2239,6.2239,6.2215,6.2167,0.0,0.0,0.0,0.0,6.26,6.2071,6.2576,6.3057,6.3374,6.3033,6.3057,6.3374,6.2913,6.2384,6.1855,6.1344,6.1104,6.1055,6.0526,6.0261,6.0165,5.9594,5.9113,5.856,5.7574,5.654,0.0,0.0,0.0,0.0,0.0,0.0,0.0,0.0,0.0,0.0,3.5282,3.8994,4.2007,4.3341,4.7059,4.9741,5.0519,4.7757,4.5522,0.0,4.2911,4.407,4.8636,5.0619,5.303,5.5981,5.8001,5.9408,6.0161,6.0738,6.1065,6.119,6.119,6.119,6.1165,6.1065,6.1014,6.1014,6.0914,6.0738,6.0487,5.991,5.7223,5.3381,5.1749,5.0419,4.9264,4.8033,4.8228,4.866,4.6118,4.6196,4.6793,4.3428,0.0,0.0,0.0,0.0,0.0,0.0,0.0,0.0,0.0,0.0,0.0,0.0,0.0,0.0,0.0,0.0,0.0,0.0,0.0,0.0,5.1068,5.4447,5.7574,6.0045,6.1374,6.2196,6.2484,6.2797,6.3494,6.4837,6.4548,6.45,6.4909,6.4957,6.4765,6.4332,6.4716,0.0,6.4332,6.4404,6.4211,6.3638,6.4211,6.4308,6.3926,0.0,0.0,6.3902,6.3374,6.2913,6.2408,6.1879,6.1638,6.159,6.108,6.0598,6.0165,5.9594,5.9329,5.9161,5.8536,5.7886,5.7261,0.0,0.0,0.0,0.0,0.0,0.0,0.0,0.0,0.0,0.0,3.8191,4.0626,4.2007,4.4869,4.6702,4.6702,4.4694,0.0,4.3388,4.4446,4.6903,5.1071,5.3658,5.6168,5.8591,6.0035,6.1014,6.1527,6.1868,6.1994,6.1994,6.1994,6.1994,6.1994,6.1994,6.1994,6.1994,6.1994,6.1843,6.1567,6.1291,5.9659,5.7273,5.5616,5.431,5.3206,5.2377,5.19,5.1389,4.9604,4.8996,4.8525,4.5846,4.4175,4.2817,0.0,0.0,0.0,0.0,0.0,0.0,0.0,0.0,0.0,0.0,0.0,0.0,0.0,0.0,4.389,0.0,0.0,5.2018,5.4952,5.8103,6.0845,6.2672,6.4091,6.4524,6.3422,6.3998,6.4837,6.563,6.5702,6.5823,6.6087,6.5847,6.5702,6.5702,6.5462,6.5438,6.5702,6.5197,6.5053,6.5318,6.5053,6.5053,6.5318,6.5053,6.4909,6.4909,6.438,6.3851,6.3322,6.2793,6.2432,6.2143,6.1344,6.0694,6.0189,5.9883,5.9618,5.9353,5.9089,5.8656,5.8127,0.0,0.0,0.0,0.0,0.0,0.0,0.0,0.0,0.0,0.0,3.7312,3.917,4.0374,4.2482,4.3388,0.0,0.0,4.2526,4.3268,4.6476,4.9891,5.3231,5.647,5.8981,6.0573,6.1642,6.2395,6.2781,6.2781,6.2781,6.2781,6.2781,6.2781,6.2781,6.2781,6.2781,6.2781,6.2781,6.2531,6.2169,6.2169,6.1893,6.1291,5.9408,5.8278,5.7512,5.6634,5.4928,5.2945,5.2452,5.0921,4.9081,4.7988,4.6681,4.5115,4.2832,4.173,0.0,0.0,0.0,0.0,0.0,0.0,0.0,0.0,0.0,4.215,4.303,4.5405,4.7834,4.9576,5.2693,5.5935,5.8649,6.1387,6.3647,6.4885,6.5991,6.6015,6.4263,6.5221,6.6087,6.6304,6.6616,6.6857,6.6953,6.6568,6.6472,6.6785,6.6087,6.6039,6.6785,6.5991,6.5895,6.664,6.5895,6.5919,6.664,6.5775,6.5534,6.5847,6.5318,6.4716,6.4046,6.3518,6.3057,6.2504,6.1542,6.0863,6.0358,6.0261,5.9948,5.9587,5.9587,5.9209,5.868,0.0,0.0,0.0,0.0,0.0,0.0,0.0,0.0,0.0,0.0,0.0,0.0,0.0,0.0,0.0,0.0,4.3155,4.603,4.7191,4.9063,5.2477,5.7738,5.883,6.0111,6.1768,6.238,6.2731,6.2781,6.2781,6.2781,6.2781,6.2781,6.2781,6.2781,6.2781,6.2781,6.2781,6.2781,6.2756,6.2706,6.2706,6.2656,6.2531,6.1818,6.0889,5.9684,5.7637,5.548,5.3532,5.297,5.2026,5.1038,5.1054,5.0074,4.8264,4.4829,0.0,4.0744,3.8602,3.8096,3.8238,3.8623,4.0051,4.1675,0.0,0.0,4.732,4.7573,5.0095,5.2368,5.2608,5.6377,5.9696,6.0568,6.3331,6.5427,6.558,6.652,6.7097,6.6881,6.7001,6.7482,6.8444,6.818,6.8131,6.8612,6.8588,6.8372,6.7963,6.8276,6.83,6.7939,6.7819,6.7578,6.7194,6.7578,6.7578,6.7194,6.7073,6.6809,6.6376,6.5847,6.5077,6.4046,6.3518,6.3057,6.2528,6.1951,6.1374,6.0863,6.0406,6.0165,6.0117,6.0117,5.9738,5.9281,0.0,0.0,0.0,0.0,0.0,0.0,0.0,0.0,0.0,0.0,0.0,0.0,0.0,0.0,0.0,3.6961,4.1148,4.5101,4.811,5.2033,5.6105,6.031,6.1711,6.2422,6.2446,6.2681,6.2781,6.2781,6.2781,6.2781,6.2781,6.2781,6.2781,6.2781,6.2781,6.2781,6.2781,6.2781,6.2781,6.2781,6.2781,6.2781,6.2681,6.1868,6.0638,5.9068,5.6872,5.4863,0.0,0.0,5.1373,5.1373,5.1756,5.0464,4.839,4.6229,4.3737,0.0,3.9813,4.0108,0.0,0.0,4.3752,4.6073,4.7294,4.9269,5.1117,5.2092,5.4645,5.6926,5.7877,6.043,6.2768,0.0,6.5808,6.7287,6.7928,6.8437,6.8485,6.7831,6.7477,6.7699,6.8805,6.8973,6.9214,6.972,6.9214,6.9045,6.9406,6.8804,6.8636,6.9021,6.8444,6.83,6.8685,6.83,6.8011,6.7771,6.7434,6.6833,6.6039,6.5799,6.5125,6.407,6.3854,6.3153,6.2119,6.1922,6.132,6.0526,6.0309,6.0213,6.0213,6.0213,6.0069,5.981,0.0,0.0,0.0,0.0,0.0,0.0,0.0,0.0,0.0,0.0,0.0,0.0,0.0,0.0,0.0,3.5669,4.0104,4.437,4.7739,5.306,5.7808,6.1685,6.2973,6.3563,6.3503,6.3067,6.3026,6.3488,6.3026,6.3067,6.3488,6.3026,6.2781,6.2781,6.2781,6.2781,6.2781,6.2781,6.2781,6.2781,6.2781,6.2606,6.2245,6.0989,5.9182,5.7072,5.5164,5.313,0.0,0.0,4.9138,4.9389,5.0419,4.9389,4.7563,4.6201,4.3577,4.1072,4.0927,0.0,0.0,4.4831,4.7693,5.0551,5.1857,5.3596,5.5411,5.7076,5.9069,6.09,6.2254,6.3803,0.0,6.6491,6.7833,6.8955,6.9589,6.9518,6.9005,6.7955,6.7195,6.7157,6.81,6.8828,6.9576,7.0325,6.9624,6.9431,7.0204,6.9166,6.8901,6.9671,6.8949,6.8925,6.9695,6.8925,6.8492,6.8324,6.7771,6.7025,6.6135,6.5678,6.4981,6.407,6.3926,6.3274,6.2191,6.1879,6.1368,6.058,6.0333,6.0213,6.0213,6.0213,6.0213,6.0165,0.0,0.0,0.0,0.0,0.0,0.0,0.0,0.0,0.0,0.0,0.0,0.0,0.0,0.0,3.766,3.6101,4.1389,4.5272,4.6318,5.0979,5.6201,6.1745,6.1541,6.2545,6.5148,6.3625,6.361,6.5213,6.361,6.3625,6.5174,6.3569,6.2781,6.2781,6.2781,6.2781,6.2781,6.2781,6.2781,6.2781,6.2781,6.2195,6.1065,5.9408,5.6746,5.3708,5.2603,0.0,0.0,0.0,4.492,4.4418,4.6572,4.6984,0.0,4.4132,4.1299,0.0,0.0,0.0,4.5176,4.79,5.1247,5.439,5.6214,5.8479,6.0778,6.2608,6.3392,6.394,6.4573,6.6005,6.7136,6.716,6.8979,7.0161,6.9668,6.9105,6.8346,6.7266,6.6141,6.5724,0.0,6.7442,6.878,7.0277,6.9962,6.9671,6.9743,6.9671,6.9671,6.9695,6.9671,6.9671,6.9695,6.9671,6.9382,6.8877,6.8348,6.7795,6.7169,6.563,6.4644,6.4046,6.3542,6.3301,6.3181,6.2215,6.1782,6.1638,6.0622,6.0213,6.0213,6.0213,6.0213,6.0213,0.0,0.0,0.0,0.0,0.0,0.0,0.0,0.0,0.0,0.0,0.0,0.0,0.0,0.0,0.0,0.0,4.0126,4.3917,4.6781,5.2284,5.7163,6.0899,6.4174,6.5818,6.5628,6.5902,6.6339,6.6921,6.5253,6.4763,6.5253,6.361,6.2781,6.2781,6.2781,6.2781,6.2781,6.2781,6.3007,6.3274,6.1768,6.1165,6.0828,5.7298,5.3884,5.0594,0.0,0.0,0.0,0.0,0.0,0.0,4.4895,0.0,0.0,4.1595,0.0,0.0,0.0,0.0,5.0772,5.3518,5.6524,5.9239,6.0971,6.2286,6.3427,6.4401,6.3544,6.292,6.3868,6.3938,6.4401,6.625,6.8082,6.9591,7.0529,7.0182,6.8895,6.6325,6.5695,0.0,0.0,0.0,0.0,7.0153,7.0241,7.0492,7.12,7.0932,7.0907,7.1271,7.0543,7.0374,7.0786,7.0374,6.9576,6.8372,6.7121,6.6424,6.6208,6.5318,6.462,6.407,6.3902,6.3422,6.2817,6.2456,6.1903,6.1248,6.0887,6.0526,6.0213,6.0213,6.0213,6.0213,0.0,0.0,0.0,0.0,0.0,0.0,0.0,0.0,0.0,0.0,0.0,0.0,0.0,0.0,0.0,0.0,0.0,0.0,4.5684,5.0258,5.4394,5.7889,6.0782,6.2275,6.2239,6.2223,6.2855,6.4149,6.2503,6.2452,6.3846,6.2663,6.2035,6.1943,6.2455,6.2602,6.2496,6.2054,6.1818,6.1441,5.9382,5.8052,5.6947,5.3306,5.0092,0.0,0.0,0.0,0.0,0.0,0.0,0.0,0.0,0.0,0.0,0.0,0.0,0.0,0.0,5.1348,5.5379,5.834,6.0889,6.3023,6.453,6.4806,6.4856,6.5208,6.3375,6.1943,6.2672,6.1764,6.1753,6.4299,6.5937,6.7608,6.9676,6.9173,6.7926,6.623,6.5329,0.0,0.0,0.0,0.0,6.9823,7.0247,7.0849,7.1905,7.1907,7.203,7.2347,7.1492,7.1175,7.1566,7.098,7.0007,6.8605,6.723,6.6243,6.5688,6.5168,6.4524,6.3806,6.3806,6.3466,6.2817,6.2456,6.1903,6.1272,6.0863,6.0526,6.0213,6.0213,6.0213,6.0213,0.0,0.0,0.0,0.0,0.0,0.0,0.0,0.0,0.0,0.0,0.0,0.0,0.0,0.0,0.0,0.0,0.0,0.0,4.3123,4.5208,4.8367,5.2911,5.2276,5.3046,5.5782,5.3694,5.4321,5.7889,5.6014,5.7133,6.0974,6.0609,6.0181,5.9898,6.1286,6.1749,6.1391,6.0311,5.8981,5.7449,5.5742,5.3181,5.011,4.7826,0.0,0.0,0.0,0.0,0.0,0.0,0.0,0.0,0.0,0.0,0.0,0.0,0.0,4.6979,5.1866,5.5666,5.8981,6.222,6.4203,6.5609,6.6689,6.6036,6.5183,6.5107,6.2847,6.0864,0.0,0.0,5.9388,6.1562,6.3062,6.4929,6.7656,6.6689,6.6036,0.0,0.0,0.0,0.0,0.0,0.0,6.9343,0.0,7.0895,7.2027,7.2666,7.2986,7.3011,7.2371,7.2051,7.2076,7.1461,7.0577,6.952,6.8538,6.7258,6.5774,6.5183,6.4335,6.3374,6.3325,6.3301,6.3205,6.2263,6.1831,6.1686,6.0628,6.0237,6.0213,6.0213,6.0213,6.0213,0.0,0.0,0.0,0.0,0.0,0.0,0.0,0.0,0.0,0.0,0.0,0.0,0.0,0.0,0.0,0.0,0.0,0.0,4.1611,4.4406,4.7004,4.9145,5.257,5.4996,5.6221,5.5417,5.6291,5.8921,5.5262,5.4633,5.6779,5.4723,5.3686,5.3617,5.3974,5.4116,5.4009,5.3708,5.3582,5.3406,0.0,5.0193,4.9464,0.0,0.0,0.0,0.0,0.0,0.0,0.0,0.0,0.0,0.0,0.0,4.4472,0.0,0.0,5.2427,5.6194,5.9659,6.2822,6.5308,6.5911,6.5986,6.6262,6.5183,6.3751,6.2496,5.9357,5.6495,0.0,0.0,0.0,6.0297,6.4454,0.0,7.1062,7.1108,0.0,0.0,0.0,6.7543,6.6481,6.7091,0.0,0.0,7.048,7.115,7.3079,7.3748,7.4293,7.469,7.3302,7.2782,7.3203,7.1063,6.9668,6.9004,6.793,6.7212,6.6774,6.5497,6.4765,6.4476,6.3638,6.3301,6.3253,6.2648,6.2143,6.1734,6.108,6.0574,6.0213,6.0213,6.0213,6.0213,0.0,0.0,0.0,0.0,0.0,0.0,0.0,0.0,0.0,0.0,0.0,0.0,0.0,0.0,0.0,0.0,0.0,0.0,0.0,4.2331,4.3933,4.5634,4.7338,4.897,5.0486,4.9252,4.9923,5.2722,4.9599,4.9197,5.1382,5.0248,4.9627,4.9497,5.0149,5.0461,5.0494,5.0017,0.0,0.0,0.0,0.0,0.0,0.0,0.0,0.0,0.0,0.0,0.0,0.0,0.0,4.3492,4.4744,4.6301,4.8184,5.0896,0.0,5.6972,6.0351,6.3475,6.6262,6.7995,6.7618,6.6664,6.5911,6.4103,6.1768,5.8918,5.5828,0.0,0.0,0.0,0.0,0.0,0.0,0.0,7.0761,7.1238,7.1137,0.0,7.041,0.0,6.8874,6.9325,7.028,0.0,7.1535,7.227,7.4211,7.486,7.5359,7.5658,7.4236,7.3412,7.3237,7.1705,7.0571,6.9801,6.9017,6.8199,6.7462,6.6132,6.542,6.5153,0.0,6.3773,6.3506,6.304,6.2506,6.1972,6.1437,6.1025,6.0757,6.0757,6.0757,6.0799,0.0,0.0,0.0,0.0,0.0,0.0,0.0,0.0,0.0,0.0,0.0,0.0,0.0,0.0,0.0,0.0,0.0,0.0,0.0,0.0,4.0379,4.2293,4.0336,4.0277,4.2581,4.0239,4.0613,4.3873,0.0,4.271,4.5507,4.622,4.6346,4.6054,0.0,0.0,0.0,0.0,0.0,0.0,0.0,0.0,0.0,0.0,0.0,0.0,0.0,0.0,0.0,0.0,4.5167,4.5769,4.8083,4.9992,5.2076,5.539,5.8177,6.0889,6.4228,6.699,6.9175,7.0175,6.9074,6.7292,6.5383,6.2672,5.9282,5.4949,0.0,5.0243,4.8667,4.9974,5.2452,5.6068,0.0,6.4739,6.9406,7.0008,7.0711,7.2768,7.2163,7.1535,7.1535,7.1535,7.1962,7.2944,7.3092,7.372,7.5127,7.5753,7.6029,7.5878,7.4925,7.3845,7.264,7.2568,7.2062,7.0983,7.0595,6.9567,6.7956,6.7036,6.6271,6.5656,0.0,0.0,6.3946,6.3424,6.2932,6.2447,6.1949,6.1703,6.1629,6.1629,6.1555,6.1482,0.0,0.0,0.0,0.0,0.0,0.0,0.0,0.0,0.0,0.0,3.3721,3.3784,0.0,0.0,0.0,0.0,0.0,0.0,0.0,0.0,0.0,3.909,3.9169,3.9687,4.0646,0.0,0.0,0.0,0.0,0.0,4.0772,4.0542,4.0385,0.0,0.0,0.0,0.0,0.0,0.0,0.0,0.0,0.0,0.0,0.0,0.0,0.0,0.0,0.0,0.0,0.0,4.8259,4.9891,5.2553,5.4888,5.7248,6.0563,6.2521,6.4329,6.7624,6.9602,7.0706,7.0882,6.9351,6.699,6.3952,6.006,0.0,0.0,0.0,4.7481,4.6276,4.8944,5.2955,5.8102,0.0,0.0,0.0,0.0,7.3343,0.0,0.0,0.0,0.0,0.0,0.0,0.0,0.0,0.0,7.5177,7.5753,7.5677,7.4724,7.4523,7.3644,7.2062,7.2037,7.1485,7.0451,7.0396,6.972,6.8532,6.7953,6.7181,6.6221,0.0,0.0,6.453,6.3989,6.3694,6.3571,6.3097,6.2605,6.2145,6.2145,6.1875,6.1482,0.0,0.0,0.0,0.0,0.0,0.0,0.0,3.3696,3.3897,3.4979,3.4678,3.4628,3.5325,3.5139,3.5491,0.0,0.0,0.0,0.0,0.0,0.0,0.0,0.0,0.0,0.0,0.0,0.0,0.0,0.0,0.0,0.0,0.0,0.0,0.0,0.0,0.0,0.0,0.0,0.0,0.0,0.0,0.0,0.0,0.0,0.0,0.0,0.0,0.0,0.0,0.0,4.8629,5.2352,5.5993,5.888,6.1391,6.3827,6.5936,6.7989,7.0129,7.2163,7.3365,7.1861,6.9426,6.6137,6.1341,0.0,0.0,0.0,0.0,4.5146,4.4371,4.7612,0.0,0.0,0.0,0.0,0.0,0.0,0.0,0.0,0.0,0.0,0.0,0.0,0.0,0.0,0.0,0.0,7.5653,7.5953,7.5602,7.4448,7.4423,7.3745,7.2339,7.2339,7.1937,7.1108,7.0877,7.0334,6.9489,6.8688,6.7876,6.7081,6.6534,0.0,6.4992,6.4744,6.447,6.4197,6.3965,6.3717,6.3426,6.3426,6.3252,6.307,0.0,0.0,0.0,0.0,0.0,0.0,0.0,3.4327,3.4527,3.5859,3.5958,3.5832,3.5707,3.5205,3.4981,0.0,0.0,0.0,0.0,0.0,0.0,0.0,0.0,0.0,0.0,0.0,0.0,0.0,0.0,0.0,0.0,0.0,0.0,0.0,0.0,0.0,0.0,0.0,0.0,0.0,0.0,0.0,0.0,0.0,0.0,0.0,0.0,0.0,0.0,0.0,4.7952,5.2393,5.6746,6.0663,6.3952,6.5208,6.7819,7.0577,7.1761,7.3946,7.5251,7.2565,6.9325,6.5208,5.9106,5.411,0.0,0.0,4.3915,4.3388,4.3215,0.0,4.9715,0.0,5.5906,0.0,0.0,0.0,0.0,0.0,0.0,0.0,0.0,0.0,0.0,0.0,0.0,0.0,7.6104,7.6004,7.5427,7.4448,7.4297,7.3745,7.2693,7.2693,7.2439,7.1887,7.146,7.0907,7.0275,6.925,6.8447,6.7769,6.7216,0.0,0.0,6.5459,6.5208,6.4873,6.4873,6.4798,6.4672,6.4672,6.4597,6.4496,0.0,0.0,0.0,0.0,0.0,0.0,0.0,3.4653,3.538,3.7488,3.7337,3.6859,3.6356,3.5782,3.5232,0.0,0.0,0.0,0.0,0.0,0.0,0.0,0.0,0.0,0.0,0.0,0.0,0.0,0.0,0.0,0.0,0.0,0.0,0.0,0.0,0.0,0.0,0.0,0.0,0.0,0.0,0.0,0.0,0.0,0.0,0.0,0.0,0.0,0.0,0.0,0.0,4.8328,5.2268,5.8202,6.3726,6.3877,0.0,0.0,7.2213,7.3897,7.4725,7.2464,6.9024,6.4605,5.8466,0.0,0.0,4.4593,4.3065,4.2637,4.3539,0.0,0.0,0.0,0.0,5.8554,0.0,0.0,0.0,0.0,0.0,0.0,0.0,0.0,0.0,0.0,0.0,0.0,0.0,7.5578,7.4976,7.4423,7.392,7.3368,7.2693,7.2693,7.2439,7.1912,7.1861,7.1284,7.03,6.9652,6.8753,6.7769,0.0,0.0,0.0,6.6036,6.6011,6.5961,6.5961,6.566,6.5208,6.5208,6.4949,6.4496,0.0,0.0,0.0,0.0,0.0,0.0,3.4527,3.4703,3.538,3.7262,3.7613,3.7462,3.6934,3.6659,3.6031,3.4803,0.0,0.0,0.0,0.0,0.0,0.0,0.0,0.0,0.0,0.0,0.0,0.0,0.0,0.0,0.0,0.0,0.0,0.0,0.0,0.0,0.0,0.0,0.0,0.0,0.0,0.0,0.0,0.0,0.0,0.0,0.0,0.0,0.0,0.0,0.0,0.0,4.6276,5.1172,0.0,0.0,6.5124,6.8949,7.1912,7.4674,7.5854,7.2288,6.8497,6.3852,5.7097,0.0,4.6928,4.3915,4.2713,4.2411,4.319,4.4217,4.61,4.954,5.0544,0.0,5.9885,0.0,0.0,0.0,0.0,0.0,0.0,0.0,0.0,0.0,0.0,0.0,0.0,7.5854,7.5477,7.4876,7.465,7.4146,7.3268,7.3242,7.2791,7.1912,7.156,7.1008,7.0275,6.9351,6.8522,6.7769,0.0,0.0,0.0,6.6112,6.6112,6.6112,6.6112,6.5986,6.5785,6.5785,6.5634,6.5459,0.0,0.0,0.0,0.0,0.0,3.3467,3.4527,3.4703,3.523,3.6758,3.7287,3.7362,3.7009,3.6659,3.6107,3.5278,3.538,0.0,0.0,0.0,0.0,0.0,0.0,0.0,0.0,0.0,0.0,0.0,0.0,0.0,0.0,0.0,0.0,0.0,0.0,0.0,0.0,0.0,0.0,0.0,0.0,0.0,0.0,0.0,0.0,0.0,0.0,0.0,0.0,0.0,0.0,0.0,0.0,0.0,0.0,0.0,6.2295,6.7015,7.0556,7.4071,7.5829,7.2037,6.7919,6.3023,0.0,0.0,4.6321,4.3592,4.2562,4.2336,4.2914,4.374,4.4966,4.6798,4.7826,5.0293,5.5691,5.7549,0.0,0.0,0.0,0.0,0.0,0.0,0.0,0.0,0.0,0.0,0.0,7.6104,7.5728,7.4976,7.4776,7.4297,7.3343,7.3343,7.2866,7.1887,7.1359,7.0853,7.0275,6.9125,6.8321,6.7769,0.0,0.0,0.0,6.6112,6.6112,6.6112,6.6112,6.6112,6.6112,6.6112,6.6112,6.6112,0.0,0.0,0.0,0.0,0.0,0.0,3.4527,3.4703,3.5127,3.6279,3.6406,3.6406,3.6405,3.5403,3.5177,3.6304,3.5832,0.0,0.0,0.0,0.0,0.0,0.0,0.0,0.0,0.0,0.0,3.8894,3.8894,0.0,0.0,0.0,0.0,0.0,0.0,0.0,0.0,0.0,0.0,0.0,0.0,0.0,0.0,0.0,0.0,0.0,0.0,0.0,0.0,0.0,0.0,0.0,0.0,0.0,0.0,0.0,5.8453,6.515,6.7894,7.1485,7.392,7.1661,6.7367,6.2094,0.0,0.0,4.6321,4.3592,4.2562,4.2336,4.2914,4.3438,4.4543,4.6747,4.851,5.1322,5.6282,5.8453,0.0,0.0,0.0,0.0,0.0,0.0,0.0,0.0,0.0,0.0,0.0,7.6104,7.5602,7.4448,7.3895,7.3318,7.2693,7.2693,7.2464,7.1887,7.1359,7.0853,7.0275,6.9125,6.8321,0.0,0.0,0.0,0.0,6.6112,6.6112,6.6112,6.6112,6.6112,6.6112,6.6112,6.6112,6.6112,0.0,0.0,0.0,0.0,0.0,0.0,0.0,3.3922,3.4424,3.5152,3.5579,3.5956,3.638,3.5378,3.5152,3.6281,3.5504,0.0,0.0,0.0,0.0,0.0,0.0,0.0,0.0,0.0,3.8517,3.8291,3.907,3.9521,0.0,0.0,0.0,0.0,0.0,0.0,0.0,0.0,0.0,0.0,0.0,0.0,0.0,0.0,0.0,0.0,0.0,0.0,0.0,0.0,0.0,0.0,0.0,0.0,0.0,4.5573,0.0,0.0,6.0989,6.4404,6.6463,6.3827,6.114,5.7813,5.2854,0.0,4.6321,4.3592,4.2864,4.2788,4.2964,4.314,4.4217,4.7179,4.8435,5.0117,0.0,0.0,0.0,0.0,0.0,0.0,0.0,0.0,0.0,0.0,0.0,0.0,0.0,7.5502,7.5327,7.4951,7.4751,7.4272,7.3318,7.2941,7.2263,7.1334,7.0828,7.0229,6.9677,6.8949,0.0,0.0,0.0,0.0,0.0,6.6112,6.6112,6.6112,6.6112,6.6112,6.6112,6.6112,6.6112,6.6112,0.0,0.0,0.0,0.0,0.0,0.0,0.0,3.3391,3.3721,3.4048,3.4377,3.4901,3.5655,3.4751,3.4625,3.5931,3.5228,0.0,0.0,0.0,0.0,0.0,0.0,0.0,0.0,3.814,3.8818,3.8642,3.9546,3.9998,3.9998,3.9998,3.9898,0.0,0.0,0.0,0.0,0.0,0.0,0.0,0.0,0.0,3.9697,0.0,0.0,0.0,0.0,0.0,0.0,0.0,0.0,0.0,0.0,0.0,0.0,0.0,0.0,0.0,0.0,5.9885,6.1994,6.0236,5.7926,0.0,0.0,0.0,4.5849,4.3463,4.3014,4.3014,4.3014,4.319,4.4091,4.6577,0.0,0.0,0.0,0.0,0.0,0.0,0.0,0.0,0.0,0.0,0.0,0.0,0.0,0.0,0.0,0.0,7.5002,7.4623,7.4623,7.4171,7.3268,7.2715,7.1962,7.1083,7.0577,6.9978,6.9381,6.9055,0.0,0.0,0.0,0.0,0.0,6.6187,6.6112,6.6112,6.6112,6.6112,6.6112,6.6112,6.6112,6.6112,0.0,0.0,0.0,0.0,0.0,0.0,0.0,3.309,3.309,3.309,3.309,3.3492,3.4477,3.3696,3.3721,3.5232,0.0,0.0,0.0,0.0,0.0,0.0,0.0,0.0,0.0,3.8291,3.912,3.9572,4.0174,4.0424,4.0424,4.0424,4.0199,3.9697,3.9697,0.0,0.0,0.0,0.0,0.0,0.0,0.0,0.0,0.0,0.0,0.0,0.0,0.0,0.0,0.0,0.0,0.0,0.0,0.0,0.0,0.0,0.0,0.0,0.0,0.0,0.0,0.0,0.0,0.0,0.0,0.0,0.0,4.3341,4.3014,4.3039,4.3115,4.3438,4.4166,0.0,0.0,0.0,0.0,0.0,0.0,0.0,0.0,0.0,0.0,0.0,0.0,0.0,0.0,0.0,0.0,0.0,7.4674,7.3569,7.3544,7.3268,7.2643,7.2113,7.156,7.1008,7.0501,6.9928,6.9406,6.9406,0.0,0.0,0.0,0.0,0.0,6.6338,6.6112,6.6112,6.6112,6.6112,6.6112,6.6112,6.6086,6.6061,0.0,0.0,0.0,0.0,0.0,0.0,0.0,0.0,0.0,0.0,3.309,3.319,3.3467,3.3266,3.3416,0.0,0.0,0.0,0.0,0.0,0.0,0.0,0.0,0.0,0.0,3.809,3.8743,3.8391,3.9396,3.9898,3.9898,3.9898,3.9823,3.9697,3.9697,3.9697,0.0,0.0,0.0,0.0,0.0,0.0,0.0,0.0,0.0,0.0,3.9697,3.9697,0.0,0.0,0.0,0.0,0.0,0.0,0.0,0.0,4.1708,4.314,4.5799,0.0,0.0,0.0,4.8611,4.7857,0.0,0.0,0.0,0.0,0.0,4.3266,4.4091,4.3664,4.4271,0.0,0.0,0.0,0.0,0.0,0.0,0.0,0.0,0.0,0.0,0.0,0.0,0.0,0.0,0.0,0.0,0.0,7.4096,7.2966,7.2894,7.2665,7.2113,7.156,7.1008,7.0501,6.9903,6.9531,6.9406,6.9406,0.0,0.0,0.0,0.0,6.6312,6.6162,6.6112,6.6112,6.6112,6.6112,6.6112,6.6112,6.5835,6.5534,0.0,0.0,0.0,0.0,0.0,0.0,0.0,0.0,0.0,0.0,0.0,3.309,3.309,3.309,0.0,0.0,0.0,0.0,0.0,0.0,0.0,0.0,0.0,3.6683,3.6405,3.7763,3.8442,3.8391,3.9521,4.0074,4.0074,4.0074,3.9948,3.9697,3.9697,3.9697,0.0,0.0,0.0,0.0,0.0,0.0,0.0,0.0,0.0,0.0,3.9697,3.9697,0.0,4.0275,4.0802,4.1254,0.0,0.0,0.0,0.0,4.1505,4.1957,4.2838,4.4869,4.6647,4.6326,4.6075,4.5773,4.5146,0.0,0.0,0.0,0.0,4.3237,4.4091,0.0,0.0,0.0,0.0,0.0,0.0,0.0,0.0,0.0,0.0,0.0,0.0,0.0,0.0,0.0,0.0,0.0,0.0,0.0,7.3895,7.2718,7.2693,7.2417,7.1912,7.1359,7.0681,6.9878,6.9556,6.9255,6.9029,6.9029,0.0,0.0,0.0,0.0,6.6488,6.6212,6.6112,6.6112,6.6112,6.6112,6.6086,6.5835,6.571,6.5685,0.0,0.0,0.0,0.0,0.0,0.0,0.0,0.0,0.0,0.0,0.0,0.0,0.0,0.0,0.0,0.0,0.0,0.0,0.0,0.0,0.0,0.0,0.0,3.6455,3.6531,3.7487,3.8291,3.8894,4.0074,4.0625,4.0625,4.0625,4.03,3.9697,3.9697,3.9697,0.0,0.0,0.0,0.0,0.0,0.0,0.0,0.0,0.0,0.0,0.0,0.0,0.0,4.075,4.1455,4.2009,4.2487,0.0,0.0,0.0,0.0,0.0,4.2235,4.4346,4.6351,4.6446,4.5849,4.5221,4.5121,0.0,0.0,0.0,0.0,0.0,0.0,0.0,0.0,0.0,0.0,0.0,0.0,0.0,0.0,0.0,0.0,0.0,0.0,0.0,0.0,0.0,0.0,0.0,0.0,0.0,0.0,7.2891,7.269,7.2339,7.1786,7.1309,7.048,6.928,6.928,6.8979,6.8497,6.8497,0.0,0.0,0.0,0.0,6.6815,6.6312,6.6112,6.6112,6.6011,6.5986,6.5936,6.5459,6.5534,6.5785,0.0,0.0,0.0,0.0,0.0,0.0,0.0,0.0,0.0,0.0,0.0,0.0,0.0,0.0,0.0,0.0,0.0,0.0,0.0,0.0,0.0,3.6405,3.6405,3.6607,3.706,3.7688,3.8291,3.8894,4.0424,4.1202,4.1202,4.1202,4.065,3.9697,3.9697,3.9697,3.9697,0.0,0.0,0.0,0.0,0.0,0.0,0.0,0.0,0.0,0.0,0.0,0.0,3.9898,4.0325,4.0777,4.0877,0.0,0.0,0.0,0.0,0.0,4.3137,4.4895,4.5874,4.4066,4.384,4.394,4.3492,0.0,0.0,0.0,0.0,0.0,0.0,0.0,0.0,0.0,0.0,0.0,0.0,0.0,0.0,0.0,0.0,0.0,0.0,0.0,0.0,0.0,0.0,0.0,0.0,0.0,0.0,7.3468,7.2539,7.1761,7.1209,7.1133,7.0305,6.8703,6.8703,6.8447,6.7919,6.7919,6.7668,0.0,0.0,6.6689,6.6237,6.6137,6.6112,6.6061,6.5609,6.5409,6.5409,6.5333,6.5057,6.4748,0.0,0.0,0.0,0.0,0.0,0.0,0.0,0.0,0.0,0.0,0.0,0.0,0.0,0.0,0.0,0.0,0.0,0.0,0.0,0.0,0.0,3.6808,3.6833,3.6959,3.721,3.8316,3.9195,3.9747,4.1404,4.2233,4.2208,4.1578,4.0876,4.0124,3.9823,3.9697,3.9697,3.9697,0.0,0.0,0.0,0.0,0.0,0.0,0.0,0.0,0.0,0.0,0.0,0.0,4.0725,4.0976,4.1304,0.0,0.0,0.0,0.0,0.0,4.2562,4.3718,4.4418,4.3966,4.4744,4.5267,4.4141,0.0,0.0,0.0,0.0,0.0,0.0,0.0,0.0,0.0,0.0,0.0,0.0,0.0,0.0,0.0,0.0,0.0,0.0,0.0,0.0,0.0,0.0,0.0,0.0,0.0,0.0,0.0,7.2339,7.1636,7.1083,7.0506,6.9526,6.817,6.817,6.7894,6.7367,6.7367,6.7216,6.6965,0.0,6.6363,6.6086,6.5785,6.566,6.5609,6.5057,6.4898,6.4898,6.4898,6.4547,6.4094,0.0,0.0,0.0,0.0,0.0,0.0,0.0,0.0,0.0,0.0,0.0,0.0,0.0,0.0,0.0,0.0,0.0,0.0,0.0,0.0,3.6582,3.6984,3.7236,3.7487,3.7764,3.917,4.0275,4.1103,4.276,4.3467,4.3137,4.2032,4.1076,4.03,3.9873,3.9697,3.9697,3.9697,3.9697,0.0,0.0,0.0,0.0,0.0,0.0,0.0,0.0,0.0,0.0,0.0,0.0,0.0,0.0,0.0,0.0,4.1833,4.1379,4.0951,4.2235,4.2964,4.3564,4.4389,0.0,4.6245,4.5995,0.0,0.0,0.0,0.0,0.0,0.0,0.0,0.0,0.0,0.0,0.0,0.0,0.0,0.0,0.0,0.0,0.0,0.0,0.0,0.0,0.0,0.0,0.0,0.0,0.0,0.0,0.0,7.2062,7.146,7.0953,6.9677,6.8603,6.7794,6.7668,6.7317,6.6764,6.6764,6.6764,6.6739,6.6312,6.6036,6.5886,6.5459,6.5208,6.5032,6.4547,6.432,6.432,6.432,6.4028,6.3701,0.0,0.0,0.0,0.0,0.0,0.0,0.0,0.0,0.0,0.0,0.0,0.0,0.0,0.0,0.0,0.0,0.0,0.0,0.0,0.0,3.643,3.6455,3.7387,3.8442,3.9496,4.0149,4.1229,4.2838,4.4522,4.4769,4.3714,4.2637,4.1281,3.9747,3.9722,3.9697,3.9697,3.9697,3.9697,3.9697,0.0,0.0,0.0,0.0,0.0,0.0,0.0,0.0,0.0,0.0,0.0,0.0,0.0,0.0,4.065,4.1202,4.1327,4.1603,4.3237,4.4091,4.4489,4.4564,4.4342,0.0,4.9056,0.0,0.0,0.0,0.0,0.0,0.0,0.0,0.0,0.0,0.0,0.0,0.0,0.0,0.0,0.0,0.0,0.0,0.0,0.0,0.0,0.0,0.0,0.0,0.0,0.0,0.0,0.0,0.0,7.0882,7.0376,6.8723,6.7869,6.7794,6.7292,6.6739,6.6162,6.6162,6.6162,6.6162,6.6137,6.5835,6.5333,6.5308,6.5024,6.4521,6.3952,6.3751,6.3751,6.3751,6.3726,6.3701,0.0,0.0,0.0,0.0,0.0,0.0,0.0,0.0,0.0,0.0,0.0,0.0,0.0,0.0,0.0,0.0,0.0,0.0,0.0,3.6056,3.6532,3.6884,3.7613,3.8542,3.9672,4.0929,4.2361,4.3991,4.4995,4.5095,4.4238,4.2484,4.1128,4.0199,3.9848,3.9697,3.9697,3.9697,3.9697,3.9697,3.9697,0.0,0.0,0.0,0.0,0.0,0.0,0.0,0.0,0.0,4.0099,4.0224,4.03,4.0625,4.1051,4.1225,4.1076,4.1001,4.198,4.3134,4.4292,4.497,0.0,0.0,0.0,0.0,0.0,0.0,0.0,0.0,0.0,0.0,0.0,0.0,0.0,0.0,0.0,0.0,0.0,0.0,0.0,0.0,0.0,0.0,0.0,0.0,0.0,0.0,0.0,0.0,0.0,0.0,0.0,7.0305,6.9752,6.8447,6.7618,6.7292,6.6714,6.6338,6.6112,6.6112,6.5936,6.5609,6.5609,6.5283,6.4798,6.4429,6.4178,6.3927,6.3375,6.3149,6.3149,6.3149,6.3149,6.3149,0.0,0.0,0.0,0.0,0.0,0.0,0.0,0.0,0.0,0.0,0.0,0.0,0.0,0.0,0.0,0.0,0.0,0.0,3.5207,3.5956,3.6557,3.6934,3.7462,3.8266,3.9421,4.108,4.2785,4.4589,4.5196,4.502,4.4066,4.2181,4.1026,4.0474,4.0124,3.9948,3.9948,3.9948,3.9848,3.9697,3.9697,3.9697,0.0,0.0,0.0,0.0,0.0,0.0,0.0,0.0,4.0099,4.0249,4.0224,4.07,4.1302,4.1302,4.1051,4.0826,4.1202,4.213,4.3338,0.0,0.0,0.0,0.0,0.0,0.0,0.0,0.0,0.0,0.0,0.0,0.0,0.0,0.0,0.0,0.0,0.0,0.0,0.0,0.0,0.0,0.0,0.0,0.0,0.0,0.0,0.0,0.0,0.0,0.0,0.0,0.0,6.9752,6.9155,6.8095,6.7342,6.7009,6.6388,6.6112,6.6112,6.5936,6.5634,6.5283,6.5107,6.4731,6.4245,6.3827,6.3576,6.3375,6.2932,6.2781,6.2781,6.2781,6.2781,6.2781,0.0,0.0,0.0,0.0,0.0,0.0,0.0,0.0,0.0,0.0,0.0,0.0,0.0,0.0,0.0,0.0,0.0,0.0,3.4703,3.5778,3.6405,3.6405,3.6909,3.7738,3.8869,4.0474,4.2381,4.4589,4.5196,4.4647,4.2964,4.1804,4.1026,4.0499,4.0499,4.0499,4.0499,4.0499,4.0199,3.9697,3.9697,3.9697,0.0,0.0,0.0,0.0,0.0,0.0,0.0,0.0,4.0149,3.9898,4.0951,4.1302,4.13,4.1302,4.1302,4.1327,4.1302,4.1327,4.1729,0.0,0.0,0.0,0.0,0.0,0.0,0.0,0.0,0.0,0.0,0.0,0.0,0.0,0.0,0.0,0.0,0.0,0.0,0.0,0.0,0.0,0.0,0.0,0.0,0.0,0.0,0.0,0.0,0.0,0.0,0.0,0.0,0.0,6.8597,6.7562,6.7052,6.7052,6.6431,6.6112,6.6086,6.5534,6.5283,6.5258,6.4748,6.422,6.3676,6.3676,6.335,6.2781,6.2781,6.2781,6.2781,6.2781,6.2781,6.2781,0.0,0.0,0.0,0.0,0.0,0.0,0.0,0.0,0.0,0.0,0.0,0.0,0.0,0.0,0.0,0.0,0.0,0.0,3.4703,3.5778,3.6405,3.6405,3.6909,3.7513,3.8241,4.0248,4.2206,4.4041,4.4217,4.3463,4.1779,4.1076,4.065,4.0499,4.0901,4.0851,4.0499,4.0499,4.0199,3.9722,4.0124,4.0049,3.9747,0.0,0.0,0.0,0.0,0.0,0.0,0.0,0.0,0.0,4.0625,4.1555,4.2333,4.1528,4.1605,4.1831,4.1428,4.2155,0.0,0.0,0.0,0.0,0.0,0.0,0.0,0.0,0.0,0.0,0.0,0.0,0.0,0.0,0.0,0.0,0.0,0.0,0.0,0.0,0.0,0.0,0.0,0.0,0.0,0.0,0.0,0.0,0.0,0.0,0.0,0.0,0.0,0.0,6.9248,7.0157,7.0387,7.0004,6.8211,6.6889,6.6086,6.5534,6.5082,6.4722,6.4153,6.3601,6.3099,6.3099,6.2932,6.2781,6.2781,6.2781,6.2781,6.2781,6.2781,6.2781,0.0,0.0,0.0,0.0,0.0,0.0,0.0,0.0,0.0,0.0,0.0,0.0,0.0,0.0,0.0,0.0,0.0,0.0,0.0,3.5778,3.6405,3.6405,3.6909,3.7638,3.8642,4.0399,4.1679,4.2484,4.2936,4.2409,4.0976,4.1128,4.1178,4.1204,4.2181,4.208,4.1178,4.1404,4.0927,4.0074,4.06,4.0625,4.0349,0.0,0.0,0.0,0.0,0.0,0.0,0.0,0.0,0.0,4.0424,4.1204,4.1907,4.1453,4.1553,4.1856,4.1957,4.3009,0.0,0.0,0.0,0.0,0.0,0.0,0.0,0.0,0.0,0.0,0.0,0.0,0.0,0.0,0.0,0.0,0.0,0.0,0.0,0.0,0.0,0.0,0.0,0.0,0.0,0.0,0.0,0.0,0.0,0.0,0.0,0.0,0.0,0.0,7.0172,7.0973,7.1203,7.0891,6.9254,6.8252,6.7685,6.5588,6.4479,6.4128,6.3576,6.3149,6.2781,6.2781,6.2781,6.2781,6.2781,6.2781,6.2781,6.2781,6.2781,6.2781,0.0,0.0,0.0,0.0,0.0,0.0,0.0,0.0,0.0,0.0,0.0,0.0,0.0,0.0,0.0,0.0,0.0,0.0,0.0,0.0,3.638,3.6306,3.6884,3.7964,3.9597,4.0625,4.0926,4.0424,4.1557,4.1557,4.0449,4.1708,4.2288,4.2336,4.3915,4.374,4.2286,4.2738,4.1982,4.0549,4.1152,4.1327,4.1225,4.1275,0.0,0.0,0.0,0.0,0.0,0.0,0.0,0.0,4.035,4.0524,4.065,4.1102,4.1383,4.1766,4.2929,0.0,0.0,5.2147,0.0,0.0,0.0,0.0,0.0,0.0,0.0,0.0,0.0,0.0,0.0,0.0,0.0,0.0,0.0,0.0,0.0,0.0,0.0,0.0,0.0,0.0,0.0,0.0,0.0,0.0,0.0,0.0,0.0,0.0,7.2478,7.1907,7.1296,7.0884,7.0663,0.0,6.9906,6.9828,7.0238,6.607,6.4064,6.3823,6.3089,6.2781,6.2781,6.2781,6.2781,6.2781,6.2781,6.2781,6.2781,6.2781,6.2781,6.2781,0.0,0.0,0.0,0.0,0.0,0.0,0.0,0.0,0.0,0.0,0.0,0.0,0.0,0.0,0.0,0.0,0.0,0.0,0.0,0.0,3.6205,3.5707,3.6659,3.7788,3.9044,3.9697,3.9998,3.9873,4.0978,4.0953,3.9923,4.1909,4.2838,4.2889,4.4091,4.394,4.2813,4.2487,4.1658,4.0601,4.158,4.1455,4.0725,4.1152,4.07,0.0,0.0,0.0,0.0,0.0,0.0,0.0,4.0449,4.0775,4.1076,4.075,4.1894,4.3566,4.4926,4.7143,0.0,0.0,6.4092,0.0,0.0,0.0,0.0,0.0,0.0,0.0,0.0,0.0,0.0,0.0,0.0,0.0,0.0,0.0,0.0,0.0,0.0,0.0,0.0,0.0,0.0,0.0,0.0,0.0,0.0,0.0,0.0,7.298,7.2813,7.245,7.1799,7.2981,7.3627,0.0,7.1644,7.0788,7.0851,6.8578,6.6609,6.4904,6.3417,6.2781,6.2781,6.2781,6.2781,6.2781,6.2781,6.2781,6.2781,6.2781,6.2781,6.2781,0.0,0.0,0.0,0.0,0.0,0.0,0.0,0.0,0.0,0.0,0.0,0.0,0.0,0.0,0.0,0.0,0.0,0.0,0.0,0.0,3.6507,3.6685,3.7262,3.8115,3.9271,3.9546,3.9697,3.9697,4.0275,4.0374,4.0124,4.1833,4.2738,4.3065,4.4141,4.3865,4.2587,4.2338,4.1708,4.0951,4.1833,4.1833,4.1354,4.1907,4.1279,4.0099,0.0,0.0,0.0,0.0,0.0,0.0,0.0,0.0,4.0851,4.0575,4.1504,4.3141,4.5564,0.0,0.0,6.1744,0.0,7.4024,0.0,0.0,0.0,0.0,0.0,0.0,0.0,0.0,0.0,0.0,0.0,0.0,0.0,0.0,0.0,0.0,0.0,0.0,0.0,0.0,0.0,0.0,0.0,0.0,0.0,7.5813,7.4688,7.3717,7.3689,7.3403,7.2775,7.3615,7.4082,7.4046,7.2522,7.1842,7.1768,6.9299,6.7565,6.6417,6.5542,6.4697,6.3988,6.3988,6.3503,6.2781,6.2781,6.2781,6.2781,6.2781,6.2781,6.2781,0.0,0.0,0.0,0.0,0.0,0.0,0.0,0.0,0.0,0.0,0.0,0.0,0.0,0.0,0.0,0.0,0.0,0.0,0.0,0.0,0.0,3.7814,3.7764,3.8291,3.9521,3.9546,3.9597,3.9697,3.9697,4.0074,0.0,4.1959,4.2713,4.319,4.4166,4.3765,4.2338,4.2135,4.1706,4.1227,4.1806,4.1984,4.1934,4.2411,4.1656,0.0,0.0,0.0,0.0,0.0,0.0,0.0,0.0,0.0,4.0499,4.0499,4.1035,4.235,4.583,5.022,5.6115,6.5659,7.1238,0.0,7.6035,0.0,0.0,0.0,0.0,0.0,0.0,0.0,0.0,0.0,0.0,0.0,0.0,0.0,0.0,0.0,0.0,0.0,0.0,0.0,0.0,0.0,0.0,0.0,7.6355,7.5679,7.504,7.4372,7.4343,7.4053,7.3443,7.3443,7.3443,7.3443,7.2892,7.2602,7.2495,6.9765,6.8387,6.8121,6.7817,6.6933,6.57,6.57,6.4896,6.3665,6.3665,6.3665,6.3665,6.3665,6.3665,6.3665,0.0,0.0,0.0,0.0,0.0,0.0,0.0,0.0,0.0,0.0,0.0,0.0,0.0,0.0,0.0,0.0,0.0,0.0,0.0,0.0,0.0,3.7261,3.6859,3.7361,3.8969,3.8994,3.9245,3.9697,3.9697,0.0,0.0,0.0,0.0,4.3714,4.4313,4.3966,4.2838,4.1856,4.1102,4.065,4.1202,4.1127,4.0752,4.0827,0.0,0.0,0.0,0.0,0.0,0.0,0.0,0.0,0.0,0.0,0.0,4.0499,4.1565,4.3441,4.6623,0.0,6.2891,0.0,7.1654,7.4082,0.0,0.0,0.0,0.0,0.0,0.0,0.0,0.0,0.0,0.0,0.0,0.0,0.0,0.0,0.0,0.0,0.0,0.0,0.0,0.0,0.0,0.0,0.0,0.0,7.5621,7.5011,7.4372,7.3763,7.3734,7.3414,7.2747,7.2747,7.2747,7.2747,7.266,7.2602,7.2566,7.2143,7.1174,6.9784,6.8311,6.7587,6.7395,6.7395,6.7242,6.7049,6.7049,6.7049,6.7049,6.7049,6.7049,6.7049,0.0,0.0,0.0,0.0,0.0,0.0,0.0,0.0,0.0,0.0,0.0,0.0,0.0,0.0,0.0,0.0,0.0,0.0,0.0,0.0,0.0,3.7185,3.6984,3.7487,3.8869,3.8894,3.917,3.9697,0.0,0.0,0.0,4.374,4.4267,0.0,0.0,0.0,4.2487,4.1354,4.0725,4.0524,4.075,4.07,4.0524,0.0,0.0,0.0,0.0,0.0,0.0,0.0,0.0,0.0,0.0,0.0,0.0,0.0,4.1643,4.4203,5.0023,5.6421,6.2732,0.0,7.0889,7.295,7.4576,0.0,0.0,0.0,0.0,0.0,0.0,0.0,0.0,0.0,0.0,0.0,0.0,0.0,0.0,0.0,0.0,0.0,0.0,0.0,0.0,0.0,0.0,7.4488,7.4459,7.4169,7.3705,7.3066,7.2718,7.2369,7.2079,7.2079,7.2282,7.2602,7.2602,7.2602,7.2602,7.2602,7.2208,7.153,7.0781,6.9941,6.9093,6.9093,6.8566,6.7702,6.7702,6.7702,6.7702,6.7702,6.7702,6.7702,0.0,0.0,0.0,0.0,0.0,0.0,0.0,0.0,0.0,0.0,0.0,0.0,0.0,0.0,0.0,0.0,0.0,0.0,0.0,0.0,0.0,3.6984,3.7135,3.7663,3.8642,3.8818,3.917,3.9697,0.0,0.0,4.3212,4.4166,4.4966,0.0,4.4518,0.0,0.0,0.0,0.0,0.0,4.065,4.0499,0.0,0.0,0.0,0.0,0.0,0.0,0.0,0.0,0.0,0.0,0.0,0.0,0.0,0.0,0.0,4.4783,5.1488,5.6194,6.0496,6.5809,6.906,7.144,0.0,0.0,0.0,0.0,0.0,0.0,0.0,0.0,0.0,0.0,0.0,0.0,0.0,0.0,0.0,0.0,0.0,0.0,0.0,0.0,0.0,0.0,0.0,7.3821,7.3385,7.3211,7.2805,7.2166,7.1673,7.1534,7.1708,7.1708,7.194,7.2369,7.2369,7.2369,7.2398,7.2544,7.2602,7.2602,7.2602,7.1928,7.0809,7.0809,7.0053,6.898,6.898,6.898,6.898,6.898,6.898,6.898,0.0,0.0,0.0,0.0,0.0,0.0,0.0,0.0,0.0,0.0,0.0,0.0,0.0,0.0,3.2441,3.304,0.0,0.0,0.0,0.0,0.0,3.6455,3.6934,0.0,3.804,3.8617,3.917,0.0,0.0,0.0,4.3765,4.4342,4.6024,4.8542,4.7375,4.5995,4.4364,0.0,0.0,0.0,0.0,0.0,0.0,0.0,0.0,0.0,0.0,0.0,0.0,0.0,0.0,0.0,0.0,0.0,0.0,0.0,0.0,0.0,4.8573,5.2965,5.7536,6.1454,6.5751,6.9466,0.0,0.0,0.0,0.0,0.0,0.0,0.0,0.0,0.0,0.0,0.0,0.0,0.0,0.0,0.0,0.0,0.0,0.0,0.0,0.0,0.0,0.0,0.0,7.2718,7.266,7.2108,7.1469,7.0796,7.0767,7.1063,7.1708,7.1708,7.1737,7.1766,7.1766,7.1766,7.1766,7.234,7.2602,7.2602,7.2602,7.253,7.2459,7.2459,7.2423,7.2351,7.2351,7.2351,7.2351,7.2351,7.2351,7.2351,0.0,0.0,0.0,0.0,0.0,0.0,0.0,0.0,0.0,0.0,0.0,0.0,0.0,3.2416,3.2993,3.3545,3.4603,0.0,0.0,0.0,0.0,3.6909,3.711,3.7637,3.8567,3.8793,3.917,0.0,0.0,4.0927,4.3316,4.4192,4.5547,4.7154,4.6401,4.5748,4.502,4.2635,0.0,0.0,0.0,0.0,0.0,0.0,0.0,0.0,0.0,0.0,0.0,0.0,0.0,0.0,0.0,0.0,0.0,0.0,0.0,4.6913,4.9933,5.2316,5.5182,6.0264,6.3661,6.6444,6.9234,7.1469,0.0,0.0,0.0,0.0,0.0,0.0,0.0,0.0,0.0,0.0,0.0,0.0,0.0,0.0,0.0,0.0,0.0,0.0,0.0,0.0,0.0,0.0,7.1376,7.1179,7.0947,7.0709,7.0308,7.0221,7.0488,7.0047,7.025,7.1063,7.1063,7.1063,7.1092,7.1731,7.1992,7.1992,7.1992,7.1992,7.205,7.2456,7.2369,7.205,7.2456,7.2602,7.2602,7.2602,7.2602,7.2602,0.0,0.0,0.0,0.0,0.0,0.0,0.0,0.0,0.0,0.0,0.0,0.0,0.0,0.0,3.3169,3.4098,3.4828,3.5556,3.6331,3.6581,3.6833,3.7185,3.7562,3.814,3.8869,3.8894,0.0,0.0,0.0,0.0,0.0,4.3564,4.4769,4.5999,4.5246,4.5422,0.0,0.0,0.0,4.2632,0.0,0.0,4.1679,0.0,0.0,0.0,0.0,0.0,0.0,0.0,0.0,0.0,0.0,0.0,0.0,0.0,0.0,0.0,4.9581,0.0,0.0,0.0,6.0874,6.3078,6.6937,0.0,0.0,0.0,0.0,0.0,0.0,0.0,0.0,0.0,0.0,0.0,0.0,0.0,0.0,0.0,0.0,0.0,0.0,0.0,0.0,0.0,0.0,0.0,7.0071,7.0042,6.9873,6.9437,6.9234,6.9181,6.9181,6.8712,6.8997,7.0042,7.0042,7.0192,7.0424,7.1063,7.1353,7.1353,7.1353,7.1505,7.1708,7.1905,7.1847,7.1737,7.2137,7.2427,7.2602,7.2602,7.2602,7.2602,0.0,0.0,0.0,0.0,0.0,0.0,0.0,0.0,0.0,0.0,0.0,0.0,0.0,0.0,0.0,3.4628,3.4778,3.5253,3.6331,3.6909,3.7235,3.7261,0.0,0.0,0.0,0.0,0.0,0.0,0.0,3.9722,0.0,0.0,4.379,4.5321,4.4242,4.5271,4.7657,0.0,4.5422,4.5271,0.0,4.2263,4.2595,0.0,0.0,0.0,4.3979,4.3943,0.0,0.0,0.0,0.0,0.0,0.0,0.0,0.0,0.0,0.0,0.0,0.0,0.0,0.0,0.0,0.0,6.4529,0.0,6.5548,0.0,0.0,0.0,0.0,0.0,0.0,0.0,0.0,0.0,0.0,0.0,0.0,0.0,0.0,0.0,0.0,0.0,0.0,0.0,0.0,7.0042,6.8794,6.8736,6.8189,6.6945,6.7526,6.7841,6.7874,6.7841,6.8131,6.8736,6.8736,6.9089,6.9733,7.0366,7.0622,7.0622,7.0651,7.1034,7.1592,7.0976,7.1092,7.1679,7.1708,7.205,7.2602,7.2602,7.2602,7.2602,0.0,0.0,0.0,0.0,0.0,0.0,0.0,0.0,0.0,0.0,0.0,0.0,0.0,0.0,3.5577,3.6433,3.6508,3.6634,3.6959,3.7135,3.7562,3.8391,3.8718,3.9095,3.9472,0.0,0.0,3.9697,3.9546,3.9697,4.0174,4.0877,0.0,0.0,4.2986,4.3614,4.4292,4.3467,0.0,0.0,4.3341,4.4028,0.0,0.0,0.0,0.0,0.0,4.8719,0.0,0.0,4.9145,4.9617,0.0,0.0,0.0,0.0,0.0,0.0,4.8964,0.0,0.0,0.0,0.0,0.0,0.0,0.0,0.0,0.0,0.0,0.0,0.0,0.0,0.0,0.0,0.0,0.0,0.0,0.0,0.0,0.0,0.0,0.0,0.0,0.0,0.0,0.0,6.8915,6.8305,6.7463,6.7434,6.726,6.6916,6.6622,6.6709,6.7144,6.6709,6.6796,6.7434,6.7434,6.7522,6.7758,6.8857,6.9316,6.9345,6.9844,7.0134,7.0372,7.0599,7.0831,7.1034,7.1534,7.205,7.2602,7.2602,7.2602,7.2602,0.0,0.0,0.0,0.0,0.0,0.0,0.0,0.0,0.0,0.0,0.0,0.0,0.0,0.0,3.6332,3.7135,3.7009,3.706,3.7487,3.7788,3.8215,3.8869,3.912,3.9396,3.9697,3.9471,3.9497,3.9697,3.9697,3.9697,3.9722,4.0474,0.0,0.0,0.0,0.0,0.0,0.0,0.0,0.0,4.4619,0.0,0.0,4.8875,4.9936,0.0,0.0,0.0,5.2428,5.1709,5.1788,0.0,0.0,0.0,0.0,0.0,0.0,0.0,0.0,0.0,0.0,0.0,0.0,0.0,5.6955,5.7477,5.8319,0.0,0.0,0.0,0.0,0.0,0.0,0.0,0.0,0.0,0.0,0.0,0.0,0.0,0.0,0.0,0.0,0.0,0.0,6.8015,6.7667,6.7173,6.6535,6.6244,6.6132,6.6132,6.5722,6.5722,6.6099,6.5722,6.5867,6.6476,6.6476,6.6767,6.7351,6.7783,6.816,6.845,6.8828,6.9007,6.9031,6.967,7.0076,7.0366,7.0744,7.144,7.2224,7.2224,7.2398,7.2602,0.0,0.0,0.0,0.0,0.0,0.0,0.0,0.0,0.0,0.0,0.0,0.0,0.0,0.0,0.0,0.0,3.6959,3.706,3.7939,3.8542,3.8919,3.8994,3.9446,3.9697,3.9697,3.9245,3.9245,3.9798,3.9798,0.0,0.0,0.0,0.0,0.0,0.0,0.0,0.0,0.0,0.0,4.3475,4.6354,4.776,0.0,0.0,5.4274,0.0,5.4311,5.4882,5.5082,5.3384,5.2955,0.0,0.0,0.0,0.0,0.0,4.9751,0.0,0.0,0.0,0.0,0.0,0.0,0.0,5.5794,5.591,5.6113,0.0,0.0,0.0,0.0,0.0,0.0,0.0,0.0,0.0,0.0,0.0,0.0,0.0,0.0,0.0,0.0,6.6974,6.6941,6.6796,6.6741,6.6418,6.5834,6.5286,6.4996,6.4996,6.4996,6.4996,6.4996,6.4996,6.5257,6.5805,6.5805,6.6418,6.7551,6.7028,6.7086,6.7667,6.7787,6.7845,6.7928,6.8479,6.9147,6.982,6.982,7.0575,7.1708,7.1708,7.2079,7.2602,0.0,0.0,0.0,0.0,0.0,0.0,0.0,0.0,0.0,0.0,0.0,0.0,0.0,0.0,0.0,0.0,3.8467,3.8291,3.8015,3.8542,3.9095,3.9547,3.9647,3.9697,3.9697,3.9597,3.9798,4.035,0.0,0.0,0.0,0.0,0.0,0.0,0.0,0.0,0.0,0.0,0.0,4.4718,4.6694,0.0,5.2045,5.4547,5.6555,5.8202,5.9322,5.9816,5.9707,0.0,5.722,5.5881,0.0,0.0,0.0,0.0,0.0,0.0,0.0,0.0,0.0,0.0,0.0,0.0,5.2749,5.33,5.4807,0.0,0.0,0.0,0.0,0.0,0.0,0.0,0.0,0.0,0.0,0.0,0.0,0.0,0.0,0.0,0.0,6.7409,6.726,6.6154,6.5635,6.5315,6.517,6.5054,6.4996,6.4996,6.4996,6.4996,6.4996,6.4996,6.5054,6.517,6.517,6.5315,6.5577,6.5954,6.6154,6.6299,6.6854,6.7409,6.7932,6.8015,6.8741,6.982,6.982,7.0575,7.1708,7.1708,7.2079,7.2602,0.0,0.0,0.0,0.0,0.0,0.0,0.0,0.0,0.0,0.0,0.0,0.0,0.0,0.0,0.0,0.0,0.0,0.0,0.0,3.912,3.9651,4.0414,4.0465,4.0594,4.0901,4.0619,4.0747,4.1285,0.0,0.0,0.0,0.0,0.0,0.0,0.0,0.0,0.0,0.0,4.3387,4.5099,4.8448,0.0,5.4993,5.7812,5.9847,6.128,6.1919,6.2354,6.2209,5.9655,5.8784,0.0,0.0,5.2804,5.272,0.0,5.0888,5.1062,0.0,0.0,0.0,5.1933,0.0,0.0,0.0,5.2339,5.292,5.5823,5.5387,0.0,0.0,0.0,0.0,0.0,0.0,0.0,0.0,0.0,0.0,0.0,0.0,0.0,0.0,6.5083,6.5228,6.4561,6.4793,6.4706,6.4067,6.4648,6.4851,6.4532,6.4822,6.4996,6.4996,6.4996,6.4996,6.4996,6.4996,6.5141,6.546,6.546,6.5602,6.5922,6.6273,6.6593,6.697,6.7609,6.8281,6.8891,6.9176,7.0076,7.1208,7.1208,7.1789,7.2602,0.0,0.0,0.0,0.0,0.0,0.0,0.0,0.0,0.0,3.6958,0.0,0.0,0.0,0.0,0.0,0.0,0.0,0.0,0.0,0.0,0.0,4.1244,4.1518,4.1853,4.2279,4.188,4.201,4.2724,4.3146,0.0,0.0,0.0,0.0,0.0,0.0,0.0,0.0,0.0,0.0,4.6291,0.0,5.3629,5.6129,6.0195,6.2064,6.2616,6.3109,6.3721,6.3723,6.0091,0.0,5.9626,5.4688,5.3936,0.0,0.0,0.0,0.0,0.0,0.0,0.0,0.0,0.0,5.2368,0.0,0.0,0.0,5.359,0.0,0.0,0.0,0.0,0.0,0.0,0.0,0.0,0.0,0.0,0.0,0.0,0.0,0.0,0.0,6.2296,6.2587,6.2703,6.369,6.3864,6.2964,6.4009,6.4444,6.4007,6.4532,6.4851,6.4996,6.4996,6.4996,6.4996,6.4996,6.5257,6.5689,6.5228,6.5257,6.5718,6.5718,6.5776,6.598,6.7057,6.7667,6.7957,6.8567,6.9577,7.068,7.068,7.1528,7.2602,3.5346,3.4489,0.0,0.0,0.0,0.0,0.0,0.0,3.8011,3.8541,4.1258,0.0,0.0,0.0,0.0,0.0,0.0,0.0,4.443,0.0,0.0,4.1591,4.2641,4.315,4.2991,4.315,4.3791,4.4944,4.4775,4.5424,0.0,0.0,0.0,0.0,4.5442,0.0,0.0,0.0,4.6743,0.0,5.204,5.2573,0.0,5.8349,6.0467,6.0816,6.3078,6.4518,6.4854,0.0,6.117,6.0765,0.0,5.5591,0.0,0.0,0.0,0.0,0.0,0.0,0.0,0.0,5.5097,0.0,0.0,0.0,5.3675,5.2227,0.0,0.0,0.0,0.0,0.0,0.0,0.0,0.0,0.0,0.0,0.0,0.0,0.0,0.0,0.0,6.0816,6.0787,6.1367,6.1542,6.1803,6.218,6.2906,6.3545,6.4007,6.4065,6.4384,6.4967,6.4996,6.4996,6.4996,6.4996,6.5025,6.5083,6.5025,6.5025,6.5083,6.5083,6.5431,6.5922,6.6067,6.6825,6.7957,6.8567,6.9577,7.068,7.068,7.1528,7.2602,3.6381,0.0,0.0,0.0,0.0,0.0,0.0,0.0,4.2797,4.2749,0.0,0.0,0.0,0.0,0.0,0.0,0.0,0.0,0.0,0.0,0.0,0.0,0.0,0.0,0.0,4.5058,4.5354,4.6155,4.6135,4.6927,4.8497,0.0,0.0,0.0,4.7457,0.0,4.8052,0.0,0.0,0.0,0.0,0.0,0.0,5.8929,6.1895,6.2833,6.3912,6.5153,6.5847,0.0,6.1995,0.0,0.0,0.0,0.0,0.0,0.0,0.0,0.0,0.0,0.0,0.0,0.0,0.0,0.0,0.0,5.1701,0.0,0.0,0.0,0.0,0.0,0.0,0.0,0.0,0.0,0.0,0.0,0.0,0.0,0.0,0.0,0.0,0.0,0.0,0.0,6.0555,6.099,6.0496,6.1774,6.2645,6.2906,6.3252,6.3777,6.4384,6.4413,6.4619,6.4996,6.4996,6.4996,6.4996,6.4996,6.5199,6.5519,6.5141,6.5344,6.5922,6.6331,6.6593,6.6883,6.8243,6.9379,7.0221,7.057,7.1295,7.2108,3.8263,0.0,0.0,0.0,0.0,0.0,0.0,0.0,0.0,0.0,0.0,0.0,5.0365,5.1972,0.0,0.0,0.0,5.099,0.0,0.0,4.771,0.0,0.0,0.0,0.0,0.0,4.6911,4.7501,4.7507,4.8371,4.9946,0.0,0.0,0.0,0.0,5.0265,5.1031,0.0,0.0,5.2549,5.4603,5.5422,5.5862,6.0209,6.3015,6.4663,6.4839,6.5733,6.6369,6.3651,6.2911,0.0,6.0524,0.0,0.0,0.0,0.0,0.0,5.564,0.0,0.0,0.0,0.0,0.0,0.0,0.0,0.0,0.0,0.0,0.0,0.0,0.0,0.0,0.0,0.0,0.0,0.0,0.0,0.0,0.0,0.0,0.0,0.0,0.0,0.0,5.7565,5.8668,5.9103,5.8552,6.0119,6.1309,6.1832,6.2645,6.3399,6.4007,6.4181,6.4532,6.4996,6.4996,6.4996,6.4996,6.4996,6.5228,6.5602,6.5199,6.5344,6.5922,6.6244,6.6418,6.656,6.7812,6.8799,6.9583,7.0221,7.0976,7.1766,4.1606,4.0273,0.0,0.0,0.0,0.0,0.0,0.0,0.0,0.0,0.0,0.0,0.0,0.0,0.0,0.0,0.0,5.6417,5.5396,0.0,5.0614,0.0,0.0,0.0,0.0,0.0,0.0,4.9209,4.896,4.9644,5.1152,5.0656,0.0,0.0,0.0,5.2909,5.2471,5.4414,5.6332,5.8105,5.884,6.0965,6.3532,0.0,6.2794,6.5063,6.5711,0.0,0.0,6.4598,6.4245,0.0,0.0,0.0,0.0,0.0,0.0,0.0,0.0,0.0,0.0,0.0,0.0,0.0,0.0,0.0,5.3239,0.0,0.0,0.0,0.0,0.0,0.0,0.0,0.0,0.0,0.0,0.0,0.0,0.0,0.0,0.0,0.0,0.0,0.0,5.5503,5.501,5.5242,5.6432,5.771,5.9277,6.1164,6.2441,6.3399,6.4007,6.4648,6.4967,6.4996,6.4996,6.4996,6.4996,6.4996,6.4996,6.5025,6.4996,6.5344,6.5864,6.5286,6.6157,6.7787,6.7206,6.7725,6.891,6.9583,7.0633,7.1708,0.0,0.0,0.0,0.0,0.0,0.0,0.0,4.7959,0.0,0.0,0.0,0.0,0.0,0.0,6.4994,0.0,0.0,6.2098,6.006,5.7925,0.0,0.0,0.0,5.2641,0.0,0.0,0.0,0.0,0.0,0.0,5.1206,5.1041,5.0756,0.0,0.0,5.2721,0.0,0.0,0.0,0.0,0.0,6.202,6.4576,0.0,0.0,6.5373,6.558,6.6181,0.0,6.6186,6.538,6.4576,6.4427,6.2913,6.123,6.1402,6.1168,0.0,0.0,0.0,6.2145,5.7252,0.0,0.0,0.0,0.0,0.0,0.0,0.0,0.0,0.0,0.0,0.0,0.0,0.0,0.0,0.0,0.0,0.0,0.0,0.0,0.0,0.0,0.0,0.0,5.4139,5.3155,5.3329,5.5068,5.6374,5.7942,5.9887,6.0758,6.1687,6.2732,6.2964,6.3283,6.3748,6.4154,6.4326,6.4326,6.4793,6.5228,6.5577,6.517,6.5344,6.5922,6.6157,6.6389,6.6709,6.7754,6.8189,6.8334,6.9413,7.0081,7.0575,4.272,0.0,0.0,0.0,0.0,0.0,0.0,0.0,0.0,0.0,6.0104,0.0,6.5829,0.0,6.8706,0.0,6.8106,6.6251,6.269,6.1433,0.0,5.7214,5.6526,0.0,0.0,0.0,0.0,0.0,0.0,5.0996,5.1206,5.1206,5.0966,0.0,0.0,0.0,5.4132,0.0,5.8768,0.0,0.0,6.4039,0.0,0.0,6.5378,6.5708,0.0,6.6457,6.6939,6.6729,6.6129,6.5501,6.5622,6.4219,6.2616,6.2998,6.2673,6.2112,6.1789,6.2942,0.0,0.0,5.8848,0.0,0.0,0.0,0.0,0.0,0.0,0.0,0.0,0.0,0.0,0.0,0.0,0.0,0.0,0.0,0.0,0.0,0.0,0.0,0.0,0.0,5.2517,5.1849,5.083,5.1091,0.0,0.0,5.6374,5.8523,5.9858,6.1048,6.2093,6.2325,6.2674,6.3109,6.3687,6.4007,6.4036,6.4706,6.5199,6.5577,6.517,6.5344,6.5922,6.6389,6.6564,6.6767,6.8015,6.8363,6.8334,6.9413,7.011,7.0604,0.0,0.0,0.0,0.0,4.5014,0.0,0.0,0.0,5.5688,0.0,6.1433,6.5054,6.7148,6.9093,7.0263,7.0263,7.0739,0.0,6.3886,6.4006,0.0,0.0,5.8171,5.7543,5.5568,0.0,0.0,0.0,0.0,0.0,5.1295,5.1236,5.1176,5.1265,5.3982,0.0,5.5448,6.0057,6.2421,6.3377,6.5951,6.6999,6.6999,6.6999,0.0,6.6131,6.6759,6.6999,6.6879,6.6251,6.646,6.6759,6.5503,6.5084,6.4904,6.4306,6.4096,6.3888,6.2999,6.3238,6.3268,6.105,0.0,0.0,0.0,0.0,5.9506,0.0,0.0,0.0,0.0,0.0,0.0,0.0,0.0,0.0,0.0,0.0,0.0,0.0,0.0,0.0,0.0,5.1788,5.0602,4.8803,4.8043,4.8531,0.0,0.0,5.4604,5.71,5.9742,6.1396,6.2006,6.2674,6.3022,6.3051,6.3629,6.3949,6.4036,6.4677,6.4967,6.4996,6.4996,6.5344,6.5864,6.5893,6.6651,6.7816,6.7841,6.8276,6.891,6.9525,7.0546,7.1621,4.3379,4.3848,4.4715,0.0,4.5873,4.6501,0.0,0.0,0.0,0.0,6.5742,6.9034,7.2508,7.3346,7.3646,7.3646,7.3313,0.0,0.0,0.0,0.0,6.5293,6.3947,6.2302,6.0356,5.8381,0.0,5.4935,0.0,0.0,5.2665,5.1678,5.0936,5.0607,0.0,0.0,5.473,5.886,6.1822,6.3947,6.6131,6.6999,0.0,0.0,6.6879,6.6759,6.6939,6.6999,6.6969,6.6789,6.6849,6.6939,6.661,6.6161,6.5712,6.5533,6.5503,6.5413,6.5203,6.5622,6.5681,6.3921,6.2793,6.152,0.0,0.0,0.0,0.0,0.0,0.0,0.0,0.0,0.0,0.0,0.0,0.0,0.0,0.0,0.0,0.0,0.0,0.0,0.0,4.9001,4.8019,4.8014,4.6556,0.0,0.0,0.0,0.0,5.5184,5.8203,6.009,6.0671,6.1338,6.1919,6.2354,6.2499,6.3078,6.4007,6.4181,6.4532,6.4996,6.4996,6.5083,6.5257,6.5718,6.6096,6.6502,6.7492,6.8567,6.9495,6.9176,6.9583,7.0314,0.0,0.0,0.0,4.7989,0.0,0.0,5.2103,0.0,0.0,6.3408,6.7238,0.0,7.2475,7.4001,7.4903,7.4903,7.4574,0.0,0.0,0.0,0.0,6.8107,6.6909,6.5383,6.3408,6.0747,0.0,5.6611,0.0,0.0,5.2725,5.1708,5.0847,5.0315,0.0,5.4551,0.0,5.9039,6.2301,6.4575,6.5981,0.0,0.0,6.6879,6.6819,6.661,6.6879,6.6999,6.6939,6.667,6.6759,6.6939,6.664,6.652,6.643,6.643,6.643,6.643,6.643,6.67,6.6789,6.5859,6.5113,6.41,6.2293,6.247,6.2558,0.0,0.0,0.0,0.0,0.0,0.0,0.0,0.0,0.0,0.0,0.0,0.0,0.0,0.0,0.0,4.7631,4.6621,4.6011,4.615,0.0,0.0,0.0,0.0,0.0,5.3646,5.7332,5.9597,6.0177,6.1135,6.1745,6.2093,6.2383,6.3051,6.4007,6.4297,6.4648,6.4996,6.4996,6.4996,6.5025,6.5631,6.5893,6.6038,6.7376,6.8479,6.9321,6.891,6.9408,7.0192,0.0,0.0,0.0,0.0,0.0,0.0,0.0,5.7393,0.0,6.3497,0.0,7.062,7.0557,7.3163,7.4903,0.0,0.0,7.3915,7.1577,7.2505,7.1846,6.8916,6.8616,6.7567,6.5562,6.2691,0.0,0.0,0.0,0.0,5.2306,5.1535,5.0877,5.0435,0.0,0.0,0.0,5.9967,6.3019,0.0,6.5562,6.6011,6.6071,6.6729,6.664,6.6221,6.6789,6.6999,6.6909,6.634,6.652,6.6879,6.6311,6.652,6.6999,6.6999,6.6999,6.6999,6.6999,6.6999,6.6999,6.6999,6.6999,6.6638,6.5171,6.4572,6.4037,6.3031,6.1319,0.0,0.0,0.0,0.0,0.0,0.0,0.0,0.0,0.0,0.0,0.0,0.0,0.0,0.0,0.0,0.0,0.0,0.0,0.0,0.0,0.0,0.0,5.2481,5.6723,0.0,6.0322,0.0,6.2151,6.247,6.279,6.3399,6.4152,6.4648,6.4909,6.4996,6.4996,6.4996,6.5025,6.5577,6.5864,6.6125,6.7318,6.8189,6.8794,6.8794,6.949,7.0448,0.0,0.0,0.0,0.0,0.0,5.6645,6.1072,6.3258,6.5473,6.8314,7.1816,0.0,7.4035,7.4574,7.4903,7.4903,7.4903,0.0,0.0,0.0,0.0,7.2924,7.1819,7.029,6.8345,6.4126,6.1134,0.0,0.0,0.0,5.3019,5.1768,5.1146,5.1116,0.0,0.0,5.6825,6.0535,0.0,6.2003,6.4874,6.6011,6.6071,6.6729,6.6909,6.6819,6.6939,6.6999,6.6969,6.6849,6.6879,6.6969,6.6849,6.6909,6.6999,6.6999,6.6999,6.6999,6.6999,6.6999,6.6999,6.6999,6.6999,6.6847,6.6301,6.5917,6.5321,6.4066,6.2675,6.095,5.8473,0.0,0.0,0.0,0.0,0.0,0.0,0.0,0.0,0.0,0.0,0.0,0.0,0.0,0.0,0.0,0.0,0.0,0.0,0.0,0.0,0.0,5.5591,0.0,0.0,0.0,6.2412,6.4473,6.2964,6.3167,6.4793,6.4355,6.4502,6.4996,6.4996,6.4996,6.4996,6.5112,6.578,6.6738,6.697,6.7783,6.8794,6.8794,6.8939,6.9113,0.0,0.0,0.0,0.0,0.0,0.0,0.0,6.8166,0.0,6.9512,7.1128,7.2325,7.2358,7.3885,7.4903,7.4903,7.4903,7.4903,7.4903,7.4903,7.4604,7.3911,7.2595,0.0,6.9542,0.0,6.2271,6.0625,0.0,0.0,0.0,0.0,0.0,5.0272,0.0,5.4311,0.0,0.0,0.0,6.1852,6.4455,6.5712,6.6071,6.6729,6.6789,6.652,6.6879,6.6999,6.6999,6.6999,6.6999,6.6999,6.6999,6.6999,6.6999,6.6999,6.6999,6.6999,6.6999,6.6999,6.6999,6.6999,6.6999,6.6968,6.6814,6.6514,6.5916,6.4602,6.3535,6.1722,5.8171,5.4442,0.0,0.0,0.0,0.0,0.0,0.0,0.0,0.0,0.0,0.0,0.0,0.0,0.0,0.0,0.0,0.0,0.0,0.0,0.0,0.0,0.0,0.0,0.0,0.0,0.0,6.398,6.3051,6.3457,6.4967,6.4677,6.4706,6.4996,6.4996,6.4996,6.4996,6.4996,6.5548,6.6389,6.6389,6.7173,6.8334,6.8334,6.8538,6.8852,0.0,5.482,0.0,0.0,6.2331,0.0,0.0,7.1517,7.3013,7.056,7.0679,7.0979,7.1041,7.3346,7.4903,7.4903,7.4903,7.4903,7.4903,7.4903,7.4663,7.4121,7.2834,7.1577,7.0442,6.646,6.3258,0.0,0.0,0.0,0.0,0.0,0.0,0.0,0.0,0.0,0.0,0.0,6.0535,6.2271,6.4366,6.5503,6.6071,6.6729,6.658,6.6101,6.6759,6.6909,6.6819,6.6939,6.6999,6.6999,6.6999,6.6999,6.6999,6.6999,6.6999,6.6999,6.6999,6.6999,6.6999,6.6999,6.6999,6.6939,6.6819,6.6456,6.5855,6.4635,6.3506,6.1582,5.7983,5.5216,0.0,0.0,0.0,0.0,0.0,0.0,0.0,0.0,0.0,0.0,0.0,0.0,0.0,0.0,0.0,0.0,0.0,0.0,0.0,0.0,0.0,5.7942,5.9684,0.0,6.2441,0.0,6.337,6.3893,6.4996,6.5112,6.5112,6.4996,6.5141,6.5112,6.4996,6.4996,6.5373,6.5893,6.5893,6.6738,6.7903,6.7903,6.8276,6.8852,0.0,0.0,0.0,0.0,0.0,0.0,0.0,7.2116,7.4001,7.4334,7.4424,7.442,7.4454,7.4723,7.4903,7.4903,7.4903,7.4903,7.4903,7.4903,7.4873,7.4813,7.3522,7.2475,7.176,6.7837,6.3977,0.0,0.0,0.0,0.0,0.0,0.0,0.0,0.0,0.0,0.0,5.9608,6.1373,6.2331,6.4874,6.5951,6.6071,6.6729,6.658,6.6101,6.6759,6.661,6.6191,6.6789,6.6999,6.6999,6.6999,6.6999,6.6999,6.6999,6.6999,6.6999,6.6999,6.6999,6.6999,6.6999,6.6999,6.6819,6.6251,6.5622,6.4875,6.3892,6.1733,5.9503,5.7637,5.6142,5.4992,0.0,0.0,0.0,0.0,0.0,0.0,0.0,0.0,0.0,0.0,0.0,0.0,0.0,0.0,0.0,0.0,0.0,0.0,5.1472,0.0,5.7942,6.099,6.1193,0.0,6.4793,6.421,6.4297,6.4996,6.5577,6.5519,6.5025,6.5606,6.5519,6.4996,6.4996,6.5373,6.5893,6.5893,6.6738,6.7903,6.7903,6.8276,6.8794,0.0,0.0,0.0,0.0,0.0,0.0,0.0,7.3791,7.4604,7.4873,7.4903,7.4903,7.4903,7.4903,7.4903,7.4903,7.4903,7.4903,7.4903,7.4903,7.4903,7.4903,7.3612,7.2595,7.1906,6.8794,6.5443,0.0,0.0,0.0,0.0,0.0,0.0,0.0,0.0,5.5239,5.7483,5.9608,6.1104,6.2301,6.4515,6.5622,6.6071,6.6729,6.6819,6.664,6.6879,6.6819,6.664,6.6909,6.6999,6.6999,6.6999,6.6999,6.6999,6.6999,6.6999,6.6999,6.6999,6.6999,6.6999,6.6999,6.67,6.634,6.6071,6.5473,6.4725,6.3773,6.1702,5.9849,5.9364,5.7462,5.6099,0.0,0.0,0.0,0.0,0.0,0.0,0.0,0.0,0.0,0.0,0.0,0.0,0.0,0.0,0.0,0.0,0.0,0.0,5.2107,0.0,5.7187,6.0032,6.1164,6.2441,6.3864,6.4578,6.5129,6.5577,6.6442,6.6556,6.6128,6.5951,6.5747,6.5548,6.5548,6.566,6.5893,6.5893,6.6738,6.7841,6.7468,6.7928,6.8794,6.5263,0.0,6.6879,0.0,7.0919,7.1667,7.4484,7.4903,7.4903,7.4903,7.4903,7.4903,7.4903,7.4903,7.4903,7.4903,7.4903,7.4903,7.4903,7.4903,7.4903,7.4903,7.3612,0.0,7.2206,6.9844,6.697,6.3647,6.1852,0.0,0.0,0.0,0.0,0.0,5.4606,5.6436,5.9072,6.0595,6.1912,6.3109,6.4904,6.5772,6.6071,6.6729,6.6879,6.6729,6.6909,6.6879,6.6729,6.6939,6.6999,6.6969,6.6759,6.67,6.67,6.67,6.6849,6.6999,6.6999,6.6999,6.6999,6.6999,6.649,6.5951,6.5772,6.5203,6.4397,6.3267,6.158,6.031,6.033,5.8417,5.7188,5.8187,0.0,0.0,0.0,0.0,0.0,0.0,0.0,4.9133,4.6518,0.0,0.0,0.0,0.0,0.0,0.0,0.0,0.0,0.0,0.0,0.0,0.0,6.1401,6.2621,6.337,6.4946,6.5677,6.5792,6.6692,6.7188,6.7309,6.6538,6.6183,6.6186,6.598,6.6009,6.6186,6.5776,6.6447,6.7555,6.7057,6.7463,6.8305,6.8286,6.9423,7.0709,7.3373,7.436,7.4843,7.4903,7.4903,7.4903,7.4903,7.4903,7.4903,7.4903,7.4903,7.4903,7.4903,7.4903,7.4903,7.4903,7.4903,7.4903,0.0,0.0,7.2924,7.2894,7.0979,6.8315,6.4964,0.0,0.0,5.6162,0.0,5.5149,5.5269,5.7872,5.9787,6.1194,6.3139,6.4366,6.5084,6.643,6.658,6.6071,6.6729,6.658,6.6101,6.6759,6.658,6.6131,6.6759,6.6999,6.6879,6.6221,6.6011,6.6011,6.6011,6.649,6.6999,6.6999,6.6999,6.6999,6.6999,6.649,6.5832,6.5144,6.4515,6.356,6.193,6.11,6.0388,5.9707,5.8831,5.8278,5.8637,0.0,0.0,0.0,0.0,0.0,0.0,5.1581,4.9974,4.743,0.0,0.0,0.0,0.0,0.0,0.0,0.0,0.0,5.292,5.5201,0.0,6.0648,6.1964,6.3068,6.4007,6.5339,6.5819,6.5536,6.6116,6.711,6.8342,6.7309,6.6916,6.6858,6.6154,6.6302,6.6738,6.5489,6.578,6.6916,6.6916,6.6916,6.7086,7.0679,7.1876,7.3043,7.433,7.4783,7.4903,7.4903,7.4903,7.5048,7.5527,7.5168,7.5048,7.5527,7.5168,7.4903,0.0,7.4903,7.4903,0.0,7.4903,7.4903,7.4903,7.3612,7.2924,7.2924,7.0979,6.8794,6.637,0.0,0.0,0.0,5.7693,5.7663,5.8617,5.9907,6.1433,6.3169,6.4246,6.4785,6.5084,6.5981,6.6191,6.6071,6.6729,6.6849,6.67,6.6909,6.6849,6.664,6.64,6.6011,6.5503,6.4844,6.5263,6.5922,6.5443,6.5802,6.6311,6.6311,6.664,6.6999,6.6999,6.649,6.5832,6.5144,6.4156,6.3258,6.2724,6.1539,6.0593,6.0639,5.9492,5.8582,5.8694,0.0,0.0,0.0,0.0,0.0,0.0,5.065,4.933,0.0,4.8406,0.0,0.0,0.0,0.0,0.0,0.0,0.0,0.0,5.565,0.0,6.0325,6.2523,6.3721,6.4007,6.6031,6.7413,6.8176,6.7897,6.7991,6.8371,6.7803,6.7322,6.6854,6.6651,6.6709,6.6796,6.5954,6.6157,6.6825,6.6389,6.6506,6.6974,7.2475,7.3313,7.4091,7.4783,7.4903,7.4903,7.4903,7.4903,7.5018,7.5467,7.5172,7.5083,7.5467,7.5138,0.0,7.4903,7.4903,7.4903,7.4903,7.4903,7.4903,7.4903,7.3612,7.2804,7.2535,0.0,0.0,6.7389,6.5951,6.3857,6.1222,6.0356,6.0535,6.1583,6.254,6.3617,6.4814,6.5473,6.5622,6.5413,6.6101,6.6221,6.6071,6.6729,6.6999,6.6999,6.6999,6.6819,6.655,6.6131,6.5532,6.4874,6.4216,6.4575,6.5233,6.5054,6.5622,6.637,6.637,6.667,6.6999,6.6999,6.649,6.5772,6.4815,6.4006,6.3288,6.2838,6.1889,6.1088,6.0777,5.9919,5.9126,5.8887,5.8619,5.7934,0.0,0.0,0.0,0.0,0.0,0.0,0.0,5.0318,0.0,0.0,0.0,0.0,0.0,0.0,0.0,5.4397,5.639,0.0,6.1409,6.3325,6.4442,6.4762,6.6371,6.7727,6.8834,6.8256,6.8145,6.838,6.7889,6.7487,6.708,6.6687,6.6651,6.6829,6.5925,6.5983,6.6476,6.6038,6.6041,6.6244,7.3642,7.3941,0.0,0.0,7.4903,0.0,7.4903,7.4903,7.4933,7.4963,7.4933,7.4933,7.4963,7.4933,7.4903,7.4903,0.0,0.0,0.0,7.4903,7.4903,7.4903,7.3612,7.2624,7.1966,7.0709,6.9424,6.8077,6.5413,6.3827,6.3317,6.3257,6.3587,6.4186,6.5443,6.6041,6.6131,6.6729,6.664,6.6131,6.6759,6.664,6.6131,6.6759,6.6999,6.6999,6.6999,6.661,6.6071,6.6011,6.5562,6.4934,6.4246,6.4036,6.4186,6.4695,6.5832,6.6849,6.6849,6.6909,6.6999,6.6999,6.649,6.5682,6.4425,6.4096,6.3707,6.248,6.2181,6.1762,6.0503,6.0174,5.9877,5.9279,5.8504,5.7367,5.5448,0.0,0.0,0.0,0.0,0.0,0.0,5.2625,5.3114,0.0,0.0,0.0,0.0,0.0,5.3422,5.5414,5.7453,6.0076,6.3446,6.4278,6.5136,6.607,6.6351,6.7019,6.7986,6.7582,6.772,6.8313,6.7698,6.7406,6.7286,6.6348,6.6306,6.6712,6.5493,6.5344,6.5834,6.5834,6.5489,6.5141,0.0,0.0,7.4723,7.4873,7.4903,7.4903,7.4903,7.4903,7.5078,7.5587,7.5198,7.5078,7.5617,7.5198,7.4903,7.4903,7.4903,7.4903,7.4903,7.4903,7.4903,7.4903,7.3612,7.2834,7.2684,7.1368,7.0051,6.8764,6.658,6.5443,6.5293,6.4814,6.4904,6.5533,6.5862,6.6281,6.6759,6.6939,6.6909,6.6759,6.6939,6.6879,6.6759,6.6939,6.6999,6.6999,6.6999,6.6879,6.67,6.6191,6.5861,6.5562,6.4366,6.4366,6.4575,6.3797,6.4455,6.5473,6.5473,6.6221,6.6999,6.6999,6.649,6.5922,6.5592,6.5144,6.4516,6.3707,6.3169,6.2629,6.1762,6.0775,6.0054,5.9877,5.8441,5.6825,5.5388,5.3917,0.0,0.0,5.2532,5.2944,5.3708,5.3793,5.3827,0.0,0.0,0.0,0.0,5.5781,5.6686,5.642,5.882,6.1116,6.3179,6.4603,6.5795,6.6753,6.6599,6.7019,6.7986,6.7582,6.7514,6.7723,6.7749,6.7498,6.6966,6.6499,6.6367,6.6426,6.5382,6.5083,6.5199,6.5199,6.5112,6.5025,7.436,7.4663,7.4903,7.4903,7.4903,7.4903,7.4903,7.4903,7.5053,7.5377,7.5142,7.5053,7.5377,7.5108,7.4903,7.4903,7.4903,7.4903,7.4903,7.4903,7.4783,7.445,7.3462,7.2624,7.1996,7.1009,6.9842,6.8525,6.7448,6.6759,6.646,6.6101,6.6131,6.646,6.646,6.667,6.6999,6.6999,6.6999,6.6999,6.6999,6.6999,6.6969,6.667,6.655,6.649,6.6191,6.5892,6.5562,6.5203,6.4904,6.4545,6.3797,6.3827,6.4006,6.3317,6.4216,6.5443,6.5443,6.6221,6.6999,6.6999,6.649,6.6011,6.6011,6.5473,6.4815,6.4126,6.3737,6.3199,6.2271,6.1253,6.0266,5.9338,5.7782,5.5897,5.3683,5.2995,0.0,5.212,5.328,5.4466,5.533,5.5901,5.5938,5.53,0.0,0.0,5.5512,5.8235,5.927,5.8129,6.0514,6.2617,6.4396,6.5588,6.6456,6.6999,6.6814,6.7024,6.7568,6.7321,6.7229,6.7258,6.7271,6.6989,6.6477,6.6129,6.5906,6.5717,6.5208,6.4996,6.4996,6.4996,6.4996,6.4996,7.4903,7.4903,7.4903,7.4903,7.4903,7.4903,7.4903,7.4903,7.4903,7.4903,7.4903,7.4903,7.4903,7.4903,7.4903,7.4903,7.4903,7.4903,7.4903,7.4903,7.4663,7.4061,7.3313,7.2385,7.1248,7.041,6.9395,6.8167,6.8047,6.7658,6.6999,6.6999,6.7029,6.7148,6.7029,6.7059,6.7119,6.7029,6.6999,6.6999,6.6999,6.6939,6.6789,6.6221,6.5951,6.5742,6.5203,6.4605,6.4186,6.4276,6.3947,6.3527,6.3437,6.3407,6.3377,6.3287,6.4485,6.5862,6.5862,6.64,6.6999,6.6999,6.658,6.6161,6.6161,6.5682,6.5084,6.4455,6.4216,6.3797,6.26,6.1672,6.0538,5.8833,5.7064,5.4905,5.2043,0.0,5.2187,5.1714,5.4012,5.5927,5.6701,5.8082,5.8274,5.672,5.8131,5.8635,0.0,6.0235,6.1366,6.0529,6.2369,6.4248,6.604,6.6669,6.6999,6.6999,6.6999,6.6999,6.6999,6.6999,6.6999,6.6999,6.666,6.6351,6.6039,6.5664,6.5317,6.5092,6.5028,6.4996,6.4996,6.4996,6.4996,6.4996,7.4903,7.4903,7.4903,7.4903,7.4903,7.4903,7.4903,7.4903,7.4903,7.4903,7.4903,7.4903,7.4903,7.4903,7.4903,7.4903,7.4903,7.4903,7.4903,7.4903,7.4873,7.4753,7.3552,7.2804,7.2595,7.0889,6.9602,6.8824,6.8287,6.7658,6.6999,6.6999,6.7329,6.7838,6.7238,6.7298,6.7808,6.7238,6.6999,6.6999,6.6999,6.667,6.6161,6.6041,6.5622,6.5144,6.5024,6.4934,6.4934,6.5503,6.5622,6.5443,6.4874,6.4695,6.4575,6.4036,6.4485,6.5144,6.5144,6.6071,6.6999,6.6999,6.6909,6.6849,6.6849,6.6759,6.649,6.5832,6.5233,6.4605,6.3857,6.2271,6.1014,6.0715,5.7214,5.4341,5.3832,0.0,5.3228,5.3683,5.6051,5.8141,5.9368,5.874,5.8833,6.0181,5.9332,5.9483,6.1197,6.2045,6.2998,6.4158,6.4514,6.5252,6.6389,6.6816,6.6999,6.6999,6.6999,6.6999,6.6999,6.6999,6.6999,6.6999,6.666,6.6475,6.6382,6.5759,6.5475,6.538,6.5124,6.4996,6.4996,6.4996,6.4996,6.4996,7.7025,7.7025,7.7025,7.7025,7.7025,7.7025,7.7025,7.7025,7.7025,7.7025,7.7025,7.7025,7.7025,7.7025,7.7025,7.7025,7.7025,7.6728,7.6027,7.5282,7.4753,7.436,7.3432,7.2565,7.1846,7.062,6.9842,6.9542,6.8526,6.7838,6.7538,6.7148,6.7179,6.7449,6.7119,6.7148,6.7449,6.7119,6.6999,6.6999,6.6999,6.6819,6.646,6.5742,6.5263,6.4904,6.4216,6.3977,6.4066,6.4725,6.4934,6.4934,6.4964,6.4994,6.4934,6.4605,6.4994,6.5532,6.5532,6.6251,6.6909,6.655,6.646,6.655,6.6909,6.6729,6.637,6.6071,6.5772,6.5203,6.4186,6.272,6.1283,6.0206,5.6765,0.0,0.0,5.3623,5.3857,5.5568,5.7483,5.9308,6.1014,6.0625,6.0805,6.2061,6.15,6.1679,6.3049,6.3591,6.4397,6.5503,6.5887,6.6302,6.6784,6.6937,6.6999,6.6999,6.6999,6.6999,6.6999,6.6999,6.6907,6.6722,6.6568,6.6319,6.5915,6.5633,6.538,6.5222,6.506,6.4996,6.4996,6.4996,6.4996,6.4996,7.8879,7.8879,7.8879,7.8879,7.8879,7.8879,7.8879,7.8879,7.8879,7.8879,7.8879,7.8879,7.8879,7.8879,7.8879,7.8879,7.8879,7.8439,7.7446,7.6396,7.5251,7.3945,7.3103,7.2116,7.0919,7.029,6.9901,6.9784,6.8586,6.7928,6.7778,6.7238,6.7059,6.7239,6.7059,6.7089,6.7208,6.7059,6.6999,6.6999,6.6999,6.6909,6.664,6.5622,6.5144,6.4845,6.3707,6.3408,6.3588,6.4066,6.4336,6.4545,6.5054,6.5233,6.5233,6.5233,6.5682,6.6191,6.6041,6.637,6.664,6.6131,6.6131,6.637,6.6879,6.661,6.6251,6.6251,6.5981,6.5443,6.4425,6.2929,6.1373,5.9817,0.0,0.0,0.0,5.4341,5.485,5.6855,5.856,6.0296,6.2151,6.2331,6.266,6.3468,6.3528,6.3797,6.4425,6.4934,6.5532,6.6221,6.6729,6.6999,6.6999,6.6999,6.6999,6.6999,6.6999,6.6999,6.6999,6.6999,6.6876,6.6629,6.6444,6.6101,6.5601,6.5443,6.5222,6.4996,6.4996,6.4996,6.4996,6.4996,6.4996,6.4996,7.8879,7.8879,7.8879,7.8879,7.8879,7.8879,7.8879,7.8879,7.8879,7.8879,7.8879,7.8879,7.8879,7.8879,7.8879,7.8879,7.8879,7.8848,7.8754,7.866,7.7202,7.4046,7.2654,7.1637,7.0919,7.029,6.9692,6.9064,6.8347,6.7688,6.7059,6.6999,6.7328,6.7898,6.7299,6.7328,6.7898,6.7238,6.6999,6.6999,6.6999,6.664,6.6071,6.5981,6.5532,6.4904,6.4186,6.4336,6.4874,6.4904,6.5323,6.5862,6.5922,6.5951,6.5951,6.5951,6.64,6.6789,6.6161,6.6041,6.6071,6.6011,6.646,6.6939,6.6969,6.6939,6.6909,6.6909,6.5951,6.5024,6.4934,6.287,6.1134,6.0984,0.0,0.0,5.6042,5.6492,5.6885,5.7064,5.9398,6.1493,6.2898,6.3048,6.3528,6.4755,6.4845,6.5144,6.5832,6.5922,6.6251,6.6909,6.6969,6.6999,6.6999,6.6999,6.6999,6.6999,6.6999,6.6999,6.6999,6.6999,6.6999,6.6937,6.6319,6.6007,6.5913,6.5314,6.5028,6.4996,6.4996,6.4996,6.4996,6.4996,6.4996,6.4996,8.1401,8.1401,8.1401,8.1401,8.1401,8.1401,8.1401,8.1401,8.1401,8.1401,8.1401,8.1401,8.1401,8.1401,8.1401,8.1401,8.1401,8.1015,8.0173,8.0112,7.8807,7.5835,7.5213,7.4408,7.3292,7.2641,7.2146,7.1837,7.0066,6.9636,7.0473,6.8122,6.7758,6.9123,6.7667,6.7119,6.7389,6.7089,6.6999,6.6999,6.6999,6.6849,6.658,6.6161,6.5862,6.5503,6.4395,6.4156,6.4455,6.4845,6.5174,6.5503,6.637,6.661,6.661,6.661,6.652,6.6311,6.6071,6.6311,6.652,6.6101,6.649,6.6999,6.6999,6.6999,6.6999,6.6999,6.658,6.6011,6.5144,6.3828,6.251,6.1313,0.0,5.7663,5.8497,5.8112,5.8501,6.0565,6.1702,6.3019,6.4725,6.4904,6.5263,6.6161,6.6251,6.634,6.661,6.661,6.6729,6.6969,6.6999,6.6999,6.6999,6.6999,6.6999,6.6999,6.6999,6.6999,6.6999,6.6999,6.6784,6.6382,6.6101,6.5756,6.5378,6.5124,6.4996,6.4996,6.4996,6.4996,6.4996,6.4996,6.4996,6.4996,8.2883,8.2883,8.2883,8.2883,8.2883,8.2883,8.2883,8.2883,8.2883,8.2883,8.2883,8.2883,8.2883,8.2883,8.2883,8.2883,8.2883,8.2514,8.161,8.1323,7.9874,7.6948,7.6382,7.5687,7.4709,7.4044,7.3665,7.3635,7.1743,7.1489,7.2653,7.0053,6.9418,7.0431,6.9084,6.8361,6.8118,6.7729,6.7578,6.7487,6.6942,6.67,6.664,6.6191,6.6011,6.5862,6.4725,6.4455,6.4635,6.4665,6.4815,6.5203,6.634,6.6819,6.6999,6.6999,6.667,6.6311,6.6311,6.664,6.6819,6.6161,6.649,6.6999,6.6999,6.6999,6.6999,6.6999,6.6819,6.64,6.5473,6.4455,6.3288,6.1942,6.0236,5.9458,6.0565,6.0116,6.0595,6.3079,6.3558,6.4306,6.5862,6.6011,6.6281,6.6939,6.6999,6.6999,6.6999,6.6999,6.6999,6.6999,6.6999,6.6999,6.6999,6.6999,6.6999,6.6999,6.6999,6.6999,6.6999,6.6999,6.6753,6.6319,6.6195,6.5913,6.5473,6.5378,6.5314,6.5314,6.5314,6.5251,6.5158,6.5158,6.5092,6.4996,8.2883,8.2883,8.2883,8.2883,8.2883,8.2883,8.2883,8.2883,8.2883,8.2883,8.2883,8.2883,8.2883,8.2883,8.2883,8.2883,8.2883,8.2883,8.2883,8.2188,8.0317,7.6977,7.5496,7.4737,7.4737,7.4073,7.3723,7.3723,7.3117,7.2857,7.2857,7.2797,7.242,7.173,7.173,7.1291,7.0515,6.9319,6.8795,6.8677,6.6793,6.6011,6.6011,6.6011,6.6011,6.5922,6.5233,6.5413,6.5802,6.4455,6.4426,6.5114,6.5802,6.646,6.6999,6.6999,6.6999,6.6999,6.6999,6.6999,6.6819,6.6191,6.652,6.6999,6.6999,6.6999,6.6999,6.6999,6.646,6.6011,6.6011,6.4425,6.3138,6.3108,6.2002,6.1373,6.2032,6.2689,6.3347,6.3947,6.4575,6.5263,6.5951,6.6011,6.6281,6.6939,6.6999,6.6999,6.6999,6.6999,6.6999,6.6999,6.6999,6.6999,6.6999,6.6999,6.6999,6.6999,6.6999,6.6999,6.6999,6.6999,6.6999,6.6999,6.666,6.6506,6.6475,6.6132,6.6007,6.6007,6.6007,6.5819,6.5507,6.5507,6.5285,6.4996,8.2883,8.2883,8.2883,8.2883,8.2883,8.2883,8.2883,8.2883,8.2883,8.2883,8.2883,8.2883,8.2883,8.2883,8.2883,8.2883,8.2883,8.2684,8.2154,8.1426,8.036,7.8817,7.8364,7.7874,7.7384,7.7183,7.6823,7.63,7.5242,7.5201,7.5973,7.382,7.3384,7.4373,7.2511,7.1576,7.1294,7.0454,7.0064,6.9919,6.8552,6.7931,6.7873,6.7034,6.67,6.661,6.5951,6.5503,6.5293,6.5383,6.4904,6.4515,6.5652,6.646,6.6999,6.6999,6.6999,6.6999,6.6999,6.6999,6.6939,6.6759,6.6849,6.6999,6.6999,6.6999,6.6999,6.6999,6.6819,6.655,6.6101,6.5533,6.4814,6.3887,6.3797,6.3738,6.3468,6.4006,6.4695,6.5323,6.5592,6.5981,6.664,6.67,6.6789,6.6969,6.6999,6.6999,6.6999,6.6999,6.6999,6.6999,6.6999,6.6999,6.6999,6.6999,6.6999,6.6999,6.6999,6.6999,6.6999,6.6999,6.6876,6.666,6.6537,6.6382,6.6132,6.6039,6.6007,6.6007,6.6007,6.5945,6.5819,6.557,6.5443,6.5317,8.2883,8.2883,8.2883,8.2883,8.2883,8.2883,8.2883,8.2883,8.2883,8.2883,8.2883,8.2883,8.2883,8.2883,8.2883,8.2883,8.2883,8.2585,8.1856,8.1094,8.0366,7.9643,7.9312,7.8947,7.8517,7.8484,7.8285,7.7821,7.7085,7.698,7.7365,7.5489,7.4922,7.5423,7.3836,7.296,7.2643,7.1703,7.1292,7.1123,6.9181,6.8395,6.828,6.7035,6.661,6.655,6.6161,6.5742,6.5413,6.5562,6.5263,6.4934,6.5742,6.646,6.6999,6.6999,6.6999,6.6999,6.6999,6.6999,6.6999,6.6999,6.6999,6.6999,6.6999,6.6999,6.6999,6.6999,6.6999,6.6879,6.646,6.6191,6.5742,6.4934,6.4904,6.4934,6.4814,6.5114,6.5622,6.6311,6.64,6.655,6.6939,6.6999,6.6999,6.6999,6.6999,6.6999,6.6999,6.6999,6.6999,6.6999,6.6999,6.6999,6.6999,6.6999,6.6999,6.6999,6.6999,6.6999,6.6999,6.6999,6.6907,6.6691,6.6691,6.6599,6.6413,6.6413,6.6413,6.6413,6.6413,6.6226,6.5976,6.5788,6.5507,6.5253,8.2883,8.2883,8.2883,8.2883,8.2883,8.2883,8.2883,8.2883,8.2883,8.2883,8.2883,8.2883,8.2883,8.2883,8.2883,8.2883,8.2883,8.2552,8.1757,8.1061,8.0332,7.9543,7.8848,7.8484,7.8484,7.8484,7.8484,7.8484,7.8484,7.8119,7.7391,7.7391,7.6689,7.5389,7.5323,7.4925,7.4245,7.3051,7.2538,7.2287,6.9402,6.8131,6.7931,6.6701,6.6162,6.6101,6.6101,6.6071,6.5922,6.5233,6.5473,6.6071,6.6041,6.646,6.6999,6.6999,6.6999,6.6999,6.6999,6.6999,6.6999,6.6999,6.6999,6.6999,6.6999,6.6999,6.6999,6.6999,6.6999,6.6999,6.6999,6.649,6.6101,6.6101,6.5562,6.5383,6.6011,6.6101,6.6311,6.6909,6.6999,6.6999,6.6999,6.6999,6.6999,6.6999,6.6999,6.6999,6.6999,6.6999,6.6999,6.6999,6.6999,6.6999,6.6999,6.6999,6.6999,6.6999,6.6999,6.6999,6.6999,6.6999,6.6999,6.6999,6.6999,6.6999,6.6999,6.6999,6.6999,6.6999,6.6999,6.6629,6.607,6.6007,6.5599,6.5092,8.2883,8.2883,8.2883,8.2883,8.2883,8.2883,8.2883,8.2883,8.2883,8.2883,8.2883,8.2883,8.2883,8.2883,8.2883,8.2883,8.2883,8.232,8.1028,8.0763,8.0101,7.8782,7.8583,7.8484,7.8484,7.8484,7.8484,7.8484,7.8484,7.8119,7.7391,7.7391,7.6954,7.6059,7.5555,7.5223,7.4999,7.4174,7.3807,7.3672,7.2025,7.0849,6.9873,6.8638,6.7606,6.6789,6.6789,6.646,6.5922,6.5233,6.5772,6.67,6.6161,6.646,6.6999,6.6999,6.6999,6.6999,6.6999,6.6999,6.6999,6.6999,6.6999,6.6999,6.6999,6.6999,6.6999,6.6999,6.6999,6.6999,6.6999,6.6879,6.6789,6.6789,6.667,6.661,6.6759,6.6789,6.6819,6.6969,6.6999,6.6999,6.6999,6.6999,6.6999,6.6999,6.6999,6.6999,6.6999,6.6999,6.6999,6.6999,6.6999,6.6999,6.6999,6.6999,6.6999,6.6999,6.6999,6.6999,6.6999,6.6999,6.6999,6.6999,6.6999,6.6999,6.6999,6.6999,6.6999,6.6999,6.6999,6.6907,6.6722,6.6195,6.5913,6.5725,8.2883,8.2883,8.2883,8.2883,8.2883,8.2883,8.2883,8.2883,8.2883,8.2883,8.2883,8.2883,8.2883,8.2883,8.2883,8.2883,8.2883,8.2419,8.1293,8.1194,8.0564,7.908,7.9014,7.8848,7.8517,7.8484,7.8484,7.8484,7.8484,7.7921,7.6861,7.6861,7.6324,7.5264,7.4925,7.4793,7.476,7.4362,7.4196,7.4095,7.2887,7.1674,7.0459,6.9261,6.8058,6.6999,6.6999,6.658,6.5951,6.5592,6.5951,6.652,6.649,6.67,6.6999,6.6999,6.6999,6.6999,6.6999,6.6999,6.6999,6.6999,6.6999,6.6999,6.6999,6.6999,6.6999,6.6999,6.6999,6.6999,6.6999,6.6999,6.6999,6.6999,6.6999,6.6999,6.6999,6.6999,6.6999,6.6999,6.6999,6.6999,6.6999,6.6999,6.6999,6.6999,6.6999,6.6999,6.6999,6.6999,6.6999,6.6999,6.6999,6.6999,6.6999,6.6999,6.6999,6.6999,6.6999,6.6999,6.6999,6.6999,6.6999,6.6999,6.6999,6.6999,6.6999,6.6999,6.7178,6.7449,6.7119,6.7086,6.7139,6.65,6.6039,6.5694,8.2883,8.2883,8.2883,8.2883,8.2883,8.2883,8.2883,8.2883,8.2883,8.2883,8.2883,8.2883,8.2883,8.2883,8.2883,8.2883,8.2883,8.2585,8.1856,8.1658,8.1028,7.9643,7.9477,7.9113,7.8517,7.8484,7.8484,7.8484,7.8484,7.7755,7.6324,7.6324,7.5562,7.4196,7.4196,7.4196,7.4196,7.4196,7.4196,7.412,7.3096,7.1869,7.0487,6.9492,6.8237,6.6999,6.6999,6.664,6.6191,6.6191,6.6191,6.6281,6.6819,6.6999,6.6999,6.6999,6.6999,6.6999,6.6999,6.6999,6.6999,6.6999,6.6999,6.6999,6.6999,6.6999,6.6999,6.6999,6.6999,6.6999,6.6999,6.6999,6.6999,6.6999,6.6999,6.6999,6.6999,6.6999,6.6999,6.6999,6.6999,6.6999,6.6999,6.6999,6.6999,6.6999,6.6999,6.6999,6.6999,6.6999,6.6999,6.6999,6.6999,6.6999,6.6999,6.6999,6.6999,6.6999,6.6999,6.6999,6.6999,6.6999,6.6999,6.6999,6.6999,6.6999,6.6999,6.6999,6.7419,6.7958,6.7389,6.7412,6.7669,6.6953,6.619,6.5443,8.2883,8.2883,8.2883,8.2883,8.2883,8.2883,8.2883,8.2883,8.2883,8.2883,8.2883,8.2883,8.2883,8.2883,8.2883,8.2883,8.2883,8.2585,8.1856,8.1194,8.0465,7.9643,7.898,7.8583,7.8484,7.8484,7.8484,7.8484,7.8484,7.7755,7.6324,7.6324,7.5562,7.4196,7.4196,7.4196,7.4196,7.4196,7.4196,7.4196,7.4011,7.2591,7.0571,7.0431,6.8972,6.6999,6.6999,6.6939,6.6849,6.6849,6.6849,6.6879,6.6969,6.6999,6.6999,6.6999,6.6999,6.6999,6.6999,6.6999,6.6999,6.6999,6.6999,6.6999,6.6999,6.6999,6.6999,6.6999,6.6999,6.6999,6.6999,6.6999,6.6999,6.6999,6.6999,6.6999,6.6999,6.6999,6.6999,6.6999,6.6999,6.6999,6.6999,6.6999,6.6999,6.6999,6.6999,6.6999,6.6999,6.6999,6.6999,6.6999,6.6999,6.6999,6.6999,6.6999,6.6999,6.6999,6.6999,6.6999,6.6999,6.6999,6.6999,6.6999,6.6999,6.6999,6.6999,6.6999,6.7419,6.7987,6.7898,6.8256,6.867,6.773,6.6574,6.5475,8.3388,8.3388,8.3332,8.3165,8.3108,8.3052,8.2911,8.2883,8.2883,8.2883,8.2883,8.2883,8.2883,8.2883,8.2883,8.2883,8.2519,8.2154,8.1823,8.1094,8.0366,7.9643,7.9279,7.8914,7.8517,7.8484,7.8484,7.8484,7.8484,7.7755,7.6324,7.6324,7.5562,7.4196,7.4196,7.4196,7.4196,7.4196,7.4196,7.4196,7.4196,7.2756,7.0599,7.0599,6.9118,6.6939,6.658,6.643,6.643,6.643,6.643,6.652,6.6879,6.6999,6.6999,6.6999,6.6999,6.6999,6.6999,6.6999,6.6999,6.6999,6.6999,6.6999,6.6999,6.6999,6.6999,6.6999,6.6999,6.6999,6.6999,6.6999,6.6999,6.6999,6.6999,6.6999,6.6999,6.6999,6.6999,6.6999,6.6999,6.6999,6.6999,6.6999,6.6999,6.6999,6.6999,6.6999,6.6999,6.6999,6.6999,6.6999,6.6999,6.6999,6.6999,6.6999,6.6999,6.6999,6.6999,6.6999,6.6999,6.6999,6.6999,6.6999,6.6999,6.6999,6.7029,6.7419,6.7748,6.7987,6.7987,6.7958,6.7806,6.7165,6.6556,6.6009]}]]